[[{"header":{"parameterUnit":"m.s-1","parameterCategory":1,"la1":30.6,"la2":28.766,"lo1":-90.7593,"lo2":-88.6598,"dx":0.0162,"dy":0.0183,"nx":116,"ny":114,"refTime":"2023-01-13T06:00:00:Z","depth":0,"parameterNumber":2,"parameterNumberName":"U-component_of_WINDS"},"data":[0.0,0.0,0.0,0.0,0.0,0.0,0.0,0.0,0.0,0.0,0.0,0.0,0.0,0.0,0.0,0.0,0.0,0.0,0.0,0.0,0.0,0.0,0.0,0.0,0.0,0.0,0.0,0.0,0.0,0.0,0.0,0.0,0.0,0.0,0.0,0.0,0.0,0.0,0.0,0.0,0.0,0.0,0.0,0.0,0.0,0.0,0.0,0.0,0.0,0.0,0.0,0.0,0.0,0.0,0.0,0.0,0.0,0.0,0.0,0.0,0.0,0.0,0.0,0.0,0.0,0.0,0.0,0.0,0.0,0.0,0.0,0.0,0.0,0.0,0.0,0.0,0.0,0.0,0.0,0.0,0.0,0.0,0.0,0.0,0.0,0.0,0.0,0.0,0.0,0.0,0.0,0.0,0.0,0.0,0.0,0.0,0.0,0.0,0.0,0.0,0.0,0.0,0.0,0.0,0.0,0.0,0.0,0.0,0.0,0.0,0.0,0.0,0.0,0.0,0.0,0.0,0.0,0.0,0.0,0.0,0.0,0.0,0.0,0.0,0.0,0.0,0.0,0.0,0.0,0.0,0.0,0.0,0.0,0.0,0.0,0.0,0.0,0.0,0.0,0.0,0.0,0.0,0.0,0.0,0.0,0.0,0.0,0.0,0.0,0.0,0.0,0.0,0.0,0.0,0.0,0.0,0.0,0.0,0.0,0.0,0.0,0.0,0.0,0.0,0.0,0.0,0.0,0.0,0.0,0.0,0.0,0.0,0.0,0.0,0.0,0.0,0.0,0.0,0.0,0.0,0.0,0.0,0.0,0.0,0.0,0.0,0.0,0.0,0.0,0.0,0.0,0.0,0.0,0.0,0.0,0.0,0.0,0.0,0.0,0.0,0.0,0.0,0.0,0.0,0.0,0.0,0.0,0.0,0.0,0.0,0.0,0.0,0.0,0.0,0.0,0.0,0.0,0.0,0.0,0.0,0.0,0.0,0.0,0.0,0.0,0.0,0.0,0.0,0.0,0.0,0.0,0.0,0.0,0.0,0.0,0.0,0.0,0.0,0.0,0.0,0.0,0.0,0.0,0.0,0.0,0.0,0.0,0.0,0.0,0.0,0.0,0.0,0.0,0.0,0.0,0.0,0.0,0.0,0.0,0.0,0.0,0.0,0.0,0.0,0.0,0.0,0.0,0.0,0.0,0.0,0.0,0.0,0.0,0.0,0.0,0.0,0.0,0.0,0.0,0.0,0.0,0.0,0.0,0.0,0.0,0.0,0.0,0.0,0.0,0.0,0.0,0.0,0.0,0.0,0.0,0.0,0.0,0.0,0.0,0.0,0.0,0.0,0.0,0.0,0.0,0.0,0.0,0.0,0.0,0.0,0.0,0.0,0.0,0.0,0.0,0.0,0.0,0.0,0.0,0.0,0.0,0.0,0.0,0.0,0.0,0.0,0.0,0.0,0.0,0.0,0.0,0.0,0.0,0.0,0.0,0.0,0.0,0.0,0.0,0.0,0.0,0.0,0.0,0.0,0.0,0.0,0.0,0.0,0.0,0.0,0.0,0.0,0.0,0.0,0.0,0.0,0.0,0.0,0.0,0.0,0.0,0.0,0.0,0.0,0.0,0.0,0.0,0.0,0.0,0.0,0.0,0.0,0.0,0.0,0.0,0.0,0.0,0.0,0.0,0.0,0.0,0.0,0.0,0.0,0.0,0.0,0.0,0.0,0.0,0.0,0.0,0.0,0.0,0.0,0.0,0.0,0.0,0.0,0.0,0.0,0.0,0.0,0.0,0.0,0.0,0.0,0.0,0.0,0.0,0.0,0.0,0.0,0.0,0.0,0.0,0.0,0.0,0.0,0.0,0.0,0.0,0.0,0.0,0.0,0.0,0.0,0.0,0.0,0.0,0.0,0.0,0.0,0.0,0.0,0.0,0.0,0.0,0.0,0.0,0.0,0.0,0.0,0.0,0.0,0.0,0.0,0.0,0.0,0.0,0.0,0.0,0.0,0.0,0.0,0.0,0.0,0.0,0.0,0.0,0.0,0.0,0.0,0.0,0.0,0.0,0.0,0.0,0.0,0.0,0.0,0.0,0.0,0.0,0.0,0.0,0.0,0.0,0.0,0.0,0.0,0.0,0.0,0.0,0.0,0.0,0.0,0.0,0.0,0.0,0.0,0.0,0.0,0.0,0.0,0.0,0.0,0.0,0.0,0.0,0.0,0.0,0.0,0.0,0.0,0.0,0.0,0.0,0.0,0.0,0.0,0.0,0.0,0.0,0.0,0.0,0.0,0.0,0.0,0.0,0.0,0.0,0.0,0.0,0.0,0.0,0.0,0.0,0.0,0.0,0.0,0.0,0.0,0.0,0.0,0.0,0.0,0.0,0.0,0.0,0.0,0.0,0.0,0.0,0.0,0.0,0.0,0.0,0.0,0.0,0.0,0.0,0.0,0.0,0.0,0.0,0.0,0.0,0.0,0.0,0.0,0.0,0.0,0.0,0.0,0.0,0.0,0.0,0.0,0.0,0.0,0.0,0.0,0.0,0.0,0.0,0.0,0.0,0.0,0.0,0.0,0.0,0.0,0.0,0.0,0.0,0.0,0.0,0.0,0.0,0.0,0.0,0.0,0.0,0.0,0.0,0.0,0.0,0.0,0.0,0.0,0.0,0.0,0.0,0.0,0.0,0.0,0.0,0.0,0.0,0.0,0.0,0.0,0.0,0.0,0.0,0.0,0.0,0.0,0.0,0.0,0.0,0.0,0.0,0.0,0.0,0.0,0.0,0.0,0.0,0.0,0.0,0.0,0.0,0.0,0.0,0.0,0.0,0.0,0.0,0.0,0.0,0.0,0.0,0.0,0.0,0.0,0.0,0.0,0.0,0.0,0.0,0.0,0.0,0.0,0.0,0.0,0.0,0.0,0.0,0.0,0.0,0.0,0.0,0.0,0.0,0.0,0.0,0.0,0.0,0.0,0.0,0.0,0.0,0.0,0.0,0.0,0.0,0.0,0.0,0.0,0.0,0.0,0.0,0.0,0.0,0.0,0.0,0.0,0.0,0.0,0.0,0.0,0.0,0.0,0.0,0.0,0.0,0.0,0.0,0.0,0.0,0.0,0.0,0.0,0.0,0.0,0.0,0.0,0.0,0.0,0.0,0.0,0.0,0.0,0.0,0.0,0.0,0.0,0.0,0.0,0.0,0.0,0.0,0.0,0.0,0.0,0.0,0.0,0.0,0.0,0.0,0.0,0.0,0.0,0.0,0.0,0.0,0.0,0.0,0.0,0.0,0.0,0.0,0.0,0.0,0.0,0.0,0.0,0.0,0.0,0.0,0.0,0.0,0.0,0.0,0.0,0.0,0.0,0.0,0.0,0.0,0.0,0.0,0.0,0.0,0.0,0.0,0.0,0.0,0.0,0.0,0.0,0.0,0.0,0.0,0.0,0.0,0.0,0.0,0.0,0.0,0.0,0.0,0.0,0.0,0.0,0.0,0.0,0.0,0.0,0.0,0.0,0.0,0.0,0.0,0.0,0.0,0.0,0.0,0.0,0.0,0.0,0.0,0.0,0.0,0.0,0.0,0.0,0.0,0.0,0.0,0.0,0.0,0.0,0.0,0.0,0.0,0.0,0.0,0.0,0.0,0.0,0.0,0.0,0.0,0.0,0.0,0.0,0.0,0.0,0.0,0.0,0.0,0.0,0.0,0.0,0.0,0.0,0.0,0.0,0.0,0.0,0.0,0.0,0.0,0.0,0.0,0.0,0.0,0.0,0.0,0.0,0.0,0.0,0.0,0.0,0.0,0.0,0.0,0.0,0.0,0.0,0.0,0.0,0.0,0.0,0.0,0.0,0.0,0.0,0.0,0.0,0.0,0.0,0.0,0.0,0.0,0.0,0.0,0.0,0.0,0.0,0.0,0.0,0.0,0.0,0.0,0.0,0.0,0.0,0.0,0.0,0.0,0.0,0.0,0.0,0.0,0.0,0.0,0.0,0.0,0.0,0.0,0.0,0.0,0.0,0.0,0.0,0.0,0.0,0.0,0.0,0.0,0.0,0.0,0.0,0.0,0.0,0.0,0.0,0.0,0.0,0.0,0.0,0.0,0.0,0.0,0.0,0.0,0.0,0.0,0.0,0.0,0.0,0.0,0.0,0.0,0.0,0.0,0.0,0.0,0.0,0.0,0.0,0.0,0.0,0.0,0.0,0.0,0.0,0.0,0.0,0.0,0.0,0.0,0.0,0.0,0.0,0.0,0.0,0.0,0.0,0.0,0.0,0.0,0.0,0.0,0.0,0.0,0.0,0.0,0.0,0.0,0.0,0.0,0.0,0.0,0.0,0.0,0.0,0.0,0.0,0.0,0.0,0.0,0.0,0.0,0.0,0.0,0.0,0.0,0.0,0.0,0.0,0.0,0.0,0.0,0.0,0.0,0.0,0.0,0.0,0.0,0.0,0.0,0.0,0.0,0.0,0.0,0.0,0.0,0.0,0.0,0.0,0.0,0.0,0.0,0.0,0.0,0.0,0.0,0.0,0.0,0.0,0.0,0.0,0.0,0.0,0.0,0.0,0.0,0.0,0.0,0.0,0.0,0.0,0.0,0.0,0.0,0.0,0.0,0.0,0.0,0.0,0.0,0.0,0.0,0.0,0.0,0.0,0.0,0.0,0.0,0.0,0.0,0.0,0.0,0.0,0.0,0.0,0.0,0.0,0.0,0.0,0.0,0.0,0.0,0.0,0.0,0.0,0.0,0.0,0.0,0.0,0.0,0.0,0.0,0.0,0.0,0.0,0.0,0.0,0.0,0.0,0.0,0.0,0.0,0.0,0.0,0.0,0.0,0.0,0.0,0.0,0.0,0.0,0.0,0.0,0.0,0.0,0.0,0.0,0.0,0.0,0.0,0.0,0.0,0.0,0.0,0.0,0.0,0.0,0.0,0.0,0.0,0.0,0.0,0.0,0.0,0.0,0.0,0.0,0.0,0.0,0.0,0.0,0.0,0.0,0.0,0.0,0.0,0.0,0.0,0.0,0.0,0.0,0.0,0.0,0.0,0.0,0.0,0.0,0.0,0.0,0.0,0.0,0.0,0.0,0.0,0.0,0.0,0.0,0.0,0.0,0.0,0.0,0.0,0.0,0.0,0.0,0.0,0.0,0.0,0.0,0.0,0.0,0.0,0.0,0.0,0.0,0.0,0.0,0.0,0.0,0.0,0.0,0.0,0.0,0.0,0.0,0.0,0.0,0.0,0.0,0.0,0.0,0.0,0.0,0.0,0.0,0.0,0.0,0.0,0.0,0.0,0.0,0.0,0.0,0.0,0.0,0.0,0.0,0.0,0.0,0.0,0.0,0.0,0.0,0.0,0.0,0.0,0.0,0.0,0.0,0.0,0.0,0.0,0.0,0.0,0.0,0.0,0.0,0.0,0.0,0.0,0.0,0.0,0.0,0.0,0.0,0.0,0.0,0.0,0.0,0.0,0.0,0.0,0.0,0.0,0.0,0.0,0.0,0.0,0.0,0.0,0.0,0.0,0.0,0.0,0.0,0.0,0.0,0.0,0.0,0.0,0.0,0.0,0.0,0.0,0.0,0.0,0.0,0.0,0.0,0.0,0.0,0.0,0.0,0.0,0.0,0.0,0.0,0.0,0.0,0.0,0.0,0.0,0.0,0.0,0.0,0.0,0.0,0.0,0.0,0.0,0.0,0.0,0.0,0.0,0.0,0.0,0.0,0.0,0.0,0.0,0.0,0.0,0.0,0.0,0.0,0.0,0.0,0.0,0.0,0.0,0.0,0.0,0.0,0.0,0.0,0.0,0.0,0.0,0.0,0.0,0.0,0.0,0.0,0.0,0.0,0.0,0.0,0.0,0.0,0.0,0.0,0.0,0.0,0.0,0.0,0.0,0.0,0.0,0.0,0.0,0.0,0.0,0.0,0.0,0.0,0.0,0.0,0.0,0.0,0.0,0.0,0.0,0.0,0.0,0.0,0.0,0.0,0.0,0.0,0.0,0.0,0.0,0.0,0.0,0.0,0.0,0.0,0.0,0.0,0.0,0.0,0.0,0.0,0.0,0.0,0.0,0.0,0.0,0.0,0.0,0.0,0.0,0.0,0.0,0.0,-4.8071,-4.6312,0.0,0.0,0.0,0.0,0.0,0.0,0.0,0.0,0.0,0.0,0.0,0.0,0.0,0.0,0.0,0.0,0.0,0.0,0.0,0.0,0.0,0.0,0.0,0.0,0.0,0.0,0.0,0.0,0.0,0.0,0.0,0.0,0.0,0.0,0.0,0.0,0.0,0.0,0.0,0.0,0.0,0.0,0.0,0.0,0.0,0.0,0.0,0.0,0.0,0.0,0.0,0.0,0.0,0.0,0.0,0.0,0.0,0.0,0.0,0.0,0.0,0.0,0.0,0.0,0.0,0.0,0.0,0.0,0.0,0.0,0.0,0.0,0.0,0.0,0.0,0.0,0.0,0.0,0.0,0.0,0.0,0.0,0.0,0.0,0.0,0.0,0.0,0.0,0.0,0.0,0.0,0.0,0.0,0.0,0.0,0.0,0.0,0.0,0.0,0.0,0.0,0.0,0.0,0.0,0.0,0.0,0.0,0.0,0.0,0.0,0.0,0.0,0.0,0.0,-4.9018,-4.8274,0.0,0.0,0.0,0.0,0.0,0.0,0.0,0.0,0.0,0.0,0.0,0.0,0.0,0.0,0.0,0.0,0.0,0.0,0.0,0.0,0.0,0.0,0.0,0.0,0.0,0.0,0.0,0.0,0.0,0.0,0.0,0.0,0.0,0.0,0.0,0.0,0.0,0.0,0.0,0.0,0.0,0.0,0.0,0.0,0.0,0.0,0.0,0.0,0.0,0.0,0.0,0.0,0.0,0.0,0.0,0.0,0.0,0.0,0.0,0.0,0.0,0.0,0.0,0.0,0.0,0.0,0.0,0.0,0.0,0.0,0.0,0.0,0.0,0.0,0.0,0.0,0.0,0.0,0.0,0.0,0.0,0.0,0.0,0.0,0.0,0.0,0.0,0.0,0.0,0.0,0.0,0.0,0.0,0.0,0.0,0.0,0.0,0.0,0.0,0.0,0.0,0.0,0.0,0.0,0.0,0.0,0.0,0.0,-4.9999,-5.0101,-5.0676,-5.0067,-5.0101,-5.0642,-4.9898,-5.0202,-5.105,-4.9224,0.0,0.0,0.0,0.0,0.0,0.0,0.0,0.0,0.0,0.0,0.0,0.0,0.0,0.0,0.0,0.0,0.0,0.0,0.0,0.0,0.0,0.0,0.0,0.0,0.0,0.0,0.0,0.0,0.0,0.0,0.0,0.0,0.0,0.0,0.0,0.0,0.0,0.0,0.0,0.0,0.0,0.0,0.0,0.0,0.0,0.0,0.0,0.0,0.0,0.0,0.0,0.0,0.0,0.0,0.0,0.0,0.0,0.0,0.0,0.0,0.0,0.0,0.0,0.0,0.0,0.0,0.0,0.0,0.0,0.0,0.0,0.0,0.0,0.0,0.0,0.0,0.0,0.0,0.0,0.0,0.0,0.0,0.0,0.0,0.0,0.0,-4.5846,-4.669,0.0,0.0,0.0,0.0,0.0,0.0,0.0,0.0,0.0,0.0,0.0,0.0,0.0,-4.9221,-4.9932,-5.0608,-5.1285,-5.2029,-5.2638,-5.2976,-5.3044,-5.2942,-5.2976,-5.301,-5.2198,0.0,-5.1151,-5.0881,0.0,0.0,0.0,0.0,0.0,0.0,0.0,0.0,0.0,0.0,0.0,0.0,0.0,0.0,0.0,0.0,0.0,0.0,0.0,0.0,0.0,0.0,0.0,0.0,0.0,0.0,0.0,0.0,0.0,0.0,0.0,0.0,0.0,0.0,0.0,0.0,0.0,0.0,0.0,0.0,0.0,0.0,0.0,0.0,0.0,0.0,0.0,0.0,0.0,0.0,0.0,0.0,0.0,0.0,0.0,0.0,0.0,0.0,0.0,0.0,0.0,0.0,0.0,0.0,0.0,0.0,0.0,0.0,0.0,0.0,0.0,0.0,0.0,0.0,0.0,0.0,0.0,0.0,0.0,0.0,0.0,0.0,0.0,0.0,0.0,-4.7793,-4.8896,-5.0937,-5.0626,-5.084,0.0,0.0,0.0,0.0,0.0,0.0,0.0,0.0,0.0,-5.1436,-5.1068,-5.1217,-5.1995,-5.2334,-5.2672,-5.2976,-5.3348,-5.3518,-5.3518,-5.3518,-5.3518,-5.3484,-5.3145,-5.2807,-5.2469,-5.1995,-5.1623,-5.1285,0.0,0.0,0.0,0.0,-5.0439,-5.0777,0.0,0.0,0.0,0.0,0.0,0.0,0.0,0.0,0.0,0.0,0.0,0.0,0.0,0.0,0.0,0.0,0.0,0.0,0.0,0.0,0.0,0.0,0.0,0.0,0.0,0.0,0.0,0.0,0.0,0.0,0.0,0.0,0.0,0.0,0.0,0.0,0.0,0.0,0.0,0.0,0.0,0.0,0.0,0.0,0.0,0.0,0.0,0.0,0.0,0.0,0.0,0.0,0.0,0.0,0.0,0.0,0.0,0.0,0.0,0.0,0.0,0.0,0.0,0.0,0.0,0.0,0.0,0.0,0.0,0.0,0.0,0.0,0.0,0.0,0.0,0.0,0.0,-5.0069,-5.136,-5.4241,-5.3442,-5.3344,0.0,0.0,0.0,0.0,0.0,0.0,-5.18,-5.208,-5.2647,-5.3404,-5.2866,-5.2976,-5.3788,-5.3788,-5.389,-5.4059,-5.4262,-5.4363,-5.4363,-5.4532,-5.4634,-5.4634,-5.4634,-5.4634,-5.4532,-5.3179,-5.2604,-5.2604,-5.2367,-5.1961,-5.1488,-5.1488,-5.1623,-5.1826,0.0,0.0,0.0,0.0,0.0,0.0,0.0,0.0,0.0,0.0,0.0,0.0,0.0,0.0,0.0,0.0,0.0,0.0,0.0,0.0,0.0,0.0,0.0,0.0,0.0,0.0,0.0,0.0,0.0,0.0,0.0,0.0,0.0,0.0,0.0,0.0,0.0,0.0,0.0,0.0,0.0,0.0,0.0,0.0,0.0,0.0,0.0,0.0,0.0,0.0,0.0,0.0,0.0,0.0,0.0,0.0,0.0,0.0,0.0,0.0,0.0,0.0,0.0,0.0,0.0,0.0,0.0,0.0,0.0,0.0,0.0,0.0,0.0,0.0,0.0,0.0,0.0,0.0,0.0,-5.426,-5.4489,0.0,0.0,0.0,0.0,-5.327,-5.266,-5.2631,-5.3264,-5.265,-5.267,-5.3483,-5.345,-5.3788,-5.4532,-5.4532,-5.4905,-5.5615,-5.6292,-5.663,-5.6664,-5.734,-5.7679,-5.7679,-5.7679,-5.7679,-5.7442,-5.46,-5.345,-5.3382,-5.2604,-5.2266,-5.2232,-5.2232,-5.2739,-5.3484,0.0,0.0,0.0,0.0,0.0,0.0,0.0,0.0,0.0,0.0,0.0,0.0,0.0,0.0,0.0,0.0,0.0,0.0,0.0,0.0,0.0,0.0,0.0,0.0,0.0,0.0,0.0,0.0,0.0,0.0,0.0,0.0,0.0,0.0,0.0,0.0,0.0,0.0,0.0,0.0,0.0,0.0,0.0,0.0,0.0,0.0,0.0,0.0,0.0,0.0,0.0,0.0,0.0,0.0,0.0,0.0,0.0,0.0,0.0,0.0,0.0,0.0,0.0,0.0,0.0,0.0,0.0,0.0,0.0,0.0,0.0,0.0,0.0,0.0,0.0,0.0,0.0,0.0,0.0,-5.4999,-5.4413,0.0,-5.5169,-5.4367,-5.3654,-5.3375,-5.3197,-5.3371,-5.4121,-5.3923,-5.4126,-5.4905,-5.4938,-5.5277,-5.6021,-5.6021,-5.6393,-5.7103,-5.7374,-5.7509,-5.7509,-5.778,-5.7881,-5.7881,-5.7881,-5.7881,-5.7814,-5.6765,-5.6325,-5.6292,-5.6021,-5.5886,-5.5886,-5.5886,-5.6089,-5.6359,0.0,0.0,0.0,0.0,0.0,0.0,0.0,0.0,0.0,0.0,0.0,0.0,0.0,0.0,0.0,0.0,0.0,0.0,0.0,0.0,0.0,0.0,0.0,0.0,0.0,0.0,0.0,0.0,0.0,0.0,0.0,0.0,0.0,0.0,0.0,0.0,0.0,0.0,0.0,0.0,0.0,0.0,-4.1809,0.0,0.0,0.0,0.0,0.0,0.0,0.0,0.0,0.0,0.0,0.0,0.0,0.0,0.0,0.0,0.0,0.0,0.0,0.0,0.0,0.0,0.0,0.0,0.0,0.0,0.0,0.0,0.0,0.0,0.0,0.0,0.0,0.0,0.0,-5.3185,-5.4106,-5.5848,-5.4719,-5.429,-5.558,-5.4535,-5.392,-5.4198,-5.4222,-5.4568,-5.5348,-5.5111,-5.5209,-5.5647,-5.5953,-5.6427,-5.7171,-5.7408,-5.7915,-5.8626,-5.8896,-5.9032,-5.9066,-5.9302,-5.9404,-5.9404,-5.9404,-5.9404,-5.9404,-5.9404,-5.9404,-5.9302,-5.8287,-5.7881,-5.7881,-5.7881,-5.8051,-5.8321,0.0,0.0,0.0,0.0,0.0,0.0,0.0,0.0,0.0,0.0,0.0,0.0,0.0,0.0,0.0,0.0,0.0,0.0,0.0,0.0,0.0,0.0,0.0,0.0,0.0,0.0,0.0,0.0,0.0,0.0,0.0,0.0,0.0,0.0,0.0,0.0,0.0,0.0,0.0,0.0,0.0,0.0,-4.5626,0.0,0.0,0.0,0.0,0.0,0.0,0.0,0.0,0.0,0.0,0.0,0.0,0.0,0.0,0.0,0.0,0.0,0.0,0.0,0.0,0.0,0.0,0.0,0.0,0.0,0.0,0.0,0.0,0.0,0.0,0.0,0.0,0.0,-5.4434,-5.5166,-5.5932,-5.6722,-5.5494,-5.4913,-5.5709,-5.5115,-5.5007,-5.5816,-5.5791,-5.6099,-5.6893,-5.6201,-5.5784,-5.5783,-5.6528,-5.7273,-5.7983,-5.8727,-5.9438,-6.0182,-6.096,-6.1332,-6.1366,-6.2076,-6.2381,-6.2381,-6.2381,-6.2381,-6.2381,-6.2381,-6.2381,-6.211,-5.9167,-5.8017,-5.8017,-5.8017,-5.849,-5.9235,0.0,0.0,0.0,0.0,0.0,0.0,0.0,0.0,0.0,0.0,0.0,0.0,0.0,0.0,0.0,0.0,0.0,0.0,0.0,0.0,0.0,0.0,0.0,0.0,0.0,0.0,0.0,0.0,0.0,0.0,0.0,0.0,0.0,0.0,0.0,0.0,0.0,0.0,0.0,0.0,0.0,0.0,-4.7535,0.0,0.0,0.0,0.0,0.0,0.0,0.0,0.0,0.0,0.0,0.0,0.0,0.0,0.0,0.0,0.0,0.0,0.0,0.0,0.0,0.0,0.0,0.0,0.0,0.0,0.0,0.0,0.0,0.0,0.0,0.0,-5.4725,-5.5713,-5.541,-5.4614,-5.479,-5.6589,-5.5483,-5.5329,-5.7241,-5.6725,-5.6611,-5.748,-5.6947,-5.6907,-5.7656,-5.7464,-5.7543,-5.8084,-5.8829,-5.9573,-6.0351,-6.0588,-6.1028,-6.1772,-6.1975,-6.211,-6.211,-6.2313,-6.2381,-6.2381,-6.2381,-6.2381,-6.2381,-6.2381,-6.2381,-6.2313,-6.1467,-6.1163,-6.1163,-6.1163,-6.1298,-6.1501,0.0,0.0,0.0,0.0,0.0,0.0,0.0,0.0,0.0,0.0,0.0,0.0,0.0,0.0,0.0,0.0,0.0,0.0,0.0,0.0,0.0,0.0,0.0,0.0,0.0,0.0,0.0,0.0,0.0,0.0,0.0,0.0,0.0,0.0,0.0,0.0,0.0,0.0,0.0,0.0,0.0,0.0,-4.9774,-4.9114,-4.8343,-4.7443,-4.6324,-4.6214,-4.6434,-4.5203,0.0,0.0,0.0,0.0,0.0,0.0,0.0,0.0,0.0,0.0,0.0,0.0,0.0,0.0,0.0,0.0,0.0,0.0,0.0,0.0,0.0,0.0,0.0,0.0,-5.5511,-5.6868,-5.7134,-5.6427,-5.6265,-5.7239,-5.6881,-5.7087,-5.8495,-5.8199,-5.8255,-5.9116,-5.832,-5.8305,-5.9429,-5.8734,-5.8693,-5.9438,-6.0216,-6.0825,-6.1298,-6.1603,-6.1975,-6.2381,-6.2381,-6.2381,-6.2381,-6.2381,-6.2381,-6.2381,-6.2381,-6.2381,-6.2381,-6.2381,-6.2381,-6.2381,0.0,0.0,0.0,0.0,-6.2381,-6.2381,0.0,0.0,0.0,0.0,0.0,0.0,0.0,0.0,0.0,0.0,0.0,0.0,0.0,0.0,0.0,0.0,0.0,0.0,0.0,0.0,0.0,0.0,0.0,0.0,0.0,0.0,0.0,0.0,0.0,0.0,0.0,0.0,0.0,0.0,0.0,0.0,0.0,0.0,0.0,0.0,0.0,0.0,-5.2234,-5.0822,-4.9735,-4.8812,-4.7384,-4.6872,-4.6778,-4.606,0.0,0.0,0.0,0.0,0.0,0.0,0.0,0.0,0.0,0.0,0.0,0.0,0.0,0.0,0.0,0.0,0.0,0.0,0.0,0.0,0.0,0.0,0.0,0.0,-5.6028,-5.7487,-5.8737,-5.926,-5.9189,-5.8461,-5.8907,-5.9376,-5.9564,-5.9567,-5.9873,-6.0702,-5.9889,-5.9993,-6.14,-6.0079,0.0,0.0,0.0,-6.1434,-6.1434,-6.2076,-6.2381,-6.2381,-6.2381,-6.2381,-6.2381,-6.2381,-6.2381,-6.2381,-6.2381,-6.2381,-6.2381,-6.2381,-6.2448,-6.2516,-6.2415,-6.2381,-6.2415,-6.2482,-6.2516,-6.2516,0.0,0.0,0.0,0.0,0.0,0.0,0.0,0.0,0.0,0.0,0.0,0.0,0.0,0.0,0.0,0.0,0.0,0.0,0.0,0.0,0.0,0.0,0.0,0.0,0.0,0.0,0.0,0.0,0.0,0.0,0.0,0.0,0.0,0.0,0.0,0.0,0.0,0.0,0.0,0.0,0.0,0.0,-5.4876,-5.4568,-5.3981,-5.3242,-5.2953,-5.2844,-5.2712,-5.1872,-5.1592,-5.1606,-5.1587,0.0,0.0,0.0,0.0,0.0,0.0,0.0,0.0,0.0,0.0,0.0,0.0,0.0,0.0,0.0,0.0,0.0,0.0,0.0,0.0,-5.5568,-5.7316,-5.841,-5.7504,-5.9517,-6.0834,-6.0061,-5.9588,-5.9795,-6.1035,-6.1168,-6.1498,-6.2296,-6.1556,-6.1168,-6.1467,-6.1112,-6.0926,-6.1061,-6.1806,-6.2178,-6.2178,-6.2313,-6.2381,-6.2381,-6.2381,0.0,-6.2381,-6.2381,-6.2381,-6.2381,-6.2381,-6.2381,-6.2381,-6.2381,-6.2753,-6.3226,-6.2618,-6.2381,-6.2448,-6.3091,-6.3294,-6.3396,0.0,0.0,0.0,0.0,0.0,0.0,0.0,0.0,0.0,0.0,0.0,0.0,0.0,0.0,0.0,0.0,0.0,0.0,0.0,0.0,0.0,0.0,0.0,0.0,0.0,0.0,0.0,0.0,0.0,0.0,0.0,0.0,0.0,0.0,0.0,0.0,0.0,0.0,0.0,0.0,0.0,0.0,-5.6712,-5.5926,-5.5359,-5.5023,-5.5023,-5.5023,-5.4856,-5.3692,-5.3297,-5.3158,-5.2413,-5.2136,-5.1921,0.0,0.0,0.0,0.0,0.0,0.0,0.0,0.0,0.0,0.0,0.0,0.0,0.0,0.0,-5.5507,0.0,0.0,-5.6689,-5.6414,-5.796,-5.9189,-5.9246,-6.061,-6.1309,-6.0558,-6.0801,-6.1335,-6.2119,-6.2583,-6.3033,-6.3441,-6.2615,-6.2241,-6.2634,-6.18,-6.1467,-6.1839,-6.2212,-6.2381,-6.2381,-6.2753,-6.2956,-6.2956,-6.3328,-6.3294,-6.2956,-6.3328,-6.3294,-6.2956,-6.3328,-6.3497,-6.3497,-6.3497,-6.3734,-6.4005,-6.3632,-6.3497,-6.3531,-6.3903,-6.4072,-6.4106,0.0,0.0,0.0,0.0,0.0,0.0,0.0,0.0,0.0,0.0,0.0,0.0,0.0,0.0,0.0,0.0,0.0,0.0,0.0,0.0,0.0,0.0,0.0,0.0,0.0,0.0,0.0,0.0,0.0,0.0,0.0,0.0,0.0,0.0,0.0,0.0,0.0,0.0,0.0,0.0,0.0,0.0,-5.7651,-5.6483,-5.588,-5.5614,-5.5614,-5.5434,-5.5051,-5.4162,-5.385,-5.3725,-5.282,-5.2866,-5.3048,-5.1597,-5.2917,0.0,0.0,0.0,0.0,0.0,0.0,0.0,0.0,0.0,-5.5845,-5.5857,-5.5984,-5.5953,-5.5571,-5.6572,-5.7577,-5.7872,-5.9176,-6.0603,-6.1887,-6.2218,-6.2116,-6.1497,-6.2365,-6.3062,-6.3062,-6.3833,-6.431,-6.431,-6.3441,-6.3161,-6.3766,-6.235,-6.1772,-6.2381,-6.2381,-6.2448,-6.2618,-6.3193,-6.3599,-6.3734,-6.4343,-6.4309,-6.3734,-6.4343,-6.4275,-6.3768,-6.4343,-6.4613,-6.4613,-6.4749,-6.4816,-6.4816,-6.4986,-6.5019,-6.5019,-6.4884,-6.4816,-6.4816,0.0,0.0,0.0,0.0,0.0,0.0,0.0,0.0,0.0,0.0,0.0,0.0,0.0,0.0,0.0,0.0,0.0,0.0,0.0,0.0,0.0,0.0,0.0,0.0,0.0,0.0,0.0,0.0,0.0,0.0,0.0,0.0,0.0,0.0,0.0,0.0,0.0,0.0,0.0,0.0,0.0,0.0,-5.7091,-5.7567,-5.6876,-5.5664,-5.5664,-5.4847,-5.3935,-5.5058,-5.5482,-5.571,-5.6891,-5.729,-5.7165,-5.6287,0.0,-5.6198,0.0,0.0,0.0,-5.4509,-5.4987,-5.5514,0.0,0.0,-5.6699,-5.6742,-5.7267,-5.7937,-5.8564,-5.9417,-6.0248,-6.097,-6.2487,-6.3613,-6.3796,-6.4457,-6.4872,-6.4757,-6.4259,-6.3943,-6.3943,-6.4677,-6.5191,-6.5191,-6.4238,-6.3695,-6.3801,-6.2832,-6.2313,-6.2381,-6.2381,-6.2719,-6.3396,-6.3463,-6.3835,-6.4478,-6.4546,-6.4546,-6.4478,-6.4546,-6.4546,-6.4478,-6.4546,-6.4613,-6.4647,-6.529,-6.5561,-6.5628,-6.6305,-6.6576,-6.6474,-6.5831,-6.5561,-6.5662,0.0,0.0,0.0,0.0,0.0,0.0,0.0,0.0,0.0,0.0,0.0,0.0,0.0,0.0,0.0,0.0,0.0,0.0,0.0,0.0,0.0,0.0,0.0,0.0,0.0,0.0,0.0,0.0,0.0,0.0,0.0,0.0,0.0,0.0,0.0,0.0,0.0,0.0,0.0,0.0,0.0,0.0,-5.7522,-5.7401,-5.6989,-5.6411,-5.6335,-5.5949,0.0,0.0,-5.5032,-5.508,-5.5312,-5.5664,-5.5903,-5.5554,-5.5765,0.0,-5.5868,0.0,0.0,0.0,-5.6748,-5.6992,-5.704,-5.7996,-5.8761,-5.8342,-5.8858,-5.9648,-6.0456,-6.086,-6.152,0.0,-6.3649,-6.4237,-6.4714,-6.5081,-6.5301,-6.5301,-6.5411,-6.5301,-6.4861,-6.5521,-6.5999,-6.5999,-6.5547,-6.5309,-6.5309,-6.3939,-6.3333,-6.3779,-6.3305,-6.3396,-6.414,-6.458,-6.4918,-6.5256,-6.5696,-6.5662,-6.5256,-6.5696,-6.5899,-6.5899,-6.5899,-6.5899,-6.5899,-6.6203,-6.6339,-6.6373,-6.6677,-6.6812,-6.6779,-6.644,-6.6339,-6.6373,0.0,0.0,0.0,0.0,0.0,0.0,0.0,0.0,0.0,0.0,0.0,0.0,0.0,0.0,0.0,0.0,0.0,0.0,0.0,0.0,0.0,0.0,0.0,0.0,0.0,0.0,0.0,0.0,0.0,0.0,0.0,0.0,0.0,0.0,0.0,0.0,0.0,0.0,0.0,0.0,0.0,0.0,-5.7655,-5.7091,-5.6768,-5.6541,-5.6261,-5.5934,0.0,0.0,-5.4068,-5.3894,-5.3801,-5.4279,-5.4802,-5.4811,-5.5015,-5.5427,-5.6235,0.0,0.0,-5.7629,-5.8327,-5.8686,-5.8646,-5.9541,-6.0237,-5.9626,-6.0003,-6.0713,-6.1741,-6.2108,-6.2842,-6.4494,-6.4934,-6.5301,-6.5888,-6.5962,-6.5962,-6.5962,-6.6476,-6.6586,-6.6035,-6.6476,-6.6843,-6.6843,-6.6554,-6.6385,-6.632,-6.4881,-6.4231,-6.4725,-6.4132,-6.4174,-6.4884,-6.5425,-6.5797,-6.6,-6.6542,-6.6542,-6.6,-6.6576,-6.6812,-6.6812,-6.6812,-6.6812,-6.6812,-6.6812,-6.6812,-6.6812,-6.6812,-6.6812,-6.6846,-6.7049,-6.6981,-6.6812,0.0,0.0,0.0,0.0,0.0,0.0,0.0,0.0,0.0,0.0,0.0,0.0,0.0,0.0,0.0,0.0,0.0,0.0,0.0,0.0,0.0,0.0,0.0,0.0,0.0,0.0,0.0,0.0,0.0,0.0,0.0,0.0,0.0,0.0,0.0,0.0,0.0,0.0,0.0,0.0,0.0,0.0,-5.6938,-5.6912,-5.6443,-5.562,-5.4838,0.0,0.0,0.0,-5.2989,-5.2626,-5.4101,-5.5025,0.0,-5.5566,-5.5038,0.0,0.0,0.0,-5.6969,-5.7776,-5.9171,-6.0346,-6.0322,-6.0358,-6.0395,-6.0395,-6.0358,-6.0896,-6.245,-6.3466,-6.453,-6.6182,-6.7063,-6.7604,-6.7614,-6.7614,-6.7614,-6.7614,-6.7677,-6.7677,-6.7614,-6.7677,-6.765,-6.765,-6.6881,-6.6325,-6.613,-6.5266,-6.4721,-6.4627,-6.458,-6.4918,-6.5662,-6.5662,-6.6068,-6.6779,-6.6812,-6.6812,-6.6779,-6.6812,-6.6812,-6.6812,-6.6812,-6.6812,-6.6812,-6.6812,-6.6812,-6.6812,-6.6812,-6.6812,-6.6914,-6.759,-6.7421,-6.6812,0.0,0.0,0.0,0.0,0.0,0.0,0.0,0.0,0.0,0.0,0.0,0.0,0.0,0.0,0.0,0.0,0.0,0.0,0.0,0.0,0.0,0.0,0.0,0.0,0.0,0.0,0.0,0.0,0.0,0.0,0.0,0.0,0.0,0.0,0.0,0.0,0.0,0.0,0.0,0.0,0.0,0.0,-5.6118,-5.558,-5.5219,-5.4781,0.0,0.0,0.0,0.0,0.0,0.0,-5.3573,0.0,0.0,-5.4657,0.0,0.0,0.0,0.0,-5.7923,-5.9245,-6.0382,-6.1068,-6.0539,-6.1233,-6.1995,-6.1994,-6.1562,-6.1851,-6.4053,-6.3796,-6.3943,-6.6145,-6.6733,-6.71,-6.7614,-6.7687,-6.7687,-6.7687,-6.7687,0.0,-6.7687,-6.7687,-6.7687,-6.7687,-6.7909,-6.776,-6.7052,-6.6663,-6.6383,-6.6195,-6.5623,-6.5662,-6.644,-6.6914,-6.7286,-6.7557,-6.8064,-6.8064,-6.7523,-6.7523,-6.7252,-6.6812,-6.6812,-6.7083,-6.7523,-6.7523,-6.7861,-6.8335,-6.8335,-6.8335,-6.8368,-6.8605,-6.8538,-6.8335,0.0,0.0,0.0,0.0,0.0,0.0,0.0,0.0,0.0,0.0,0.0,0.0,0.0,0.0,0.0,0.0,0.0,0.0,0.0,0.0,0.0,0.0,0.0,0.0,0.0,0.0,0.0,0.0,0.0,0.0,0.0,0.0,0.0,0.0,0.0,0.0,0.0,0.0,0.0,0.0,0.0,0.0,-5.6043,-5.4968,-5.4547,0.0,0.0,0.0,0.0,0.0,0.0,0.0,0.0,0.0,0.0,0.0,0.0,0.0,0.0,-5.8437,-5.9171,-6.0493,-6.1447,-6.1874,-6.1402,-6.2292,-6.3266,-6.3257,-6.2829,-6.3062,-6.4971,-6.42,-6.398,-6.6145,-6.6512,-6.6769,-6.7577,-6.7687,-6.7687,-6.7687,-6.7687,-6.7687,0.0,-6.7687,-6.7797,-6.8091,-6.832,-6.8239,-6.7876,-6.7443,-6.7113,-6.6946,-6.6364,-6.644,-6.7184,-6.7658,-6.803,-6.8335,-6.8842,-6.8842,-6.8335,-6.8335,-6.8064,-6.7624,-6.7624,-6.7895,-6.8335,-6.8335,-6.8639,-6.9113,-6.9113,-6.9113,-6.9147,-6.9383,-6.9485,-6.9451,0.0,0.0,0.0,0.0,0.0,0.0,0.0,0.0,0.0,0.0,0.0,0.0,0.0,0.0,0.0,0.0,0.0,0.0,0.0,0.0,0.0,0.0,0.0,0.0,0.0,0.0,0.0,0.0,0.0,0.0,0.0,0.0,0.0,0.0,0.0,0.0,0.0,0.0,0.0,0.0,0.0,0.0,-5.6452,-5.5003,0.0,0.0,0.0,0.0,0.0,0.0,0.0,0.0,0.0,0.0,0.0,0.0,0.0,-5.608,-5.7694,-5.9234,-6.0591,-6.1398,-6.223,-6.2879,-6.2879,-6.3503,-6.409,-6.409,-6.398,-6.4163,0.0,0.0,-6.4567,-6.6182,-6.6549,-6.688,-6.7687,-6.7797,-6.7797,0.0,0.0,0.0,0.0,0.0,-6.8091,-6.8898,-6.8116,-6.7868,-6.8468,-6.764,-6.7025,-6.6888,-6.688,-6.7218,-6.7963,-6.7996,-6.8402,-6.9214,-6.9214,-6.9214,-6.9214,-6.918,-6.9147,-6.9147,-6.9113,-6.9113,-6.9147,-6.9147,-6.918,-6.9214,-6.9214,-6.9214,-6.9316,-6.9992,-7.0263,-7.0161,0.0,0.0,0.0,0.0,0.0,0.0,0.0,0.0,0.0,0.0,0.0,0.0,0.0,0.0,0.0,0.0,0.0,0.0,0.0,0.0,0.0,0.0,0.0,0.0,0.0,0.0,0.0,0.0,0.0,0.0,0.0,0.0,0.0,0.0,0.0,0.0,0.0,0.0,0.0,0.0,0.0,0.0,-5.4157,0.0,0.0,0.0,0.0,0.0,0.0,0.0,0.0,0.0,0.0,0.0,-5.6209,0.0,0.0,-5.7732,-5.9351,-6.0076,-6.0583,-6.1407,-6.2678,-6.3759,-6.3759,-6.3943,-6.409,-6.409,-6.2622,-6.1594,0.0,0.0,0.0,-6.5338,-6.71,0.0,-6.9376,-6.9486,0.0,-6.8678,0.0,-6.8348,-6.7787,-6.8238,-6.8935,-6.9743,-6.9575,-6.9171,-6.8538,-6.8822,-6.86,-6.7633,-6.7624,-6.7996,-6.8808,-6.935,-6.9992,-7.0737,-7.0737,-7.0737,-7.0737,-7.0161,-6.9925,-6.9891,-6.935,-6.9417,-6.9925,-6.9925,-7.0229,-7.0737,-7.0737,-7.0737,-7.077,-7.0973,-7.1041,-7.1007,0.0,0.0,0.0,0.0,0.0,0.0,0.0,0.0,0.0,0.0,0.0,0.0,0.0,0.0,0.0,0.0,0.0,0.0,0.0,0.0,0.0,0.0,0.0,0.0,0.0,0.0,0.0,0.0,0.0,0.0,0.0,0.0,0.0,0.0,0.0,0.0,0.0,0.0,0.0,0.0,0.0,0.0,0.0,0.0,0.0,0.0,0.0,0.0,0.0,0.0,0.0,-5.3927,-5.4224,-5.547,-5.6805,-5.6863,0.0,-5.8808,-6.0061,-6.0919,-6.1557,-6.1994,-6.3111,-6.3906,-6.3172,-6.3576,-6.387,-6.3135,-6.1887,0.0,-6.2952,0.0,0.0,0.0,0.0,0.0,-7.0,-7.011,-6.9926,0.0,-6.9449,0.0,-6.9302,-6.9706,-7.044,-7.1578,-7.0639,-6.9854,-6.9531,-6.9558,-6.9242,-6.8445,-6.8436,-6.8808,-6.9586,-7.0297,-7.0906,-7.1312,-7.165,-7.1785,-7.1785,-7.1345,-7.1176,-7.1109,-7.0398,-7.0297,-7.0669,-7.0669,-7.0939,-7.1312,-7.1312,-7.1312,-7.1312,-7.1312,-7.1312,-7.1312,0.0,0.0,0.0,0.0,0.0,0.0,0.0,0.0,0.0,0.0,0.0,0.0,0.0,0.0,0.0,0.0,0.0,0.0,0.0,0.0,0.0,0.0,0.0,0.0,0.0,0.0,0.0,0.0,0.0,0.0,0.0,0.0,0.0,0.0,0.0,0.0,0.0,0.0,0.0,0.0,0.0,0.0,0.0,0.0,0.0,0.0,0.0,0.0,0.0,0.0,-5.3281,-5.443,-5.5228,-5.6169,-5.6975,-5.7083,-5.8183,-5.9528,-6.0322,-6.1567,-6.2618,-6.2618,-6.3463,-6.3796,-6.2144,-6.2952,-6.3576,-6.1814,0.0,-6.1961,-6.4237,-6.4347,-6.5081,-6.8091,0.0,-6.9449,-7.0146,-7.033,-7.0367,-7.0257,-7.033,-7.066,-7.1219,-7.1505,-7.2202,-7.3597,-7.164,-7.0527,-7.0947,-7.0164,-6.9595,-6.9258,-6.935,-6.9688,-7.0331,-7.0973,-7.1312,-7.1312,-7.2056,-7.2462,-7.2529,-7.2428,-7.2462,-7.2496,-7.1684,-7.1312,-7.1312,-7.1312,-7.1312,-7.1312,-7.1312,-7.1312,-7.1312,-7.1312,-7.1312,-7.1312,0.0,0.0,0.0,0.0,0.0,0.0,0.0,0.0,0.0,0.0,0.0,0.0,0.0,0.0,0.0,0.0,0.0,0.0,0.0,0.0,0.0,0.0,0.0,0.0,0.0,0.0,0.0,0.0,0.0,0.0,0.0,0.0,0.0,0.0,0.0,0.0,0.0,0.0,0.0,0.0,0.0,0.0,0.0,0.0,0.0,0.0,0.0,0.0,0.0,0.0,-5.3048,-5.3026,-5.4346,-5.6213,-5.8,-5.8678,-5.9512,-6.0374,-6.1184,-6.1606,-6.1797,-6.1797,-6.3454,-6.4677,-6.2989,-6.3356,0.0,0.0,-6.0089,-5.9955,-6.1043,-6.2805,-6.4714,-6.6623,0.0,0.0,0.0,0.0,-7.1835,0.0,-7.1688,-7.1872,-7.1329,-7.2496,-7.3377,-7.367,-7.3166,-7.25,-7.1833,-7.1648,-7.1081,-7.0046,-7.0601,-7.1007,-7.1109,-7.1244,-7.1312,-7.1312,-7.2056,-7.2699,-7.3274,-7.2665,-7.2732,-7.3206,-7.1887,-7.1312,-7.1312,-7.1312,-7.1312,-7.1312,-7.1312,-7.1312,-7.1312,-7.1312,-7.1312,-7.1312,0.0,0.0,0.0,0.0,0.0,0.0,0.0,0.0,0.0,0.0,0.0,0.0,0.0,0.0,0.0,0.0,0.0,0.0,0.0,0.0,0.0,0.0,0.0,0.0,0.0,0.0,0.0,0.0,0.0,0.0,0.0,0.0,0.0,0.0,0.0,0.0,0.0,0.0,0.0,0.0,0.0,0.0,0.0,0.0,0.0,0.0,0.0,0.0,0.0,0.0,-5.3251,-5.3363,-5.5613,-5.7396,-5.8678,-5.8601,-5.9764,-6.1042,-6.0988,-6.1589,-6.2245,-6.2245,-6.3758,-6.464,-6.2144,0.0,0.0,0.0,-5.8841,-5.9208,-6.1263,0.0,0.0,0.0,0.0,0.0,0.0,0.0,0.0,0.0,0.0,-7.3156,-7.3193,-7.4258,-7.5102,-7.5542,-7.5019,-7.4041,-7.2648,-7.2001,-7.1385,-7.0815,-7.1142,-7.1312,-7.1312,-7.1312,-7.1515,-7.1887,-7.2631,-7.3341,-7.4052,-7.3308,-7.3172,-7.3409,-7.1954,-7.1312,-7.1312,-7.1312,-7.1312,-7.1312,-7.1312,-7.1312,-7.1312,-7.1312,-7.1312,-7.1379,0.0,0.0,0.0,0.0,0.0,0.0,0.0,0.0,0.0,0.0,0.0,0.0,0.0,0.0,0.0,0.0,0.0,0.0,0.0,0.0,0.0,0.0,0.0,0.0,0.0,0.0,0.0,-5.0802,0.0,0.0,0.0,0.0,0.0,0.0,0.0,0.0,0.0,0.0,0.0,0.0,0.0,0.0,0.0,0.0,0.0,0.0,0.0,0.0,0.0,0.0,-5.3977,-5.44,-5.7086,-5.8167,-5.8409,-5.8256,-5.9592,-6.1076,-6.0946,-6.1719,-6.2603,-6.2975,-6.42,-6.4494,-6.1374,-6.1777,0.0,0.0,0.0,-5.8914,-6.1998,0.0,0.0,0.0,0.0,0.0,0.0,0.0,0.0,0.0,0.0,0.0,-7.4845,-7.5611,-7.6293,-7.6951,-7.5857,-7.4509,-7.3123,-7.1927,-7.1312,-7.1312,-7.1312,-7.1312,-7.1312,-7.1481,-7.1853,-7.2428,-7.3308,-7.395,-7.4356,-7.3747,-7.3409,-7.3172,-7.1887,-7.1312,-7.1312,-7.1312,-7.1312,-7.1312,-7.1312,-7.1312,-7.1312,-7.1312,-7.1413,-7.1616,0.0,0.0,0.0,0.0,0.0,0.0,0.0,0.0,0.0,0.0,0.0,0.0,0.0,0.0,0.0,0.0,0.0,0.0,0.0,0.0,0.0,0.0,0.0,0.0,0.0,0.0,0.0,-5.0802,-5.1536,0.0,0.0,0.0,0.0,0.0,0.0,-5.3203,0.0,0.0,0.0,0.0,0.0,0.0,0.0,0.0,0.0,0.0,0.0,0.0,0.0,0.0,0.0,-5.57,-5.7428,-5.7075,-5.6422,-5.8532,0.0,0.0,-6.2006,-6.2146,-6.2096,-6.3606,-6.464,-6.464,-6.2071,0.0,0.0,0.0,0.0,0.0,0.0,0.0,0.0,0.0,0.0,0.0,0.0,0.0,0.0,0.0,0.0,0.0,-7.4918,-7.5479,-7.5887,-7.5959,-7.4158,-7.3009,-7.2858,-7.1883,-7.1312,-7.1312,-7.1312,-7.1312,-7.1312,-7.1954,-7.2326,-7.2428,-7.3849,-7.4187,-7.3578,-7.351,-7.3105,-7.2462,-7.165,-7.1312,-7.1312,-7.1312,-7.1312,-7.1312,-7.1312,-7.1312,-7.1312,-7.1312,-7.1718,-7.2326,0.0,0.0,0.0,0.0,0.0,0.0,0.0,0.0,0.0,0.0,0.0,0.0,0.0,0.0,0.0,0.0,0.0,0.0,0.0,0.0,0.0,0.0,0.0,0.0,0.0,0.0,0.0,-5.1499,-5.183,0.0,0.0,0.0,0.0,0.0,0.0,-5.3203,-5.3203,0.0,0.0,0.0,0.0,0.0,0.0,0.0,0.0,0.0,0.0,0.0,0.0,0.0,0.0,0.0,-5.6553,-5.6524,0.0,0.0,-5.8808,-5.9931,-5.9985,-6.0771,-6.1868,-6.3039,-6.3962,-6.4053,-6.2071,0.0,0.0,0.0,0.0,0.0,-6.0529,0.0,0.0,0.0,0.0,0.0,0.0,0.0,0.0,0.0,0.0,0.0,0.0,0.0,-7.5298,-7.4082,-7.3252,-7.254,-7.196,-7.1546,-7.1312,-7.1312,-7.1312,-7.1515,-7.1954,-7.2259,-7.2834,-7.3747,-7.4322,-7.4458,-7.4153,-7.368,-7.3105,-7.236,-7.1616,-7.1312,-7.1312,-7.1312,-7.1312,-7.1312,-7.1312,-7.1312,-7.1312,-7.1312,-7.1785,-7.2462,0.0,0.0,0.0,0.0,0.0,0.0,0.0,0.0,0.0,0.0,0.0,0.0,0.0,0.0,0.0,0.0,0.0,0.0,0.0,0.0,0.0,0.0,0.0,0.0,0.0,0.0,0.0,0.0,-5.2344,-5.2637,0.0,0.0,-5.3203,-5.3203,0.0,0.0,0.0,0.0,0.0,0.0,0.0,0.0,0.0,0.0,0.0,0.0,0.0,0.0,0.0,0.0,0.0,0.0,0.0,0.0,0.0,0.0,-5.8355,-5.9555,-5.8945,-6.0167,-6.1764,-6.2579,-6.3439,-6.3672,0.0,0.0,0.0,0.0,0.0,-5.8474,-6.0089,-6.2695,0.0,0.0,0.0,0.0,0.0,0.0,0.0,0.0,0.0,-7.4661,-7.4882,-7.5189,-7.4535,-7.2498,-7.2364,-7.2056,-7.1356,-7.1312,-7.1312,-7.1312,-7.1515,-7.1887,-7.2394,-7.2834,-7.3578,-7.4627,-7.483,-7.4695,-7.4255,-7.3713,-7.2969,-7.2056,-7.1548,-7.1312,-7.1312,-7.1312,-7.1312,-7.1312,-7.1312,-7.1312,-7.1345,-7.1548,-7.209,-7.2834,0.0,0.0,0.0,0.0,0.0,0.0,0.0,0.0,0.0,0.0,0.0,0.0,0.0,0.0,0.0,0.0,0.0,0.0,0.0,0.0,0.0,0.0,0.0,0.0,0.0,0.0,0.0,0.0,0.0,0.0,-5.3203,-5.3203,-5.3203,-5.3203,0.0,0.0,0.0,0.0,0.0,0.0,0.0,0.0,0.0,0.0,0.0,0.0,0.0,0.0,0.0,0.0,0.0,0.0,0.0,0.0,0.0,0.0,-5.8041,-5.8375,-5.9926,-6.0963,-6.1795,-6.2493,-6.3437,-6.3654,0.0,0.0,0.0,0.0,-5.7997,-5.8474,-6.0089,-6.1741,0.0,0.0,0.0,0.0,0.0,0.0,0.0,0.0,0.0,-7.4037,-7.4845,-7.4576,-7.3492,-7.1457,-7.1312,-7.1312,-7.1312,-7.1312,-7.1312,-7.1312,-7.2022,-7.2394,-7.2394,-7.3849,-7.4593,-7.4627,-7.5337,-7.4897,-7.351,-7.3477,-7.2699,-7.1312,-7.1312,-7.1312,-7.1312,-7.1312,-7.1312,-7.1312,-7.1312,-7.1312,-7.1413,-7.2124,-7.2868,-7.3578,0.0,0.0,0.0,0.0,0.0,0.0,0.0,0.0,0.0,0.0,0.0,0.0,0.0,0.0,0.0,0.0,0.0,0.0,0.0,0.0,0.0,0.0,0.0,0.0,0.0,0.0,0.0,0.0,0.0,0.0,0.0,0.0,0.0,-5.3203,-5.3203,-5.3203,0.0,0.0,0.0,0.0,0.0,0.0,0.0,0.0,0.0,0.0,0.0,0.0,0.0,0.0,0.0,0.0,0.0,0.0,0.0,0.0,0.0,0.0,-5.8017,-5.8984,-6.0151,-6.0906,-6.1342,-6.1435,-6.0857,0.0,0.0,0.0,-5.7997,-5.8474,-6.0089,-6.2218,0.0,0.0,0.0,0.0,0.0,0.0,0.0,-7.2459,-7.3087,-7.3754,-7.4438,-7.3761,-7.2749,-7.1401,-7.1312,-7.1312,-7.1312,-7.1312,-7.1312,-7.1312,-7.2022,-7.2631,-7.3138,-7.4119,-7.4864,-7.5337,-7.5574,-7.4931,-7.3477,-7.3477,-7.2699,-7.1312,-7.1312,-7.1312,-7.1312,-7.1312,-7.1312,-7.1312,-7.1312,-7.1616,-7.209,-7.2326,-7.3206,-7.4289,0.0,0.0,0.0,0.0,0.0,0.0,0.0,0.0,0.0,0.0,0.0,0.0,0.0,0.0,0.0,0.0,0.0,0.0,0.0,0.0,0.0,0.0,0.0,0.0,0.0,0.0,0.0,0.0,0.0,0.0,0.0,0.0,0.0,0.0,0.0,0.0,0.0,0.0,0.0,0.0,0.0,0.0,0.0,0.0,0.0,0.0,0.0,0.0,0.0,0.0,0.0,0.0,0.0,0.0,0.0,0.0,0.0,0.0,0.0,-5.8448,-5.9677,-5.9865,-6.0165,0.0,0.0,0.0,0.0,0.0,0.0,-5.9061,-6.097,-6.2842,0.0,0.0,0.0,0.0,0.0,0.0,0.0,-7.2899,0.0,0.0,-7.3818,-7.3198,-7.2406,-7.1401,-7.1312,-7.1312,-7.1312,-7.1312,-7.1312,-7.1312,-7.2022,-7.2732,-7.3477,-7.4221,-7.4965,-7.5709,-7.5439,-7.4661,-7.3477,-7.3206,-7.2428,-7.1312,-7.1312,-7.1312,0.0,-7.1312,-7.1312,-7.1312,-7.1312,-7.1751,-7.2428,-7.2699,-7.3578,-7.4661,0.0,0.0,0.0,0.0,0.0,0.0,0.0,0.0,0.0,0.0,0.0,0.0,0.0,0.0,0.0,0.0,0.0,0.0,0.0,0.0,0.0,0.0,0.0,0.0,0.0,0.0,0.0,0.0,-5.3203,-5.3203,-5.3203,0.0,0.0,0.0,0.0,0.0,0.0,0.0,0.0,0.0,0.0,0.0,0.0,0.0,0.0,0.0,0.0,0.0,0.0,0.0,0.0,0.0,0.0,0.0,0.0,0.0,0.0,0.0,0.0,0.0,0.0,0.0,0.0,0.0,0.0,0.0,0.0,0.0,0.0,0.0,0.0,0.0,0.0,0.0,0.0,0.0,0.0,-7.1872,0.0,0.0,-7.3461,-7.3255,-7.3108,-7.2839,-7.2321,-7.1356,-7.1312,-7.1312,-7.1312,-7.1312,-7.1312,-7.1312,-7.1954,-7.2699,-7.3477,-7.4221,-7.4965,-7.5676,-7.4965,-7.4221,-7.3443,-7.2732,-7.1988,-7.1312,-7.1312,-7.1312,-7.1312,-7.1312,-7.1312,-7.1312,-7.1379,-7.1853,-7.2563,-7.3308,-7.4052,-7.4796,0.0,0.0,0.0,0.0,0.0,0.0,0.0,0.0,0.0,0.0,0.0,0.0,0.0,0.0,0.0,0.0,0.0,0.0,0.0,0.0,0.0,0.0,0.0,0.0,0.0,0.0,0.0,-5.3203,-5.3203,-5.3203,-5.3203,-5.3203,0.0,0.0,0.0,0.0,0.0,0.0,0.0,0.0,0.0,0.0,0.0,0.0,0.0,0.0,-5.7997,-5.7904,0.0,0.0,0.0,0.0,0.0,0.0,0.0,0.0,0.0,0.0,0.0,0.0,0.0,0.0,0.0,0.0,0.0,0.0,0.0,0.0,0.0,0.0,0.0,0.0,0.0,0.0,0.0,0.0,-7.2349,0.0,0.0,-7.356,-7.2837,-7.2475,-7.3034,-7.2216,-7.1546,-7.1312,-7.1312,-7.1312,-7.1312,-7.1312,-7.1312,-7.1312,-7.1481,-7.2191,-7.3477,-7.4221,-7.4965,-7.5676,-7.4965,-7.4221,-7.3443,-7.2732,-7.1988,-7.1312,-7.1312,-7.1312,-7.1312,-7.1312,-7.1312,-7.1379,-7.1921,-7.2597,-7.3308,-7.4086,-7.483,-7.5473,0.0,0.0,0.0,0.0,0.0,0.0,0.0,0.0,0.0,0.0,0.0,0.0,0.0,0.0,0.0,0.0,0.0,0.0,0.0,0.0,0.0,0.0,0.0,0.0,0.0,0.0,0.0,0.0,0.0,-5.3959,0.0,0.0,0.0,0.0,0.0,0.0,0.0,0.0,0.0,0.0,0.0,0.0,0.0,0.0,0.0,0.0,-5.7997,-5.7997,0.0,-5.7997,-5.7997,-5.7997,0.0,0.0,0.0,0.0,0.0,0.0,0.0,0.0,0.0,0.0,0.0,0.0,0.0,0.0,0.0,0.0,0.0,0.0,0.0,0.0,0.0,0.0,-6.9835,0.0,0.0,0.0,-7.2936,-7.4111,-7.2851,-7.236,-7.3529,-7.2249,-7.1312,-7.1312,-7.1312,-7.1312,-7.1312,-7.1312,-7.1312,-7.1312,-7.1312,-7.2022,-7.3477,-7.3883,-7.4627,-7.5676,-7.4593,-7.3883,-7.3443,-7.2394,-7.1684,-7.1312,-7.1312,-7.1312,-7.1312,-7.1312,-7.1515,-7.1853,-7.2225,-7.3071,-7.4052,-7.4458,-7.5067,-7.5709,0.0,0.0,0.0,0.0,0.0,0.0,0.0,0.0,0.0,0.0,0.0,0.0,0.0,0.0,0.0,0.0,0.0,0.0,0.0,0.0,0.0,0.0,0.0,0.0,0.0,0.0,0.0,0.0,0.0,0.0,0.0,0.0,0.0,0.0,0.0,0.0,0.0,0.0,0.0,0.0,0.0,0.0,0.0,0.0,0.0,0.0,0.0,0.0,0.0,-5.7997,-5.7997,-5.7997,-5.7997,0.0,0.0,0.0,0.0,0.0,0.0,0.0,0.0,0.0,0.0,0.0,0.0,0.0,0.0,0.0,0.0,0.0,0.0,0.0,0.0,0.0,0.0,0.0,-7.2299,-7.2496,-7.2988,-7.4335,-7.2965,-7.2427,-7.3726,-7.2295,-7.1312,-7.1312,-7.1312,-7.1312,-7.1312,-7.1312,-7.1312,-7.1312,-7.1312,-7.1954,-7.3308,-7.3443,-7.4187,-7.5506,-7.4153,-7.3477,-7.3443,-7.1988,-7.1312,-7.1312,-7.1312,-7.1312,-7.1312,-7.1447,-7.1853,-7.2428,-7.2665,-7.351,-7.4627,-7.4728,-7.5168,-7.5709,0.0,0.0,0.0,0.0,0.0,0.0,0.0,0.0,0.0,0.0,0.0,0.0,0.0,0.0,0.0,0.0,0.0,0.0,0.0,0.0,0.0,0.0,0.0,0.0,0.0,0.0,0.0,0.0,0.0,0.0,-5.5596,-5.5596,-5.517,0.0,0.0,0.0,0.0,0.0,0.0,0.0,0.0,0.0,0.0,0.0,0.0,0.0,0.0,0.0,0.0,-5.7997,-5.7997,-5.7997,-5.7997,0.0,0.0,0.0,0.0,0.0,-5.704,-5.751,0.0,0.0,0.0,0.0,0.0,0.0,0.0,0.0,0.0,0.0,0.0,0.0,-6.8426,0.0,0.0,-7.2204,0.0,-7.2496,-7.2526,-7.2621,-7.2191,-7.1915,-7.2001,-7.1584,-7.1312,-7.1312,-7.1312,-7.1312,-7.1312,-7.1312,-7.1312,-7.1312,-7.1312,-7.1718,-7.2563,-7.3172,-7.3916,-7.4762,-7.3916,-7.3477,-7.3443,-7.1988,-7.1312,-7.1312,-7.1312,-7.1312,-7.1379,-7.1988,-7.2293,-7.2529,-7.3781,-7.4424,-7.4695,-7.5303,-7.5608,-7.5709,0.0,0.0,0.0,0.0,0.0,0.0,0.0,0.0,0.0,0.0,0.0,0.0,0.0,0.0,0.0,0.0,0.0,0.0,0.0,0.0,0.0,0.0,0.0,0.0,0.0,0.0,0.0,0.0,0.0,-5.6455,-5.6895,-5.6455,-5.6051,-5.5647,0.0,0.0,0.0,0.0,0.0,0.0,0.0,0.0,0.0,0.0,0.0,0.0,0.0,0.0,0.0,0.0,-5.7997,-5.7997,-5.7997,0.0,0.0,0.0,0.0,0.0,-5.6773,-5.7139,-5.7768,0.0,0.0,0.0,0.0,0.0,0.0,0.0,0.0,0.0,0.0,0.0,-6.7752,-6.9044,0.0,-7.1763,-7.1763,-7.1763,-7.182,-7.2045,-7.1539,-7.1438,-7.2173,-7.1668,-7.1312,-7.1312,-7.1312,-7.1312,-7.1312,-7.1312,-7.1312,-7.1312,-7.1312,-7.1481,-7.1819,-7.2935,-7.3883,-7.4593,-7.3849,-7.3477,-7.3443,-7.1988,-7.1312,-7.1312,-7.1312,-7.1548,-7.1921,-7.2259,-7.2868,-7.368,-7.4356,-7.4864,-7.5236,-7.5574,-7.5709,-7.5709,0.0,0.0,0.0,0.0,0.0,0.0,0.0,0.0,0.0,0.0,0.0,0.0,0.0,0.0,0.0,0.0,0.0,0.0,0.0,0.0,0.0,0.0,0.0,0.0,0.0,0.0,0.0,-5.7079,-5.7079,-5.7409,-5.7997,-5.7373,-5.6895,0.0,0.0,0.0,0.0,0.0,0.0,0.0,0.0,0.0,0.0,0.0,0.0,0.0,0.0,0.0,0.0,0.0,0.0,0.0,0.0,0.0,0.0,0.0,-5.6483,-5.5886,-5.6652,-5.6903,-5.7377,0.0,0.0,0.0,0.0,0.0,0.0,0.0,0.0,0.0,0.0,-6.6393,0.0,-6.9669,-7.0635,-7.1127,-7.1127,-7.1127,-7.1237,-7.1693,-7.0997,-7.0943,-7.2077,-7.164,-7.1312,-7.1312,-7.1312,-7.1312,-7.1312,-7.1312,-7.1312,-7.1312,-7.1312,-7.1312,-7.1312,-7.2766,-7.368,-7.4086,-7.368,-7.3409,-7.3206,-7.1887,-7.1312,-7.1312,-7.1481,-7.1887,-7.2428,-7.2766,-7.3578,-7.4627,-7.4796,-7.5202,-7.5709,-7.5709,-7.5709,-7.5709,0.0,0.0,0.0,0.0,0.0,0.0,0.0,0.0,0.0,0.0,0.0,0.0,0.0,0.0,0.0,0.0,0.0,0.0,0.0,0.0,0.0,0.0,0.0,0.0,0.0,-5.6675,-5.7116,-5.7923,-5.7923,-5.7923,-5.7997,-5.7923,-5.7116,-5.5706,0.0,0.0,0.0,0.0,0.0,0.0,0.0,0.0,0.0,0.0,0.0,0.0,0.0,0.0,0.0,0.0,0.0,0.0,0.0,0.0,0.0,0.0,-5.6868,-5.5877,-5.6662,-5.6843,-5.7213,-5.8865,0.0,0.0,-6.0768,-6.1235,0.0,-6.3132,0.0,0.0,0.0,-6.8928,-6.9775,-7.0796,-7.1063,-7.1127,-7.1127,-7.1127,-7.1057,-7.0877,-7.0647,-7.0443,-7.0381,-7.095,-7.1312,-7.1312,-7.1312,-7.1312,-7.1312,-7.1312,-7.1312,-7.1312,-7.1312,-7.1312,-7.1312,-7.2766,-7.3172,-7.2563,-7.3206,-7.3138,-7.2462,-7.1684,-7.1312,-7.1345,-7.2022,-7.236,-7.2496,-7.3883,-7.4525,-7.4695,-7.5337,-7.5642,-7.5709,-7.5709,-7.5709,-7.5709,0.0,0.0,0.0,0.0,0.0,0.0,0.0,0.0,0.0,0.0,0.0,0.0,0.0,0.0,0.0,0.0,0.0,0.0,0.0,0.0,0.0,0.0,0.0,-5.6198,-5.7519,-5.7556,-5.7703,-5.7997,-5.7997,-5.7997,-5.7997,-5.7997,0.0,0.0,0.0,0.0,0.0,0.0,0.0,0.0,0.0,0.0,0.0,0.0,0.0,0.0,0.0,0.0,0.0,0.0,-5.7262,0.0,0.0,0.0,0.0,0.0,0.0,-5.5871,-5.6687,-5.6832,-5.7203,-5.8746,0.0,0.0,0.0,-6.2439,-6.2892,-6.352,-6.4601,0.0,0.0,0.0,-6.9095,-7.0057,-7.023,-7.0022,-6.9387,-6.9315,-6.9227,-6.902,-6.9392,-6.9791,-7.0138,-7.0872,-7.1312,-7.1312,-7.1312,-7.1312,-7.1312,-7.1312,-7.1312,-7.1312,-7.1312,-7.1312,-7.1312,-7.2766,-7.3105,-7.2394,-7.3138,-7.3341,-7.3037,-7.2326,-7.1988,-7.2022,-7.2766,-7.3341,-7.3815,-7.439,-7.4864,-7.5303,-7.5574,-7.5709,-7.5709,-7.5709,-7.5709,-7.5642,0.0,0.0,0.0,0.0,0.0,0.0,0.0,0.0,0.0,0.0,0.0,0.0,0.0,0.0,0.0,0.0,0.0,0.0,0.0,0.0,0.0,0.0,0.0,-5.6345,-5.796,-5.7997,-5.7997,-5.7997,-5.7997,-5.7997,-5.7997,0.0,0.0,0.0,0.0,0.0,0.0,0.0,0.0,0.0,0.0,0.0,0.0,0.0,0.0,0.0,0.0,0.0,0.0,0.0,0.0,0.0,0.0,0.0,0.0,0.0,0.0,-5.6282,-5.7342,-5.739,-5.7531,0.0,0.0,0.0,0.0,-6.3403,-6.3639,-6.3858,-6.5359,-6.7101,-6.8611,0.0,-6.8984,-6.9953,-6.9919,-6.9458,-6.876,-6.8381,-6.8157,-6.8015,-6.8413,-6.9011,-6.9755,-7.0534,-7.1075,-7.1312,-7.1312,-7.1312,-7.1312,-7.1312,-7.1312,-7.1312,-7.1312,-7.1312,-7.1312,-7.2529,-7.3003,-7.2732,-7.324,-7.3477,-7.3477,-7.2969,-7.2732,-7.28,-7.351,-7.4119,-7.4627,-7.4627,-7.4762,-7.5033,-7.527,-7.5202,-7.5033,-7.527,-7.5202,-7.4965,0.0,0.0,0.0,0.0,0.0,0.0,0.0,0.0,0.0,0.0,0.0,0.0,0.0,0.0,0.0,0.0,0.0,0.0,0.0,0.0,0.0,0.0,0.0,-5.6345,-5.796,-5.7997,-5.7997,-5.7997,-5.7997,-5.7997,-5.7997,0.0,0.0,0.0,0.0,0.0,0.0,0.0,0.0,0.0,0.0,0.0,0.0,0.0,0.0,0.0,0.0,0.0,0.0,0.0,0.0,0.0,0.0,0.0,0.0,0.0,-5.8085,-5.7143,-5.8785,-5.858,-5.828,0.0,0.0,0.0,0.0,0.0,-6.3801,-6.4477,-6.6513,-6.8496,-6.9494,-6.9708,-7.0023,-7.0898,-7.0298,-6.9672,-6.9672,-6.8798,-6.8189,-6.8189,-6.8022,-6.8233,-6.9011,-6.9755,-7.05,-7.1244,-7.1312,-7.1312,-7.1312,-7.1312,-7.1312,-7.1312,-7.1312,-7.1312,-7.1312,-7.2022,-7.2766,-7.3477,-7.3477,-7.351,-7.351,-7.351,-7.351,-7.3544,-7.4289,-7.4627,-7.4627,-7.4593,-7.4153,-7.3544,-7.4289,-7.4153,-7.3578,-7.4322,-7.4119,-7.3612,0.0,0.0,0.0,0.0,0.0,0.0,0.0,0.0,0.0,0.0,0.0,0.0,0.0,0.0,0.0,0.0,0.0,0.0,0.0,0.0,0.0,0.0,0.0,0.0,0.0,0.0,-5.7997,-5.7997,-5.7997,-5.7997,0.0,0.0,0.0,-5.5596,0.0,0.0,0.0,0.0,0.0,0.0,0.0,0.0,0.0,0.0,0.0,0.0,0.0,0.0,0.0,0.0,0.0,0.0,0.0,0.0,0.0,0.0,-5.8448,-5.7978,-5.9586,-5.9729,0.0,0.0,0.0,0.0,0.0,0.0,0.0,0.0,-6.6724,-6.7501,-6.8458,-6.8648,-6.876,-6.9023,-6.8835,-6.8416,-6.7742,-6.7414,-6.7243,-6.7243,-6.7633,-6.8233,-6.9011,-6.9755,-7.05,-7.1244,-7.1312,-7.1312,-7.1312,-7.1312,-7.1312,-7.1312,-7.1312,-7.1312,-7.1312,-7.2022,-7.2496,-7.2732,-7.3781,-7.4289,-7.4289,-7.4289,-7.4289,-7.4322,-7.5067,-7.51,-7.4559,-7.4052,-7.368,-7.351,-7.3713,-7.368,-7.351,-7.3747,-7.4018,-7.4221,0.0,0.0,0.0,0.0,0.0,0.0,0.0,0.0,0.0,0.0,0.0,0.0,0.0,0.0,0.0,0.0,0.0,0.0,0.0,0.0,0.0,0.0,0.0,0.0,0.0,-5.7997,-5.7997,0.0,0.0,0.0,0.0,0.0,0.0,-5.5097,0.0,-5.4252,0.0,0.0,0.0,0.0,0.0,0.0,0.0,0.0,0.0,0.0,0.0,0.0,0.0,0.0,0.0,0.0,0.0,0.0,0.0,0.0,-5.8583,-5.9006,-5.9327,0.0,0.0,0.0,0.0,0.0,-6.2668,0.0,0.0,0.0,-6.6609,-6.7078,-6.8029,-6.8189,-6.8305,-6.8723,-6.8458,-6.799,-6.7454,-6.7029,-6.6812,-6.6812,-6.7184,-6.776,-6.8538,-6.9316,-7.006,-7.0804,-7.1142,-7.1312,-7.1312,-7.1312,-7.1312,-7.1312,-7.1312,-7.1312,-7.1312,-7.1751,-7.2124,-7.2428,-7.3308,-7.3883,-7.4187,-7.4762,-7.4897,-7.4627,-7.4762,-7.4424,-7.368,-7.324,-7.2868,-7.2665,-7.2935,-7.2868,-7.2699,-7.3274,-7.3578,-7.3747,0.0,0.0,0.0,0.0,0.0,0.0,0.0,0.0,0.0,0.0,0.0,0.0,0.0,0.0,0.0,0.0,0.0,0.0,0.0,0.0,0.0,0.0,0.0,0.0,0.0,0.0,0.0,0.0,0.0,0.0,0.0,0.0,-5.5868,-5.4436,0.0,-5.4693,0.0,0.0,0.0,0.0,0.0,0.0,0.0,0.0,0.0,0.0,0.0,0.0,0.0,0.0,0.0,0.0,0.0,0.0,0.0,-5.6949,-5.853,-5.9937,0.0,0.0,0.0,0.0,0.0,0.0,-6.4444,-6.5324,-6.5797,-6.5797,0.0,-6.7037,-6.7911,-6.8068,-6.8343,-6.9313,-6.8648,-6.8068,-6.8068,-6.7332,-6.6812,-6.6812,-6.6812,-6.7117,-6.7827,-6.8639,-6.9417,-7.0128,-7.0872,-7.1312,-7.1312,-7.1312,-7.1312,-7.1312,-7.1312,-7.1312,-7.1312,-7.1312,-7.165,-7.2293,-7.236,-7.2732,-7.3443,-7.4864,-7.5134,-7.4458,-7.3713,-7.3003,-7.2394,-7.2326,-7.1921,-7.1379,-7.2056,-7.1921,-7.1582,-7.2902,-7.3037,-7.28,0.0,0.0,0.0,0.0,0.0,0.0,0.0,0.0,0.0,0.0,0.0,0.0,0.0,0.0,0.0,0.0,0.0,0.0,0.0,0.0,0.0,0.0,0.0,0.0,0.0,0.0,0.0,0.0,0.0,0.0,0.0,0.0,0.0,-5.4399,0.0,-5.4473,0.0,0.0,0.0,0.0,0.0,0.0,0.0,0.0,0.0,0.0,0.0,0.0,0.0,0.0,0.0,0.0,-5.4399,-5.506,-5.6102,-5.7394,-5.852,-5.9571,0.0,0.0,0.0,0.0,0.0,0.0,0.0,-6.6474,-6.6576,-6.6576,-6.6711,-6.6854,-6.7037,-6.7078,-6.7161,-6.7407,-6.7243,-6.7078,-6.7078,-6.6904,-6.6812,-6.6812,-6.6812,-6.7117,-6.7827,-6.8639,-6.9417,-7.0128,-7.0872,-7.1312,-7.1312,-7.1312,-7.1312,-7.1312,-7.1312,-7.1312,-7.1312,-7.1312,-7.1379,-7.1548,-7.2124,-7.2496,-7.2665,-7.3544,-7.3883,-7.368,-7.2969,-7.2563,-7.236,-7.1785,-7.1447,-7.1345,-7.1481,-7.1785,-7.2191,-7.2529,-7.3274,-7.4187,0.0,0.0,0.0,0.0,0.0,0.0,0.0,0.0,0.0,0.0,0.0,0.0,0.0,0.0,0.0,0.0,0.0,0.0,0.0,0.0,0.0,0.0,0.0,0.0,0.0,0.0,0.0,0.0,0.0,0.0,0.0,0.0,0.0,-5.3849,0.0,-5.4766,0.0,0.0,0.0,0.0,0.0,0.0,0.0,0.0,0.0,0.0,0.0,0.0,0.0,0.0,0.0,0.0,0.0,0.0,-5.6777,-5.6877,-5.8195,-5.9704,0.0,0.0,0.0,0.0,0.0,0.0,0.0,-6.6812,-6.6812,-6.6812,-6.6812,-6.6812,-6.6812,-6.6812,-6.6812,-6.6812,-6.6812,-6.6812,-6.6812,-6.6812,-6.6812,-6.6812,-6.6812,-6.6948,-6.7354,-6.8064,-6.8842,-6.962,-7.0364,-7.0939,-7.1312,-7.1312,-7.1312,-7.1312,-7.1312,-7.1312,-7.1312,-7.1312,-7.1312,-7.1312,-7.1684,-7.1887,-7.1921,-7.2631,-7.2969,-7.2935,-7.2191,-7.1887,-7.1853,-7.1481,-7.1312,-7.1345,-7.1684,-7.2056,-7.2496,-7.3206,-7.395,-7.4661,0.0,0.0,0.0,0.0,0.0,0.0,0.0,0.0,0.0,0.0,0.0,0.0,0.0,0.0,0.0,0.0,0.0,0.0,0.0,0.0,0.0,0.0,0.0,0.0,0.0,0.0,0.0,0.0,0.0,0.0,0.0,0.0,0.0,-5.3482,0.0,0.0,0.0,0.0,0.0,0.0,0.0,0.0,0.0,0.0,0.0,-5.6014,0.0,0.0,-5.6932,-5.6235,0.0,0.0,0.0,0.0,-5.7537,-5.6261,-5.7804,-5.9629,0.0,0.0,0.0,0.0,0.0,0.0,0.0,-6.6711,-6.6812,-6.6812,-6.6812,-6.6812,-6.6812,-6.6812,-6.6812,-6.6812,-6.6812,-6.6812,-6.6812,-6.6812,-6.6812,-6.6812,-6.6812,-6.6812,-6.6812,-6.7489,-6.8233,-6.9045,-6.9755,-7.05,-7.1278,-7.1312,-7.1312,-7.1312,-7.1312,-7.1312,-7.1312,-7.1312,-7.1312,-7.1312,-7.1312,-7.1312,-7.1345,-7.1921,-7.2225,-7.2191,-7.1582,-7.1312,-7.1312,-7.1312,-7.1312,-7.1379,-7.2124,-7.2462,-7.2732,-7.4119,-7.4695,-7.4897,0.0,0.0,0.0,0.0,0.0,0.0,0.0,0.0,0.0,0.0,0.0,0.0,0.0,0.0,0.0,0.0,0.0,0.0,0.0,0.0,0.0,0.0,0.0,0.0,0.0,0.0,0.0,0.0,0.0,0.0,0.0,0.0,0.0,0.0,0.0,0.0,0.0,0.0,0.0,0.0,0.0,0.0,0.0,0.0,0.0,-5.7666,-5.7666,-5.774,-5.7813,-5.7703,-5.7299,0.0,0.0,0.0,-5.6909,-5.6708,-5.7424,0.0,0.0,0.0,0.0,0.0,0.0,0.0,0.0,0.0,-6.6812,0.0,-6.6812,-6.6812,-6.6812,-6.6812,-6.6812,-6.6812,-6.6812,-6.6812,-6.6812,-6.6812,-6.6812,-6.6812,-6.6812,-6.6812,-6.6812,-6.7489,-6.8233,-6.9045,-6.9755,-7.05,-7.1278,-7.1312,-7.1312,-7.1312,-7.1312,-7.1312,-7.1312,-7.1312,-7.1312,-7.1312,-7.1312,-7.1312,-7.1312,-7.1413,-7.1447,-7.1447,-7.1345,-7.1312,-7.1312,-7.1312,-7.1312,-7.1379,-7.2124,-7.28,-7.3443,-7.4289,-7.4999,-7.5574,0.0,0.0,0.0,0.0,0.0,0.0,0.0,0.0,0.0,0.0,0.0,0.0,0.0,0.0,0.0,0.0,0.0,0.0,0.0,0.0,0.0,0.0,0.0,0.0,0.0,0.0,0.0,0.0,0.0,0.0,0.0,-5.6785,-5.6271,0.0,0.0,0.0,0.0,0.0,0.0,0.0,0.0,0.0,0.0,0.0,0.0,-5.7997,-5.7997,-5.7997,-5.7997,-5.7997,-5.7776,-5.7483,-5.7483,0.0,0.0,0.0,0.0,0.0,0.0,0.0,0.0,0.0,0.0,0.0,0.0,0.0,-6.6305,-6.6711,-6.6812,-6.6812,-6.6812,-6.6812,-6.6812,-6.6812,-6.6812,-6.6812,-6.6812,-6.6812,-6.6812,-6.6812,-6.6812,-6.6812,-6.6812,-6.7117,-6.7793,-6.9011,-6.9383,-7.0094,-7.1244,-7.1312,-7.1312,-7.1312,-7.1312,-7.1312,-7.1312,-7.1312,-7.1312,-7.1312,-7.1312,-7.1312,-7.1312,-7.1312,-7.1312,-7.1312,-7.1312,-7.1312,-7.1312,-7.1312,-7.1548,-7.1988,-7.2732,-7.3477,-7.4221,-7.4931,-7.5439,-7.5709,0.0,0.0,0.0,0.0,0.0,0.0,0.0,0.0,0.0,0.0,0.0,0.0,0.0,0.0,0.0,0.0,0.0,0.0,0.0,0.0,0.0,0.0,0.0,0.0,0.0,0.0,0.0,0.0,0.0,0.0,-5.7703,-5.8327,-5.785,0.0,-5.8621,0.0,0.0,0.0,0.0,0.0,0.0,0.0,0.0,-5.8694,-5.851,-5.7997,-5.7997,-5.7997,-5.7997,-5.7997,-5.7997,-5.7997,-5.7997,-5.7997,0.0,0.0,0.0,0.0,0.0,0.0,0.0,0.0,0.0,0.0,0.0,0.0,-6.5865,-6.6406,-6.6677,-6.6812,-6.6812,-6.6812,-6.6812,-6.6812,-6.6812,-6.6812,-6.6812,-6.6812,-6.6812,-6.6812,-6.6812,-6.6812,-6.6812,-6.6812,-6.7354,-6.8707,-6.8977,-6.9654,-7.0973,-7.121,-7.1312,-7.1312,-7.1312,-7.1312,-7.1312,-7.1312,-7.1312,-7.1312,-7.1312,-7.1312,-7.1312,-7.1312,-7.1312,-7.1312,-7.1312,-7.1312,-7.1312,-7.1515,-7.1921,-7.2496,-7.3409,-7.4119,-7.4695,-7.5439,-7.5709,-7.5709,0.0,0.0,0.0,0.0,0.0,0.0,0.0,0.0,0.0,0.0,0.0,0.0,-5.3203,-5.3203,-5.3203,-5.3203,0.0,0.0,0.0,0.0,0.0,0.0,0.0,0.0,0.0,0.0,0.0,0.0,0.0,0.0,-5.6932,-5.9208,-5.9832,-5.9038,-5.9942,-5.9465,-5.8033,0.0,0.0,0.0,0.0,0.0,0.0,-5.8033,-5.8033,-5.7997,-5.7997,-5.7997,-5.7997,-5.7997,-5.7997,-5.7997,-5.7997,-5.7997,-5.7997,0.0,0.0,0.0,0.0,0.0,0.0,0.0,0.0,0.0,0.0,0.0,-6.5696,-6.573,-6.6305,-6.6812,-6.6812,-6.6812,-6.6812,-6.6812,-6.6812,-6.6812,-6.6812,-6.6812,-6.6812,-6.6812,-6.6812,-6.6812,-6.6812,-6.6812,-6.7117,-6.7895,-6.8673,-6.9451,-7.0195,-7.0939,-7.1312,-7.1312,-7.1312,-7.1312,-7.1312,-7.1312,-7.1312,-7.1312,-7.1312,-7.1312,-7.1312,-7.1312,-7.1312,-7.1312,-7.1312,-7.1312,-7.1379,-7.2056,-7.236,-7.2529,-7.3984,-7.4593,-7.4695,-7.5439,-7.5709,-7.5709,0.0,0.0,0.0,0.0,0.0,0.0,0.0,0.0,0.0,0.0,0.0,0.0,0.0,-5.3203,-5.3203,-5.3203,-5.3203,0.0,0.0,0.0,0.0,0.0,0.0,0.0,0.0,0.0,0.0,0.0,0.0,-5.785,-5.834,-5.9221,-5.9758,-6.0052,-6.1374,-6.1043,-5.9612,-6.0419,0.0,0.0,0.0,0.0,0.0,-5.9538,-5.9208,-5.8767,-5.8767,-5.8767,-5.8877,-5.9391,-5.9208,-5.8767,-5.8767,-5.8437,-5.7997,0.0,0.0,0.0,0.0,0.0,0.0,0.0,0.0,0.0,-6.1855,-6.2877,-6.3835,-6.4783,-6.5561,-6.6237,-6.6711,-6.6812,-6.6812,-6.6812,-6.6812,-6.6812,-6.6812,-6.6812,-6.6812,-6.6812,-6.6812,-6.6812,-6.6812,-6.6812,-6.7117,-6.7827,-6.8639,-6.9417,-7.0161,-7.0906,-7.1312,-7.1312,-7.1312,-7.1312,-7.1312,-7.1312,-7.1312,-7.1312,-7.1312,-7.1312,-7.1312,-7.1312,-7.1312,-7.1345,-7.1819,-7.2022,-7.2022,-7.2293,-7.2969,-7.3883,-7.439,-7.4897,-7.5337,-7.5608,-7.5709,-7.5709,0.0,0.0,0.0,0.0,0.0,0.0,0.0,0.0,0.0,-5.3775,0.0,0.0,0.0,0.0,-5.3203,-5.3203,-5.3203,-5.3203,-5.3203,0.0,0.0,0.0,0.0,0.0,0.0,0.0,0.0,0.0,0.0,0.0,0.0,-5.9074,-5.9478,-6.0052,-6.1092,-6.0982,0.0,0.0,0.0,-6.0015,0.0,-6.0382,-6.0382,-6.0126,-6.0015,-5.9979,-5.9698,-5.9795,-6.0089,-6.0639,-6.0272,-5.9588,-5.9588,-5.8877,-5.7997,-5.7997,0.0,0.0,-5.7401,0.0,0.0,0.0,0.0,0.0,-6.0705,-6.1686,-6.2702,-6.3679,-6.4647,-6.5561,-6.6305,-6.644,-6.6508,-6.6779,-6.6812,-6.6812,-6.6812,-6.6812,-6.6812,-6.6812,-6.6812,-6.6812,-6.6812,-6.6812,-6.7015,-6.7489,-6.8267,-6.9011,-6.9789,-7.0534,-7.1041,-7.1312,-7.1312,-7.1312,-7.1312,-7.1312,-7.1312,-7.1312,-7.1312,-7.1312,-7.1312,-7.1312,-7.1447,-7.1718,-7.2191,-7.2394,-7.2428,-7.2935,-7.3713,-7.4627,-7.4864,-7.527,-7.5709,-7.5709,-7.5709,-7.5709,0.0,0.0,0.0,0.0,0.0,0.0,0.0,0.0,0.0,-5.4509,0.0,0.0,0.0,0.0,0.0,-5.3203,-5.3203,-5.3203,-5.3203,-5.3203,0.0,0.0,0.0,0.0,0.0,0.0,0.0,0.0,0.0,0.0,0.0,0.0,-5.9111,0.0,-5.9111,-5.9111,-5.9111,0.0,-5.9221,-5.9148,0.0,-5.9098,-6.0346,-5.9588,-6.0272,-6.152,-6.075,-6.097,-6.163,-6.1667,-6.1117,-6.0419,-6.0382,-5.9281,-5.7997,-5.7997,-5.7997,0.0,0.0,0.0,0.0,0.0,0.0,0.0,-5.9834,0.0,-6.232,-6.2377,-6.3537,-6.479,-6.5527,-6.5662,-6.5899,-6.6643,-6.6812,-6.6812,-6.6812,-6.6812,-6.6812,-6.6812,-6.6812,-6.6812,-6.6812,-6.6812,-6.6812,-6.6812,-6.7489,-6.8233,-6.9011,-6.9789,-7.0534,-7.1244,-7.1312,-7.1312,-7.1312,-7.1312,-7.1312,-7.1312,-7.1312,-7.1312,-7.1312,-7.1345,-7.1718,-7.2394,-7.2462,-7.2462,-7.2563,-7.4018,-7.4627,-7.4728,-7.5439,-7.5709,-7.5709,-7.5709,-7.5709,-7.5709,0.0,0.0,0.0,0.0,0.0,0.0,0.0,0.0,-5.5978,0.0,0.0,0.0,-5.324,-5.3203,-5.3203,-5.3203,-5.3203,-5.3203,-5.3203,-5.3739,-5.4069,-5.4069,0.0,0.0,0.0,0.0,0.0,0.0,0.0,0.0,0.0,0.0,0.0,0.0,-5.746,-5.746,-5.7593,-5.9355,0.0,-5.9368,-6.1557,-6.1961,-6.13,-6.1667,-6.2108,-6.2438,-6.2218,-6.2291,-6.2548,-6.3209,-6.2438,-6.1043,-5.9905,-5.8841,-5.7997,-5.7997,-5.7997,-5.7997,-5.7997,0.0,0.0,0.0,0.0,0.0,-5.9266,0.0,-6.0511,-6.2117,-6.2758,-6.3391,-6.4667,-6.4884,-6.5155,-6.5865,-6.644,-6.6812,-6.6812,-6.6812,-6.6812,-6.6812,-6.6812,-6.6812,-6.6812,-6.6812,-6.6812,-6.6812,-6.7489,-6.7996,-6.8233,-6.9485,-7.0297,-7.05,-7.1041,-7.1312,-7.1312,-7.1312,-7.1312,-7.1312,-7.1312,-7.1312,-7.1345,-7.1853,-7.2225,-7.2462,-7.3544,-7.3984,-7.4018,-7.4458,-7.4931,-7.5439,-7.5608,-7.5709,-7.5709,-7.5709,-7.5709,-7.5709,0.0,0.0,0.0,0.0,0.0,0.0,0.0,0.0,-5.6345,0.0,0.0,0.0,-5.3277,-5.3203,-5.3203,-5.3203,-5.3203,-5.3314,-5.3702,-5.4142,-5.4546,-5.4876,0.0,0.0,0.0,0.0,0.0,0.0,0.0,0.0,0.0,0.0,0.0,0.0,0.0,0.0,0.0,0.0,0.0,0.0,-6.1043,-6.1777,-6.2071,-6.1887,-6.2658,-6.3796,-6.3466,-6.398,-6.4824,-6.464,-6.3503,-6.1777,-5.9808,-5.8854,-5.8437,-5.8107,-5.7997,-5.7997,-5.7997,-5.7997,-5.7997,-5.7997,0.0,0.0,-5.8996,-5.9131,-5.9671,-6.1641,-6.1492,-6.1531,-6.3379,-6.3159,-6.3159,-6.4546,-6.5155,-6.5764,-6.6677,-6.6812,-6.6812,-6.6812,-6.6812,-6.6812,-6.6812,-6.6812,-6.6812,-6.6812,-6.7218,-6.759,-6.7895,-6.9079,-6.9857,-7.0161,-7.0635,-7.1007,-7.1312,-7.1312,-7.1312,-7.1312,-7.1312,-7.1481,-7.1785,-7.2191,-7.2732,-7.3375,-7.4255,-7.4796,-7.5067,-7.5067,-7.5303,-7.5709,-7.5709,-7.5709,-7.5709,-7.5709,-7.5709,-7.5709,0.0,0.0,0.0,0.0,0.0,0.0,0.0,0.0,0.0,0.0,-5.5023,-5.4106,-5.3277,-5.3277,-5.3298,-5.3203,-5.3371,-5.3739,-5.4363,-5.4583,-5.4987,-5.5684,0.0,0.0,0.0,0.0,0.0,0.0,0.0,0.0,0.0,0.0,0.0,0.0,0.0,0.0,0.0,0.0,0.0,-6.0309,-5.9134,-6.0346,-6.2633,-6.141,-6.2768,-6.5228,-6.4494,-6.5668,-6.7283,-6.5595,-6.4053,-6.2413,-6.0175,-5.9478,-5.9318,-5.851,-5.8217,-5.8107,-5.8033,-5.7997,-5.7997,-5.7997,-5.7997,0.0,-5.9025,-5.9079,-5.9421,-6.0974,-6.0079,-5.9675,-6.1775,-6.1061,-6.0823,-6.2892,-6.3323,-6.4085,-6.6136,-6.6508,-6.6576,-6.6576,-6.6643,-6.6711,-6.6812,-6.6812,-6.6812,-6.6812,-6.6812,-6.7117,-6.7726,-6.8538,-6.9282,-6.9891,-7.0026,-7.0398,-7.1075,-7.1075,-7.1109,-7.1176,-7.1176,-7.1616,-7.2394,-7.2496,-7.3274,-7.4627,-7.4695,-7.51,-7.5709,-7.5709,-7.5709,-7.5709,-7.5709,-7.5709,-7.5709,-7.5709,-7.5709,-7.5709,0.0,0.0,0.0,0.0,0.0,0.0,0.0,0.0,0.0,-5.7629,-5.5684,-5.4106,-5.3277,-5.3775,-5.3922,-5.324,-5.4363,-5.4913,-5.4436,-5.5611,-5.6418,-5.6565,0.0,0.0,0.0,0.0,0.0,0.0,0.0,0.0,0.0,0.0,0.0,0.0,0.0,0.0,0.0,0.0,0.0,-6.0566,-6.2218,-6.2879,-6.289,-6.3943,-6.4751,-6.5301,-6.5118,-6.5778,-6.6366,-6.409,-6.3074,-6.2622,-6.1484,-6.1117,-6.097,-6.0162,-5.9465,-5.8841,-5.818,-5.7997,-5.7997,-5.7997,-5.7997,0.0,-5.9042,-5.8677,-5.8646,-6.0203,-5.9773,-5.9414,-6.0428,-6.0369,-6.0508,-6.156,-6.223,-6.2949,-6.3983,-6.4647,-6.5019,-6.5019,-6.5561,-6.6136,-6.6745,-6.6812,-6.6812,-6.6812,-6.6812,-6.688,-6.7015,-6.7726,-6.8199,-6.8335,-6.8977,-6.9383,-6.9519,-6.9519,-6.9823,-7.0398,-7.0398,-7.1109,-7.2428,-7.3003,-7.3781,-7.4661,-7.5236,-7.5574,-7.5709,-7.5709,-7.5709,-7.5709,-7.5709,-7.5709,-7.5709,-7.5709,-7.5709,-7.5709,0.0,0.0,0.0,0.0,0.0,0.0,0.0,0.0,0.0,-5.8694,-5.6859,-5.5464,-5.506,-5.4987,-5.484,-5.4436,-5.5133,-5.5574,-5.5611,-5.6345,-5.6969,0.0,0.0,0.0,0.0,0.0,0.0,0.0,0.0,0.0,0.0,0.0,0.0,0.0,0.0,0.0,0.0,0.0,-5.9024,-6.1667,-6.2511,-6.2842,-6.2927,-6.4237,-6.4971,-6.5375,-6.5742,-6.6145,-6.6256,-6.4604,-6.3796,-6.3246,-6.1998,-6.1594,-6.1447,-6.0639,-5.9832,-5.9001,-5.8217,-5.7997,-5.7997,-5.7997,-5.7997,0.0,0.0,-5.858,-5.8428,-5.9989,-5.9056,-5.8331,-5.9456,-5.9006,-5.8865,-5.9999,-6.0485,-6.0737,-6.0718,-6.296,-6.4749,-6.5087,-6.5155,-6.529,-6.5662,-6.6034,-6.6406,-6.6779,-6.6812,-6.6812,-6.6812,-6.7151,-6.7523,-6.7895,-6.8301,-6.8707,-6.9113,-6.9113,-6.9451,-7.0195,-7.0195,-7.0973,-7.2428,-7.2766,-7.3341,-7.4052,-7.4424,-7.4796,-7.5168,-7.5168,-7.5371,-7.5709,-7.5709,-7.5709,-7.5709,-7.5709,-7.5709,-7.5709,0.0,0.0,0.0,0.0,0.0,0.0,0.0,0.0,0.0,-5.9331,-5.7923,-5.7042,-5.7042,-5.6382,-5.5969,-5.5969,-5.6116,-5.6411,-5.6927,-5.7,-5.7336,0.0,0.0,-5.7997,0.0,0.0,0.0,0.0,0.0,0.0,0.0,0.0,0.0,0.0,0.0,0.0,0.0,0.0,0.0,-6.2743,-6.2438,-6.2879,-6.3796,-6.4347,-6.5044,-6.5852,-6.6512,-6.6623,-6.6402,-6.5742,-6.5118,-6.431,-6.2768,-6.2291,-6.2071,-6.097,-6.0052,-5.9245,-5.8253,-5.7997,-5.7997,-5.7997,-5.7997,-5.818,0.0,0.0,0.0,-5.9582,-5.8393,-5.7504,-5.8695,-5.7868,-5.7441,-5.8666,-5.9034,-5.8916,-5.8395,-6.1345,-6.3764,-6.4349,-6.441,-6.4377,-6.4377,-6.529,-6.6102,-6.6542,-6.6846,-6.6948,-6.6812,-6.6812,-6.7083,-6.7658,-6.7692,-6.7996,-6.8673,-6.8808,-6.9248,-6.9992,-7.0128,-7.0973,-7.2394,-7.2394,-7.28,-7.3477,-7.3477,-7.3849,-7.439,-7.439,-7.4728,-7.5303,-7.5574,-7.5709,-7.5709,-7.5709,-7.5709,-7.5709,-6.0285,-6.0182,0.0,0.0,0.0,0.0,0.0,0.0,0.0,-5.9404,-5.8437,-5.785,-5.785,-5.7503,-5.7292,-5.7292,-5.7962,-5.8074,-5.7478,-5.77,-5.7886,-5.7997,0.0,0.0,-5.7997,0.0,0.0,0.0,0.0,0.0,0.0,0.0,0.0,0.0,-5.5097,0.0,0.0,0.0,-6.1814,-6.289,-6.4347,-6.5778,-6.7063,-6.6439,-6.6733,-6.743,-6.7504,-6.71,-6.6476,-6.6402,-6.6292,-6.6072,-6.5154,-6.4897,-6.442,-6.2144,-6.0896,-5.9942,-5.84,-5.7997,-5.7997,-5.7997,-5.7997,-5.8033,-5.8107,0.0,-5.8064,-5.8247,0.0,-5.7933,-5.8092,0.0,0.0,-5.8092,-5.8668,-5.9307,-5.986,-5.9797,-5.9732,-5.9749,-6.2076,-6.3632,-6.3632,-6.5493,-6.644,-6.5865,-6.7049,-6.7489,-6.6846,-6.6812,-6.6846,-6.6948,-6.6948,-6.6981,-6.7083,-6.7726,-6.8436,-6.9214,-6.9891,-7.0973,-7.2394,-7.2394,-7.28,-7.3477,-7.3477,-7.3544,-7.3612,-7.3612,-7.3646,-7.3849,-7.5202,-7.5709,-7.5709,-7.5709,-7.5709,-7.5709,-5.9929,-6.0097,0.0,0.0,0.0,0.0,0.0,0.0,0.0,-6.2384,-6.1698,-6.1224,-6.0981,-5.9489,-5.8895,-5.9985,-5.9392,-5.9174,-5.9607,-5.9036,-5.8914,-5.9391,-5.851,-5.8217,0.0,0.0,0.0,0.0,-5.6565,0.0,0.0,0.0,0.0,0.0,-5.6418,0.0,-5.9061,0.0,-6.3503,-6.4347,-6.5521,-6.6953,-6.8274,-6.699,-6.699,-6.7687,-6.7687,-6.7467,-6.71,-6.6659,-6.6806,-6.6953,-6.5705,-6.5301,-6.4824,-6.2328,-6.1043,-6.0162,-5.9024,-5.9061,-5.9281,-5.8804,-5.9061,-5.9134,-5.8217,-5.7629,-5.7299,-5.7299,0.0,0.0,0.0,0.0,0.0,0.0,-5.8235,-5.8421,-5.8312,-5.8751,-5.9397,-6.0218,-6.0303,-6.0926,-6.2685,-6.4106,-6.5121,-6.5662,-6.6271,-6.6474,-6.617,-6.6576,-6.6812,-6.6812,-6.6812,-6.7015,-6.7455,-6.776,-6.8504,-6.9722,-7.0026,-7.0737,-7.1751,-7.1751,-7.1921,-7.2225,-7.2225,-7.2462,-7.2868,-7.2868,-7.3105,-7.3544,-7.4153,-7.4661,-7.51,-7.554,-7.5709,-7.5709,-5.9916,0.0,0.0,0.0,0.0,0.0,0.0,0.0,0.0,-6.4502,-6.4079,-6.3773,-6.3483,-6.129,-6.0499,-6.2266,-6.0825,-6.0273,-6.1324,-6.0151,-5.9725,-6.0382,-5.9061,-5.8621,-5.9184,-5.8621,0.0,0.0,0.0,0.0,0.0,0.0,0.0,0.0,0.0,-5.8877,-6.0566,0.0,-6.4677,-6.5705,-6.6256,-6.721,-6.8164,-6.743,-6.7393,-6.7687,-6.7687,-6.7687,-6.7614,-6.7283,-6.7393,-6.7504,-6.6329,-6.5668,-6.4861,-6.2585,-6.152,-6.0896,-6.0089,-6.0126,-6.0309,-5.9942,-5.9795,-5.9501,-5.8547,-5.7703,-5.7152,-5.7152,-5.7152,0.0,0.0,0.0,-5.7997,-5.7997,0.0,-5.7793,-5.73,-5.7953,-5.8887,-5.996,-5.8803,-5.8923,-6.1544,-6.2673,-6.3565,-6.441,-6.5222,-6.5595,-6.5392,-6.6102,-6.6609,-6.6812,-6.6812,-6.7151,-6.7895,-6.8132,-6.8876,-7.0195,-7.0398,-7.077,-7.1312,-7.1312,-7.1312,-7.1312,-7.1312,-7.1616,-7.209,-7.209,-7.2428,-7.2902,-7.3105,-7.351,-7.4086,-7.483,-7.51,-7.51,-6.0757,-6.0416,0.0,0.0,0.0,0.0,0.0,0.0,-6.5294,-6.4502,-6.4407,-6.4369,-6.4351,-6.2563,-6.198,-6.3581,-6.2247,-6.1489,-6.1842,-6.0675,-6.012,-6.0406,-5.9588,-5.9148,-5.9184,-5.9148,0.0,0.0,0.0,0.0,0.0,0.0,0.0,0.0,0.0,-5.8877,-6.0566,-6.3062,-6.5007,-6.6476,-6.6476,-6.6512,-6.6733,-6.8238,-6.8348,-6.7687,-6.7687,-6.7687,-6.7797,-6.8568,-6.8311,-6.7687,-6.7614,-6.6549,-6.4971,-6.3282,-6.2743,-6.2548,-6.1741,-6.097,-6.0566,-6.1337,-5.9795,-5.8253,-5.9024,-5.8547,-5.796,-5.796,-5.796,-5.796,-5.796,-5.796,-5.7997,0.0,-5.801,0.0,0.0,-5.7399,-5.6994,-5.7056,-5.7552,-5.8527,-6.0117,-6.1593,-6.2144,-6.1501,-6.4072,-6.5392,-6.4681,-6.5324,-6.6068,-6.6779,-6.6812,-6.7151,-6.7895,-6.8673,-6.9451,-7.0195,-7.0939,-7.1312,-7.1312,-7.1312,-7.1312,-7.1312,-7.1312,-7.1312,-7.1345,-7.1345,-7.1379,-7.1447,-7.2157,-7.2462,-7.2563,-7.3274,-7.3544,-7.3544,0.0,0.0,0.0,0.0,0.0,0.0,-6.3843,-6.5527,-6.6498,-6.623,-6.638,-6.6657,-6.7003,-6.484,-6.4101,-6.5838,-6.3838,-6.2952,-6.3959,-6.2483,-6.1853,-6.2487,-6.089,-6.0015,-6.0015,-6.0015,-5.9208,0.0,0.0,0.0,0.0,0.0,0.0,0.0,0.0,-6.097,0.0,0.0,0.0,-6.8091,-6.8091,-6.8091,-6.8017,-6.7504,-6.7467,-6.7687,-6.7687,-6.7687,-6.7724,-6.8017,-6.8274,-6.8311,-6.7247,-6.688,-6.6439,-6.431,-6.3246,-6.2879,-6.3172,-6.3062,-6.2915,-6.3172,-6.2622,-6.1814,-6.097,-5.9355,-5.7997,-5.7997,-5.7593,-5.7373,-5.7886,-5.7997,-5.818,0.0,0.0,-5.7813,0.0,-5.7005,-5.7024,-5.7531,-5.7847,-5.8136,-5.8628,-6.0023,-6.0757,-6.052,-6.2381,-6.3599,-6.3869,-6.458,-6.5527,-6.6779,-6.6812,-6.7151,-6.7895,-6.8707,-6.9451,-7.0195,-7.0973,-7.1312,-7.1312,-7.1312,-7.1312,-7.1312,-7.1312,-7.1312,-7.1312,-7.1312,-7.1312,-7.1345,-7.1582,-7.1684,-7.1819,-7.3037,-7.3477,-7.3409,-6.0781,0.0,0.0,-6.0781,-6.1743,-6.3012,-6.4397,-6.6282,-6.7436,-6.7128,-6.7808,-6.8248,-6.7987,-6.6415,-6.5826,-6.6987,-6.5253,-6.4313,-6.4795,-6.3651,-6.3035,-6.328,-6.1874,-6.1171,-6.1263,-6.0713,-5.9905,-5.8841,0.0,-5.6088,0.0,0.0,0.0,0.0,0.0,-6.108,-6.2511,-6.4714,-6.6586,0.0,-6.8054,-6.8054,-6.7944,-6.688,-6.7357,-6.8458,-6.7907,-6.7687,-6.7687,-6.7687,-6.8017,-6.8274,-6.7247,-6.71,-6.6953,-6.5411,-6.4567,-6.431,-6.5154,-6.4934,-6.464,-6.5228,-6.4494,-6.3429,-6.2658,-6.1043,-5.9722,-5.9722,-5.9061,-5.8657,-5.9171,-5.8804,-5.8621,0.0,0.0,0.0,0.0,-5.7226,-5.7409,-5.7923,-5.7541,-5.7374,-5.7869,-5.8527,-5.9133,-5.9674,-6.0858,-6.2144,-6.3463,-6.3971,-6.5019,-6.6779,-6.6812,-6.7151,-6.7895,-6.8402,-6.918,-7.0195,-7.0669,-7.1075,-7.1312,-7.1312,-7.1312,-7.1312,-7.1312,-7.1312,-7.1312,-7.1312,-7.1312,-7.1312,-7.1312,-7.1312,-7.1447,-7.236,-7.2699,-7.2665,0.0,-6.0819,-6.0858,-6.0935,-6.2281,-6.3628,-6.4474,-6.6744,-6.8052,-6.7282,-6.859,-6.9013,-6.7398,-6.7205,-6.7205,-6.7205,-6.6474,-6.5614,-6.4669,-6.4258,-6.3743,-6.3026,-6.2717,-6.2666,-6.2855,-6.1349,-6.0517,-6.0456,-5.7299,0.0,0.0,0.0,0.0,0.0,-5.7262,0.0,-6.1704,-6.3319,-6.4971,-6.6512,-6.6623,-6.6659,-6.6659,-6.6586,-6.8017,-6.9889,-6.8274,-6.7687,-6.7687,-6.7687,-6.7687,-6.7687,-6.7687,-6.7173,-6.6549,-6.6549,-6.6512,-6.6659,-6.7467,-6.6586,-6.5815,-6.7357,-6.5375,-6.3282,-6.409,-6.3539,-6.2853,-6.2853,-6.2218,-6.1667,-6.1704,-6.0382,-5.9258,0.0,0.0,0.0,-5.7997,-5.796,-5.796,-5.7997,-5.6668,-5.6332,-5.7759,-5.7255,-5.741,-5.8795,-5.9641,-6.1061,-6.3294,-6.3463,-6.4478,-6.6643,-6.6745,-6.7083,-6.7793,-6.7827,-6.8605,-7.0094,-7.0161,-7.0601,-7.1312,-7.1312,-7.1312,-7.1312,-7.1312,-7.1312,-7.1312,-7.1312,-7.1312,-7.1312,-7.1312,-7.1312,-7.1312,-7.1312,-7.1312,-7.1312,-6.0935,-6.132,-6.1935,-6.2551,-6.3551,-6.4359,-6.4589,-6.6205,-6.759,-6.8013,-6.8475,-6.8821,-6.9013,-6.9013,-6.9013,-6.9013,-6.8244,-6.7664,-6.7405,-6.6904,-6.6303,-6.5518,-6.5048,-6.435,-6.3408,-6.2977,-6.229,-6.13,-5.9281,0.0,-5.6455,0.0,0.0,0.0,0.0,0.0,-6.1667,-6.2695,-6.4457,-6.6659,-6.8458,-6.9192,-6.9045,-6.7834,-6.8495,-6.9889,-6.8274,-6.7687,-6.7687,-6.7687,-6.7687,-6.7687,-6.7687,-6.754,-6.7393,-6.7393,-6.6953,-6.6659,-6.7467,-6.7393,-6.732,-6.8348,-6.7504,-6.6476,-6.6696,-6.5191,-6.3759,-6.3759,-6.3099,-6.2695,-6.3319,-6.1594,-6.0309,-6.0896,-5.8804,-5.7336,-5.7923,-5.7483,-5.7336,-5.7923,-5.7172,-5.6509,-5.6297,-5.7083,-5.7569,-5.7376,-5.9066,-6.0622,-6.1806,-6.2922,-6.4038,-6.5121,-6.5696,-6.6068,-6.6237,-6.6812,-6.7557,-6.8504,-6.9654,-7.0601,-7.1312,-7.1312,-7.1312,-7.1312,-7.1312,-7.1312,-7.1312,-7.1312,-7.1312,-7.1312,-7.1312,-7.1312,-7.1312,-7.1312,-7.1312,-7.1312,-6.1973,-6.2589,-6.3205,-6.3281,-6.4628,-6.5705,-6.5705,-6.7128,-6.8398,-6.8898,-6.9283,-6.9552,-6.9667,-7.0014,-7.009,-6.9744,-6.9244,-6.8715,-6.81,-6.8004,-6.7553,-6.6678,-6.6173,-6.5842,-6.557,-6.452,-6.3499,-6.2549,-6.0515,0.0,0.0,0.0,0.0,0.0,0.0,-5.8804,-6.1227,-6.3466,-6.5228,-6.6659,-6.8348,-6.9265,0.0,-6.8164,-6.8458,-6.9449,-6.8531,-6.7981,-6.7687,-6.7687,-6.7687,-6.7687,-6.7687,-6.7687,-6.776,-6.8128,-6.7907,-6.7724,-6.8531,-6.8495,-6.8421,-6.9229,-6.8825,-6.8311,-6.8678,-6.7687,-6.6623,-6.6256,-6.5521,-6.4971,-6.5118,-6.3135,-6.1263,-6.0639,-5.8731,-5.7483,-5.7923,-5.7593,-5.7483,-5.796,-5.764,-5.7083,-5.6295,-5.6969,-5.7396,-5.7275,-5.8423,-5.9911,-6.167,-6.2279,-6.3193,-6.4546,-6.5628,-6.5865,-6.5222,-6.6576,-6.7489,-6.7895,-6.9147,-7.0263,-7.1312,-7.1312,-7.1312,-7.1312,-7.1312,-7.1312,-7.1312,-7.1312,-7.1312,-7.1312,-7.1312,-7.1312,-7.1312,-7.1312,-7.1312,-7.1312,-6.3512,-6.4166,-6.4551,-6.3897,-6.5705,-6.7321,-6.7398,-6.8629,-6.959,-6.9706,-7.0321,-7.0475,-6.9783,-7.0437,-7.0629,-6.9937,-6.986,-6.9337,-6.8126,-6.845,-6.831,-6.7296,-6.7098,-6.7347,-6.8167,-6.6106,-6.4671,-6.3953,-6.1566,0.0,0.0,0.0,0.0,0.0,0.0,0.0,0.0,-6.5007,-6.6733,-6.688,-6.7797,-6.8531,-6.8972,-6.8274,-6.8458,-6.9082,-6.9082,-6.8458,-6.7687,-6.7687,-6.776,-6.7834,-6.7834,-6.7907,-6.8128,-6.8862,-6.9082,-6.9229,-6.9926,-6.9669,-6.9376,-7.0073,-6.9743,-6.9412,-7.011,-7.0183,-6.9889,-6.9192,-6.8495,-6.776,-6.6953,-6.4714,-6.2218,-5.9881,-5.8841,-5.8327,-5.8327,-5.84,-5.8437,-5.8327,-5.833,0.0,-5.7144,-5.6927,-5.7049,-5.769,-5.7927,-5.9214,-6.1806,-6.1617,-6.2329,-6.4241,-6.5662,-6.5865,-6.4749,-6.6643,-6.776,-6.8064,-6.8774,-6.9891,-7.1312,-7.1312,-7.1312,-7.1312,-7.1312,-7.1312,-7.1312,-7.1312,-7.1312,-7.1312,-7.1312,-7.1312,-7.1312,-7.1312,-7.1312,-7.1312,-6.4512,-6.5051,-6.582,-6.6359,-6.7398,-6.8398,-6.9129,-6.8898,-6.8898,-6.9629,-6.9821,-6.986,-6.9706,-7.0437,-7.0821,-7.0706,-7.0706,-7.0602,-7.0354,-7.0409,-7.0074,-6.9256,-6.9774,-6.9666,-6.868,-6.8333,-6.7195,-6.5271,-6.3427,0.0,0.0,0.0,0.0,0.0,0.0,0.0,-6.3613,-6.6329,-6.7871,-6.8605,-7.0073,-7.0367,-6.9853,-6.9706,-6.9779,-6.9889,-6.9889,-6.8935,-6.7687,-6.7687,-6.8128,-6.8678,-6.8678,-6.9155,-6.9706,-6.9853,-6.9889,-6.9926,-7.0073,-7.0477,-7.0917,-7.1064,-7.0962,-7.0917,-7.1064,-7.0587,-7.0073,-6.9926,-6.9779,-6.9412,-6.8641,-6.5962,-6.3282,-6.1484,-6.0493,-5.9979,-5.9979,-6.0529,-6.0713,-6.0052,-5.9998,-5.9401,-5.8021,-5.7206,-5.6846,-5.6976,-5.8218,-5.9148,-5.9577,-6.1302,-6.2438,-6.2759,-6.3632,-6.4546,-6.5493,-6.5865,-6.7015,-6.8876,-6.9045,-6.9891,-7.1312,-7.1312,-7.1312,-7.1312,-7.1312,-7.1312,-7.1312,-7.1312,-7.1312,-7.1312,-7.1312,-7.1312,-7.1312,-7.1312,-7.1312,-7.1312,-6.5897,-6.6244,-6.6628,-6.7013,-6.7821,-6.8552,-6.8975,-6.9052,-6.936,-7.0206,-7.0321,-7.0321,-7.0321,-7.0667,-7.0898,-7.0898,-7.0898,-7.0898,-7.0898,-7.0898,-7.0744,-7.036,-7.0706,-7.0584,-6.9896,-6.9911,-6.8639,-6.6018,-6.52,-6.3058,0.0,0.0,0.0,0.0,0.0,-6.1814,0.0,-6.71,-6.8788,-6.9633,-7.0844,-7.1578,-7.1872,-7.1027,-7.0991,-7.1284,-7.0881,-6.9963,-6.8935,-6.8935,-6.9192,-6.9522,-6.9522,-6.9779,-7.0183,-7.0587,-7.0734,-7.0734,-7.0734,-7.1027,-7.1293,-7.1293,-7.1293,-7.1403,-7.1835,-7.1615,-7.1248,-7.0807,-7.0734,-7.0367,-6.9119,-6.7283,-6.5411,-6.3796,-6.2475,-6.152,-6.108,-6.1374,-6.1447,-6.108,-6.1003,-6.057,-5.9404,-5.8204,-5.7298,-5.6822,-5.75,-5.8453,-5.9505,-6.0632,-6.1623,-6.2386,-6.3869,-6.441,-6.3971,-6.5865,-6.7015,-6.7354,-6.8538,-6.9688,-7.0737,-7.1142,-7.1312,-7.1312,-7.1312,-7.1312,-7.1312,-7.1312,-7.1312,-7.1312,-7.1312,-7.1312,-7.1312,-7.1312,-7.1312,-7.1312,-6.7244,-6.7513,-6.7628,-6.7628,-6.8205,-6.8744,-6.8898,-6.936,-6.9975,-7.0783,-7.0898,-7.0898,-7.0898,-7.0898,-7.0975,-7.1168,-7.1014,-7.0975,-7.1168,-7.1168,-7.1168,-7.1168,-7.1514,-7.1629,-7.1475,-7.1437,-7.0004,-6.708,-6.6736,-6.4511,-6.0577,0.0,0.0,0.0,0.0,-6.4016,-6.5301,-6.8017,-6.9706,-7.066,-7.1505,-7.2569,-7.356,-7.2496,-7.2459,-7.2936,-7.2312,-7.1651,-7.1101,-7.1101,-7.077,-7.0367,-7.0367,-7.0477,-7.0734,-7.1394,-7.155,-7.155,-7.155,-7.155,-7.1615,-7.1798,-7.1835,-7.2018,-7.2826,-7.301,-7.2789,-7.1982,-7.1541,-7.0917,-6.9633,-6.8605,-6.754,-6.6292,-6.4677,-6.3319,-6.2511,-6.2658,-6.2695,-6.2181,-6.2438,-6.2181,-6.1043,-5.9521,-5.8256,-5.739,-5.7151,-5.7905,-5.9742,-6.0031,-6.0985,-6.2787,-6.4241,-6.4444,-6.3328,-6.6068,-6.7083,-6.644,-6.8233,-6.9485,-7.0229,-7.0973,-7.1312,-7.1312,-7.1312,-7.1312,-7.1312,-7.1312,-7.1312,-7.1312,-7.1312,-7.1312,-7.1312,-7.1312,-7.1312,-7.1312,-6.8282,-6.8898,-6.9475,-6.9475,-6.9513,-6.9821,-7.0552,-7.0129,-6.9975,-7.0783,-7.0898,-7.0898,-7.0898,-7.0898,-7.1206,-7.2014,-7.136,-7.1245,-7.2014,-7.2091,-7.2091,-7.2091,-7.3514,-7.4014,-7.3283,-7.3283,-7.2,-6.9396,-6.782,-6.4649,-6.0212,0.0,0.0,-6.4472,-6.4869,-6.6329,-6.8531,-6.9559,-7.0881,-7.2349,-7.3156,-7.356,-7.3744,-7.4331,-7.4625,-7.4698,-7.4588,-7.4515,-7.4478,-7.4478,-7.301,-7.1211,-7.1211,-7.1688,-7.2275,-7.2386,-7.2386,-7.2386,-7.2386,-7.2386,-7.2569,-7.3303,-7.3487,-7.367,-7.4515,-7.4698,-7.4441,-7.3634,-7.2312,-7.1219,-7.1073,-6.9816,-6.8752,-6.8605,-6.721,-6.5888,-6.5081,-6.6219,-6.6292,-6.4127,-6.5154,-6.5118,-6.2805,-6.1194,-5.9917,-5.9042,-5.8372,-5.8293,-5.9072,-5.9868,-6.1551,-6.4316,-6.3294,-6.3903,-6.6373,-6.6068,-6.6846,-6.8774,-6.9011,-6.9485,-7.0229,-7.0973,-7.1312,-7.1312,-7.1312,-7.1312,-7.1312,-7.1312,-7.1312,-7.1312,-7.1312,-7.1312,-7.1312,-7.1312,-7.1312,-7.1312,-7.0398,-7.0552,-7.0591,-7.1091,-7.1206,-7.1321,-7.1629,-7.186,-7.2091,-7.2437,-7.2014,-7.1668,-7.1668,-7.2168,-7.2591,-7.2937,-7.2668,-7.2629,-7.2976,-7.2976,-7.2976,-7.2976,-7.4091,-7.4322,-7.3514,-7.3976,-7.2976,-7.0437,-6.9244,-6.7447,-6.5085,-6.5314,-6.5942,-6.69,-6.71,-6.8309,-7.0224,-7.1039,-7.2069,-7.3259,-7.397,-7.4588,-7.5102,-7.4955,-7.5212,-7.5579,-7.5065,-7.4918,-7.4918,-7.4918,-7.4258,-7.3487,-7.3487,-7.3707,-7.3964,-7.3964,-7.3964,-7.3964,-7.3964,-7.3964,-7.4037,-7.4331,-7.4441,-7.4515,-7.4845,-7.4918,-7.4808,-7.4478,-7.3523,-7.2606,-7.2129,-7.1505,-7.0734,-6.9779,-6.9082,-6.8054,-6.6256,-6.7393,-6.7687,-6.5778,-6.6109,-6.5925,-6.4457,-6.2395,-6.0602,-5.9348,-5.8988,-5.9057,-5.9698,-6.0531,-6.2071,-6.4519,-6.3599,-6.4038,-6.6102,-6.5831,-6.6373,-6.7726,-6.8673,-6.9485,-7.0229,-7.0973,-7.1312,-7.1312,-7.1312,-7.1312,-7.1312,-7.1312,-7.1312,-7.1312,-7.1312,-7.1312,-7.1312,-7.1312,-7.1312,-7.1312,-7.2245,-7.2091,-7.186,-7.2476,-7.2591,-7.2591,-7.2591,-7.3091,-7.3514,-7.3514,-7.3168,-7.286,-7.2591,-7.3129,-7.3577,-7.3808,-7.363,-7.3577,-7.386,-7.386,-7.386,-7.386,-7.463,-7.4822,-7.4245,-7.4553,-7.3822,-7.2014,-7.0937,-6.9744,-6.8385,-6.7271,-6.7732,-6.9474,-6.9713,-7.0494,-7.1654,-7.2702,-7.3501,-7.4043,-7.497,-7.5643,-7.6056,-7.5726,-7.5983,-7.6387,-7.5836,-7.5616,-7.5616,-7.5616,-7.5616,-7.5542,-7.5065,-7.4918,-7.4918,-7.4918,-7.4918,-7.4918,-7.4918,-7.4918,-7.4955,-7.5212,-7.5249,-7.5322,-7.5579,-7.5616,-7.5542,-7.5322,-7.4625,-7.3891,-7.3303,-7.323,-7.2753,-7.1394,-7.0954,-6.9963,-6.754,-6.8605,-6.8935,-6.7063,-6.7467,-6.7504,-6.6476,-6.4787,-6.2995,-6.1178,-6.106,-6.0691,-5.9908,-6.0598,-6.2015,-6.4208,-6.3362,-6.3768,-6.5662,-6.5459,-6.5967,-6.7151,-6.847,-6.9485,-7.0229,-7.0973,-7.1312,-7.1312,-7.1312,-7.1312,-7.1312,-7.1312,-7.1312,-7.1312,-7.1312,-7.1312,-7.1312,-7.1312,-7.1312,-7.1312,-7.3462,-7.3462,-7.3476,-7.3462,-7.3462,-7.3462,-7.3462,-7.35,-7.3514,-7.3514,-7.4168,-7.4361,-7.3591,-7.35,-7.3822,-7.463,-7.3976,-7.386,-7.463,-7.4707,-7.4707,-7.4707,-7.5515,-7.5976,-7.5976,-7.513,-7.4668,-7.4668,-7.2976,-7.086,-6.8385,-6.7829,-6.9353,-7.2556,-7.2844,-7.2973,-7.3086,-7.4768,-7.5122,-7.4744,-7.6398,-7.6709,-7.6203,-7.6974,-7.7273,-7.7273,-7.7273,-7.7273,-7.7273,-7.7273,-7.7273,-7.698,-7.5402,-7.4918,-7.4918,-7.4918,-7.4918,-7.4918,-7.4918,-7.4918,-7.5102,-7.5909,-7.6093,-7.6276,-7.709,-7.7273,-7.7053,-7.624,-7.5469,-7.4882,-7.4882,-7.4882,-7.4625,-7.378,-7.2973,-7.1615,-6.9229,-7.0257,-7.0403,-6.7944,-6.9779,-7.0624,-6.9009,-6.8825,-6.7834,-6.5422,-6.5238,-6.345,-5.9351,-5.975,-6.1163,-6.3463,-6.211,-6.2719,-6.5662,-6.4986,-6.5696,-6.7895,-6.8707,-6.9485,-7.0229,-7.0973,-7.1312,-7.1312,-7.1312,-7.1312,-7.1312,-7.1312,-7.1312,-7.1312,-7.1312,-7.1312,-7.1312,-7.1312,-7.1312,-7.1312,-7.4976,-7.5207,-7.5207,-7.5207,-7.5207,-7.5207,-7.5207,-7.5207,-7.5207,-7.5207,-7.5438,-7.5476,-7.5245,-7.5207,-7.5322,-7.5553,-7.5361,-7.5322,-7.5553,-7.5592,-7.5592,-7.5592,-7.5861,-7.6015,-7.6015,-7.5745,-7.5284,-7.4707,-7.363,-7.236,-7.1014,-7.1425,-7.2479,-7.4037,-7.4328,-7.4752,-7.5399,-7.6521,-7.6954,-7.6959,-7.7461,-7.7627,-7.7561,-7.7376,-7.7273,-7.7273,-7.7273,-7.7273,-7.7273,-7.7273,-7.7273,-7.72,-7.6686,-7.654,-7.654,-7.654,-7.654,-7.654,-7.654,-7.654,-7.6576,-7.6833,-7.6937,-7.698,-7.7237,-7.7273,-7.7053,-7.6276,-7.5909,-7.5542,-7.5028,-7.4918,-7.4661,-7.3817,-7.3964,-7.3303,-7.0881,-7.1468,-7.1431,-6.9559,-6.9522,-6.9669,-6.9706,-6.8715,-6.776,-6.699,-6.6891,-6.5286,-6.1712,-6.17,-6.2813,-6.4925,-6.3565,-6.4241,-6.7151,-6.5967,-6.6474,-6.8707,-6.8977,-6.9755,-7.0973,-7.121,-7.1312,-7.1312,-7.1312,-7.1312,-7.1312,-7.1312,-7.1312,-7.1312,-7.1312,-7.1312,-7.1312,-7.1312,-7.1312,-7.1312,-7.5784,-7.6015,-7.6015,-7.6015,-7.6015,-7.6015,-7.6015,-7.6015,-7.6015,-7.6015,-7.6015,-7.6015,-7.6015,-7.6015,-7.6015,-7.6015,-7.6015,-7.6015,-7.6015,-7.6015,-7.6015,-7.6015,-7.6015,-7.6015,-7.6015,-7.6015,-7.5745,-7.5207,-7.5014,-7.4668,-7.413,-7.4976,-7.5668,-7.6115,-7.629,-7.6671,-7.7245,-7.8126,-7.8409,-7.8382,-7.8625,-7.8558,-7.8255,-7.7817,-7.751,-7.7273,-7.7273,-7.7273,-7.7273,-7.7273,-7.7273,-7.7273,-7.7273,-7.7273,-7.7273,-7.7273,-7.7273,-7.7273,-7.7273,-7.7273,-7.7273,-7.7273,-7.7273,-7.7273,-7.7273,-7.7273,-7.7163,-7.6644,-7.657,-7.6423,-7.5879,-7.5769,-7.5542,-7.4735,-7.5028,-7.4625,-7.2496,-7.2899,-7.2936,-7.1615,-7.0991,-7.077,-7.0991,-6.9816,-6.8935,-6.8605,-6.8005,-6.6848,-6.5019,-6.3985,-6.3758,-6.4458,-6.3835,-6.4647,-6.7049,-6.6136,-6.6846,-6.9113,-6.9654,-7.0432,-7.1312,-7.1312,-7.1312,-7.1312,-7.1312,-7.1312,-7.1312,-7.1312,-7.1312,-7.1312,-7.1312,-7.1312,-7.1312,-7.1312,-7.1312,-7.1312,-7.6015,-7.6015,-7.6015,-7.6015,-7.6015,-7.6015,-7.6015,-7.6015,-7.6015,-7.6015,-7.6015,-7.6015,-7.6015,-7.6015,-7.6015,-7.6092,-7.6015,-7.6015,-7.6015,-7.6015,-7.6015,-7.6092,-7.6092,-7.613,-7.6169,-7.6169,-7.6169,-7.6169,-7.6976,-7.7361,-7.74,-7.813,-7.8477,-7.8477,-7.8554,-7.8592,-7.8631,-7.9515,-7.9582,-7.9114,-7.982,-7.9425,-7.8405,-7.8389,-7.796,-7.7365,-7.7365,-7.7335,-7.7273,-7.7273,-7.7273,-7.7273,-7.7273,-7.7273,-7.7273,-7.7273,-7.7273,-7.7273,-7.7273,-7.7273,-7.7273,-7.7273,-7.7273,-7.7273,-7.7273,-7.7273,-7.7273,-7.7273,-7.7273,-7.7273,-7.7273,-7.7273,-7.7053,-7.6313,-7.6166,-7.5616,-7.4001,-7.4368,-7.4515,-7.3707,-7.356,-7.3266,-7.2569,-7.1835,-7.1064,-7.033,-6.8862,-6.8235,-6.8677,-6.6495,-6.4462,-6.2775,-6.3334,-6.4343,-6.5764,-6.5764,-6.688,-6.9113,-7.0601,-7.1312,-7.1312,-7.1312,-7.1312,-7.1312,-7.1312,-7.1312,-7.1312,-7.1312,-7.1312,-7.1312,-7.1312,-7.1312,-7.1312,-7.1312,-7.1312,-7.1312,-7.6015,-7.6015,-7.6015,-7.6015,-7.6015,-7.6015,-7.6015,-7.6015,-7.6015,-7.6015,-7.6015,-7.6015,-7.6015,-7.6015,-7.6284,-7.6938,-7.6361,-7.6015,-7.6015,-7.6015,-7.6284,-7.6938,-7.6976,-7.7284,-7.79,-7.79,-7.79,-7.79,-7.8092,-7.8207,-7.8207,-7.84,-7.8477,-7.8515,-7.9208,-7.9477,-7.9554,-8.0439,-8.0722,-8.057,-8.0238,-7.9929,-7.9621,-7.9152,-7.8602,-7.8035,-7.8035,-7.7739,-7.7273,-7.7273,-7.7273,-7.7273,-7.7273,-7.7273,-7.7273,-7.7273,-7.7273,-7.7273,-7.7273,-7.7273,-7.7273,-7.7273,-7.7273,-7.7273,-7.7273,-7.7273,-7.7273,-7.7273,-7.7273,-7.7273,-7.7273,-7.7273,-7.7237,-7.7047,-7.7047,-7.646,-7.4845,-7.4258,-7.367,-7.2899,-7.2239,-7.2055,-7.2459,-7.2349,-7.2129,-7.1945,-7.1578,-7.0301,-6.7843,-6.8257,-6.7754,-6.6048,-6.5465,-6.5628,-6.6542,-6.6542,-6.7421,-6.9113,-7.0601,-7.1312,-7.1312,-7.1312,-7.1312,-7.1312,-7.1312,-7.1312,-7.1312,-7.1312,-7.1312,-7.1312,-7.1312,-7.1312,-7.1312,-7.1312,-7.1312,-7.1312,-7.6015,-7.6015,-7.6015,-7.6015,-7.6015,-7.6015,-7.6015,-7.6015,-7.613,-7.6553,-7.6592,-7.6746,-7.7092,-7.713,-7.7323,-7.7823,-7.7092,-7.6746,-7.713,-7.713,-7.7361,-7.7823,-7.7861,-7.8054,-7.8477,-7.8477,-7.8477,-7.8477,-7.89,-7.9092,-7.9092,-7.9515,-7.9669,-7.9708,-8.0169,-8.04,-8.0439,-8.09,-8.1093,-8.1077,-8.0716,-8.037,-8.0048,-7.9765,-7.9058,-7.8309,-7.8309,-7.7846,-7.7273,-7.7273,-7.7273,-7.7273,-7.7273,-7.7273,-7.7273,-7.7273,-7.7273,-7.7273,-7.7273,-7.7273,-7.7273,-7.7273,-7.7273,-7.7273,-7.7273,-7.7273,-7.7273,-7.7273,-7.7273,-7.7273,-7.7273,-7.7273,-7.7273,-7.7273,-7.698,-7.6313,-7.5065,-7.4515,-7.3964,-7.3156,-7.2679,-7.2422,-7.2496,-7.2165,-7.1945,-7.1945,-7.1615,-7.0755,-6.9143,-6.9137,-6.8179,-6.6009,-6.6126,-6.6406,-6.6812,-6.7523,-6.8267,-6.9113,-7.0601,-7.1312,-7.1312,-7.1312,-7.1312,-7.1312,-7.1312,-7.1312,-7.1312,-7.1312,-7.1312,-7.1312,-7.1312,-7.1312,-7.1312,-7.1312,-7.1312,-7.1312,-7.6207,-7.6284,-7.6361,-7.6361,-7.6361,-7.6361,-7.6361,-7.6361,-7.663,-7.7361,-7.7476,-7.7746,-7.8438,-7.8477,-7.8554,-7.8669,-7.8054,-7.79,-7.8453,-7.8477,-7.8554,-7.8669,-7.8707,-7.8746,-7.89,-7.89,-7.89,-7.89,-7.9631,-8.0015,-8.0015,-8.0746,-8.1093,-8.1093,-8.1093,-8.1093,-8.1093,-8.1093,-8.1093,-8.1093,-8.1093,-8.075,-8.0239,-8.0239,-7.9491,-7.8432,-7.8432,-7.796,-7.7273,-7.7273,-7.7273,-7.7273,-7.7273,-7.7273,-7.7273,-7.7273,-7.7273,-7.7273,-7.7273,-7.7273,-7.7273,-7.7273,-7.7273,-7.7273,-7.7273,-7.7273,-7.7273,-7.7273,-7.7273,-7.7273,-7.7273,-7.7273,-7.7273,-7.7273,-7.6533,-7.5689,-7.5028,-7.4698,-7.4294,-7.3597,-7.3523,-7.323,-7.2569,-7.1872,-7.1505,-7.1505,-7.0844,-7.0573,-7.0906,-6.9652,-6.7687,-6.5073,-6.6151,-6.6812,-6.6812,-6.8335,-6.9113,-6.9113,-7.0601,-7.1312,-7.1312,-7.1312,-7.1312,-7.1312,-7.1312,-7.1312,-7.1312,-7.1312,-7.1312,-7.1312,-7.1312,-7.1312,-7.1312,-7.1312,-7.1312,-7.1312,-7.7092,-7.763,-7.8092,-7.8092,-7.8092,-7.8092,-7.8092,-7.8092,-7.8169,-7.8284,-7.8284,-7.8361,-7.8477,-7.8477,-7.8784,-7.9515,-7.9477,-7.9169,-7.8515,-7.8477,-7.8823,-7.9592,-7.9592,-7.9939,-8.0669,-8.0708,-8.0708,-8.0708,-8.0823,-8.09,-8.09,-8.1054,-8.1093,-8.1093,-8.1093,-8.1093,-8.1093,-8.1093,-8.1093,-8.1093,-8.1093,-8.1045,-8.0959,-8.0959,-8.0182,-7.9058,-7.9058,-7.8325,-7.7273,-7.7273,-7.7273,-7.7273,-7.7273,-7.7273,-7.7273,-7.7273,-7.7273,-7.7273,-7.7273,-7.7273,-7.7273,-7.7273,-7.7273,-7.7273,-7.7273,-7.7273,-7.7273,-7.7273,-7.7273,-7.7273,-7.7273,-7.7273,-7.7273,-7.7273,-7.6026,-7.5065,-7.4918,-7.3744,-7.2826,-7.2716,-7.2679,-7.2642,-7.2496,-7.2386,-7.2312,-7.2312,-7.2202,-7.1553,-7.0216,-7.0494,-6.9489,-6.6789,-6.68,-6.6812,-6.6812,-6.8335,-6.9113,-6.9113,-7.0601,-7.1312,-7.1312,-7.1312,-7.1312,-7.1312,-7.1312,-7.1312,-7.1312,-7.1312,-7.1312,-7.1312,-7.1312,-7.1312,-7.1312,-7.1312,-7.1312,-7.1312,-7.7938,-7.8246,-7.8477,-7.8477,-7.8477,-7.8477,-7.8477,-7.8477,-7.8669,-7.9131,-7.9208,-7.9361,-7.9862,-7.99,-8.0054,-8.0477,-8.0516,-8.0323,-7.9939,-7.99,-8.0092,-8.0477,-8.0516,-8.0708,-8.1093,-8.1093,-8.1093,-8.1093,-8.1093,-8.1093,-8.1093,-8.1093,-8.1093,-8.1093,-8.1093,-8.1093,-8.1093,-8.1093,-8.1093,-8.1093,-8.1093,-8.1093,-8.1093,-8.1093,-8.0499,-7.9642,-7.9313,-7.8628,-7.7797,-7.7426,-7.7273,-7.7273,-7.7273,-7.7273,-7.7273,-7.7273,-7.7273,-7.7273,-7.7273,-7.7273,-7.7273,-7.7273,-7.7273,-7.7273,-7.7273,-7.7273,-7.7273,-7.7273,-7.7273,-7.7273,-7.7273,-7.7273,-7.7017,-7.6136,-7.5395,-7.4478,-7.3127,-7.2679,-7.2349,-7.1908,-7.2239,-7.2496,-7.2496,-7.2496,-7.2496,-7.2496,-7.2496,-7.1955,-7.0685,-7.0911,-7.0322,-6.8567,-6.737,-6.6812,-6.6812,-6.8335,-6.9113,-6.9113,-7.0601,-7.1312,-7.1312,-7.1312,-7.1312,-7.1312,-7.1312,-7.1312,-7.1312,-7.1312,-7.1312,-7.1312,-7.1312,-7.1312,-7.1312,-7.1312,-7.1312,-7.1312,-7.8784,-7.8977,-7.9092,-7.9092,-7.9092,-7.9092,-7.9092,-7.9092,-7.9323,-8.0015,-8.0092,-8.0362,-8.1016,-8.1093,-8.1093,-8.1093,-8.1093,-8.1093,-8.1093,-8.1093,-8.1093,-8.1093,-8.1093,-8.1093,-8.1093,-8.1093,-8.1093,-8.1093,-8.1093,-8.1093,-8.1093,-8.1093,-8.1093,-8.1093,-8.1093,-8.1093,-8.1093,-8.1093,-8.1093,-8.1093,-8.1093,-8.1093,-8.1093,-8.1093,-8.066,-8.0008,-7.9425,-7.8829,-7.82,-7.751,-7.7273,-7.7273,-7.7273,-7.7273,-7.7273,-7.7273,-7.7273,-7.7273,-7.7273,-7.7273,-7.7273,-7.7273,-7.7273,-7.7273,-7.7273,-7.7273,-7.7273,-7.7273,-7.7273,-7.7273,-7.7273,-7.7127,-7.6644,-7.5395,-7.4735,-7.378,-7.2092,-7.2092,-7.2055,-7.1651,-7.2129,-7.2496,-7.2496,-7.2496,-7.2496,-7.2496,-7.2496,-7.2197,-7.148,-7.1448,-7.0998,-7.0058,-6.8141,-6.7222,-6.7392,-6.8531,-6.918,-6.9383,-7.0703,-7.1312,-7.1312,-7.1312,-7.1312,-7.1312,-7.1312,-7.1312,-7.1312,-7.1312,-7.1312,-7.1312,-7.1312,-7.1312,-7.1312,-7.1312,-7.1312,-7.1312,-7.9708,-8.0362,-8.09,-8.09,-8.09,-8.09,-8.09,-8.09,-8.0939,-8.1016,-8.1016,-8.1016,-8.1093,-8.1093,-8.1093,-8.1093,-8.1093,-8.1093,-8.1093,-8.1093,-8.1093,-8.1093,-8.1093,-8.1093,-8.1093,-8.1093,-8.1093,-8.1093,-8.1093,-8.1093,-8.1093,-8.1093,-8.1093,-8.1093,-8.1093,-8.1093,-8.1093,-8.1093,-8.1093,-8.1093,-8.1093,-8.1093,-8.1093,-8.1093,-8.066,-8.0008,-7.9425,-7.8829,-7.82,-7.751,-7.7273,-7.7273,-7.7273,-7.7273,-7.7273,-7.7273,-7.7273,-7.7273,-7.7273,-7.7273,-7.7273,-7.7273,-7.7273,-7.7273,-7.7273,-7.7273,-7.7273,-7.7273,-7.7273,-7.7273,-7.7273,-7.6717,-7.6166,-7.6019,-7.4147,-7.2863,-7.345,-7.2312,-7.1651,-7.2349,-7.2459,-7.2496,-7.2496,-7.2496,-7.2496,-7.2496,-7.2496,-7.2467,-7.2409,-7.2409,-7.1981,-7.1031,-6.9096,-6.8453,-6.9174,-6.9152,-6.9451,-7.0128,-7.0939,-7.1312,-7.1312,-7.1312,-7.1312,-7.1312,-7.1312,-7.1312,-7.1312,-7.1312,-7.1312,-7.1312,-7.1312,-7.1312,-7.1312,-7.1312,-7.1312,-7.1312,-8.0592,-8.0862,-8.1093,-8.1093,-8.1093,-8.1093,-8.1093,-8.1093,-8.1093,-8.1093,-8.1093,-8.1093,-8.1093,-8.1093,-8.1093,-8.1093,-8.1093,-8.1093,-8.1093,-8.1093,-8.1093,-8.1093,-8.1093,-8.1093,-8.1093,-8.1093,-8.1093,-8.1093,-8.1093,-8.1093,-8.1093,-8.1093,-8.1093,-8.1093,-8.1093,-8.1093,-8.1093,-8.1093,-8.1093,-8.1093,-8.1093,-8.1093,-8.1093,-8.1093,-8.0959,-8.0626,-7.9969,-7.938,-7.8779,-7.8146,-7.7622,-7.7273,-7.7273,-7.7273,-7.7273,-7.7273,-7.7273,-7.7273,-7.7273,-7.7273,-7.7273,-7.7273,-7.7273,-7.7273,-7.7273,-7.7273,-7.7273,-7.7273,-7.69,-7.657,-7.657,-7.5909,-7.5028,-7.4037,-7.3523,-7.301,-7.2312,-7.2129,-7.2165,-7.2459,-7.2496,-7.2496,-7.2496,-7.2496,-7.2496,-7.2496,-7.2496,-7.2496,-7.2496,-7.2496,-7.2314,-7.1981,-7.1168,-7.0305,-6.9436,-6.9638,-6.9925,-7.0195,-7.0973,-7.1312,-7.1312,-7.1312,-7.1312,-7.1312,-7.1312,-7.1312,-7.1312,-7.1312,-7.1312,-7.1312,-7.1312,-7.1312,-7.1312,-7.1312,-7.1312,-7.1312,-8.1093,-8.1093,-8.1093,-8.1093,-8.1093,-8.1093,-8.1093,-8.1093,-8.1093,-8.1093,-8.1093,-8.1093,-8.1093,-8.1093,-8.1093,-8.1093,-8.1093,-8.1093,-8.1093,-8.1093,-8.1093,-8.1093,-8.1093,-8.1093,-8.1093,-8.1093,-8.1093,-8.1093,-8.1093,-8.1093,-8.1093,-8.1093,-8.1093,-8.1093,-8.1093,-8.1093,-8.1093,-8.1093,-8.1093,-8.1093,-8.1093,-8.1093,-8.1093,-8.1093,-8.1093,-8.0991,-8.0333,-7.9706,-7.9105,-7.851,-7.7846,-7.7273,-7.7273,-7.7273,-7.7273,-7.7273,-7.7273,-7.7273,-7.7273,-7.7273,-7.7273,-7.7273,-7.7273,-7.7273,-7.7273,-7.7273,-7.7273,-7.7273,-7.668,-7.6093,-7.6093,-7.5249,-7.4147,-7.3046,-7.312,-7.2936,-7.1835,-7.2165,-7.2496,-7.2496,-7.2496,-7.2496,-7.2496,-7.2496,-7.2496,-7.2496,-7.2496,-7.2496,-7.2496,-7.2496,-7.2606,-7.2863,-7.2735,-7.2114,-7.1028,-7.0795,-7.0614,-7.0534,-7.1075,-7.1312,-7.1312,-7.1312,-7.1312,-7.1312,-7.1312,-7.1312,-7.1312,-7.1312,-7.1312,-7.1312,-7.1312,-7.1312,-7.1312,-7.1312,-7.1312,-7.1312,-8.1093,-8.1093,-8.1093,-8.1093,-8.1093,-8.1093,-8.1093,-8.1093,-8.1093,-8.1093,-8.1093,-8.1093,-8.1093,-8.1093,-8.1093,-8.1093,-8.1093,-8.1093,-8.1093,-8.1093,-8.1093,-8.1093,-8.1093,-8.1093,-8.1093,-8.1093,-8.1093,-8.1093,-8.1093,-8.1093,-8.1093,-8.1093,-8.1093,-8.1093,-8.1093,-8.1093,-8.1093,-8.1093,-8.1093,-8.1093,-8.1093,-8.1093,-8.1093,-8.1093,-8.1093,-8.1007,-8.0352,-7.9706,-7.9105,-7.851,-7.7846,-7.7273,-7.7273,-7.7273,-7.7273,-7.7273,-7.7273,-7.7273,-7.7273,-7.7273,-7.7273,-7.7273,-7.7273,-7.7273,-7.7273,-7.7273,-7.7273,-7.7273,-7.6644,-7.6093,-7.6093,-7.4771,-7.367,-7.367,-7.301,-7.2496,-7.2496,-7.2496,-7.2496,-7.2496,-7.2496,-7.2496,-7.2496,-7.2496,-7.2496,-7.2496,-7.2496,-7.2496,-7.2496,-7.2496,-7.2899,-7.367,-7.3534,-7.3805,-7.4598,-7.2686,-7.1599,-7.1312,-7.1312,-7.1312,-7.1312,-7.1312,-7.1312,-7.1312,-7.1312,-7.1312,-7.1312,-7.1312,-7.1312,-7.1312,-7.1312,-7.1312,-7.1312,-7.1312,-7.1312,-7.1312,-8.1093,-8.1093,-8.1093,-8.1093,-8.1093,-8.1093,-8.1093,-8.1093,-8.1093,-8.1093,-8.1093,-8.1093,-8.1093,-8.1093,-8.1093,-8.1093,-8.1093,-8.1093,-8.1093,-8.1093,-8.1093,-8.1093,-8.1093,-8.1093,-8.1093,-8.1093,-8.1093,-8.1093,-8.1093,-8.1093,-8.1093,-8.1093,-8.1093,-8.1093,-8.1093,-8.1093,-8.1093,-8.1093,-8.1093,-8.1093,-8.1093,-8.1093,-8.1093,-8.1093,-8.1093,-8.1077,-8.0871,-8.0105,-7.9175,-7.8986,-7.819,-7.7273,-7.7273,-7.7273,-7.7273,-7.7273,-7.7273,-7.7273,-7.7273,-7.7273,-7.7273,-7.7273,-7.7273,-7.7273,-7.7273,-7.6864,-7.646,-7.646,-7.5359,-7.4404,-7.4404,-7.356,-7.2863,-7.2863,-7.2679,-7.2496,-7.2496,-7.2496,-7.2496,-7.2496,-7.2496,-7.2496,-7.2496,-7.2496,-7.2496,-7.2496,-7.2496,-7.2496,-7.2496,-7.3046,-7.345,-7.367,-7.4751,-7.5075,-7.4598,-7.3175,-7.2424,-7.2364,-7.1644,-7.1312,-7.1312,-7.1312,-7.1312,-7.1312,-7.1312,-7.1312,-7.1312,-7.1312,-7.1312,-7.1312,-7.1312,-7.1312,-7.1312,-7.1312,-7.1312,-7.1312,-8.1093,-8.1093,-8.1093,-8.1093,-8.1093,-8.1093,-8.1093,-8.1093,-8.1093,-8.1093,-8.1093,-8.1093,-8.1093,-8.1093,-8.1093,-8.1093,-8.1093,-8.1093,-8.1093,-8.1093,-8.1093,-8.1093,-8.1093,-8.1093,-8.1093,-8.1093,-8.1093,-8.1093,-8.1093,-8.1093,-8.1093,-8.1093,-8.1093,-8.1093,-8.1093,-8.1093,-8.1093,-8.1093,-8.1093,-8.1093,-8.1093,-8.1093,-8.1093,-8.1093,-8.1093,-8.1093,-8.1093,-8.0427,-7.9513,-7.929,-7.8341,-7.7273,-7.7273,-7.7273,-7.7273,-7.7273,-7.7273,-7.7273,-7.7273,-7.7273,-7.7273,-7.7273,-7.7053,-7.6827,-7.6827,-7.6203,-7.5616,-7.5616,-7.4588,-7.3707,-7.3707,-7.3046,-7.2496,-7.2496,-7.2496,-7.2496,-7.2496,-7.2496,-7.2496,-7.2496,-7.2496,-7.2496,-7.2496,-7.2496,-7.2496,-7.2496,-7.2789,-7.2973,-7.2973,-7.3744,-7.4331,-7.4625,-7.5579,-7.5958,-7.5673,-7.4173,-7.3171,-7.2797,-7.1786,-7.1312,-7.1312,-7.1312,-7.1312,-7.1312,-7.1312,-7.1312,-7.1312,-7.1312,-7.1312,-7.1312,-7.1312,-7.1312,-7.1312,-7.1312,-7.1312,-7.1312,-8.1093,-8.1093,-8.1093,-8.1093,-8.1093,-8.1093,-8.1093,-8.1093,-8.1093,-8.1093,-8.1093,-8.1093,-8.1093,-8.1093,-8.1093,-8.1093,-8.1093,-8.1093,-8.1093,-8.1093,-8.1093,-8.1093,-8.1093,-8.1093,-8.1093,-8.1093,-8.1093,-8.1093,-8.1093,-8.1093,-8.1093,-8.1093,-8.1093,-8.1093,-8.1093,-8.1093,-8.1093,-8.1093,-8.1093,-8.1093,-8.1093,-8.1093,-8.1093,-8.1093,-8.1093,-8.1093,-8.1093,-8.066,-7.9989,-7.9335,-7.8288,-7.7273,-7.7273,-7.7273,-7.7273,-7.72,-7.7163,-7.7163,-7.709,-7.709,-7.709,-7.709,-7.6497,-7.5909,-7.6056,-7.5432,-7.4808,-7.4808,-7.4147,-7.3597,-7.3597,-7.2973,-7.2496,-7.2496,-7.2496,-7.2496,-7.2496,-7.2496,-7.2496,-7.2496,-7.2496,-7.2496,-7.2496,-7.2496,-7.2532,-7.2606,-7.3303,-7.3707,-7.378,-7.4588,-7.5359,-7.6093,-7.6166,-7.657,-7.7273,-7.5405,-7.3928,-7.2921,-7.1917,-7.1401,-7.1312,-7.1401,-7.1401,-7.1312,-7.1312,-7.1312,-7.1312,-7.1312,-7.1312,-7.1312,-7.1312,-7.1312,-7.1312,-7.1312,-7.1312,-7.1312,-8.1093,-8.1093,-8.1093,-8.1093,-8.1093,-8.1093,-8.1093,-8.1093,-8.1093,-8.1093,-8.1093,-8.1093,-8.1093,-8.1093,-8.1093,-8.1093,-8.1093,-8.1093,-8.1093,-8.1093,-8.1093,-8.1093,-8.1093,-8.1093,-8.1093,-8.1093,-8.1093,-8.1093,-8.1093,-8.1093,-8.1093,-8.1093,-8.1093,-8.1093,-8.1093,-8.1093,-8.1093,-8.1093,-8.1093,-8.1093,-8.1093,-8.1093,-8.1093,-8.1093,-8.1093,-8.1093,-8.1093,-8.066,-7.9929,-7.8878,-7.7988,-7.7273,-7.7273,-7.7273,-7.7163,-7.657,-7.635,-7.624,-7.5616,-7.5402,-7.5402,-7.5402,-7.4808,-7.4551,-7.5799,-7.4992,-7.3964,-7.3964,-7.3303,-7.2753,-7.2753,-7.2606,-7.2496,-7.2496,-7.2496,-7.2496,-7.2496,-7.2496,-7.2496,-7.2496,-7.2496,-7.2496,-7.2496,-7.2496,-7.2753,-7.3377,-7.3597,-7.3964,-7.4625,-7.5395,-7.5909,-7.6093,-7.6717,-7.7127,-7.7273,-7.6061,-7.4976,-7.3966,-7.2962,-7.2056,-7.1312,-7.2142,-7.2056,-7.1312,-7.1312,-7.1312,-7.1312,-7.1312,-7.1312,-7.1312,-7.1312,-7.1312,-7.1312,-7.1312,-7.1312,-7.1312,-8.1093,-8.1093,-8.1093,-8.1093,-8.1093,-8.1093,-8.1093,-8.1093,-8.1093,-8.1093,-8.1093,-8.1093,-8.1093,-8.1093,-8.1093,-8.1093,-8.1093,-8.1093,-8.1093,-8.1093,-8.1093,-8.1093,-8.1093,-8.1093,-8.1093,-8.1093,-8.1093,-8.1093,-8.1093,-8.1093,-8.1093,-8.1093,-8.1093,-8.1093,-8.1093,-8.1093,-8.1093,-8.1093,-8.1093,-8.1093,-8.1093,-8.1093,-8.1093,-8.1093,-8.1093,-8.1093,-8.1093,-8.0481,-7.9578,-7.8938,-7.809,-7.7273,-7.7273,-7.7017,-7.6644,-7.624,-7.5836,-7.5432,-7.5028,-7.4918,-7.4918,-7.4918,-7.4294,-7.3927,-7.4771,-7.4001,-7.312,-7.312,-7.2789,-7.2496,-7.2496,-7.2496,-7.2496,-7.2496,-7.2496,-7.2496,-7.2496,-7.2496,-7.2496,-7.2496,-7.2496,-7.2642,-7.3046,-7.3083,-7.3413,-7.4221,-7.4625,-7.5028,-7.5469,-7.624,-7.668,-7.668,-7.7053,-7.7273,-7.7273,-7.6297,-7.5545,-7.4976,-7.4005,-7.3003,-7.2013,-7.254,-7.2236,-7.1312,-7.1312,-7.1312,-7.1312,-7.1312,-7.1312,-7.1312,-7.1312,-7.1312,-7.1312,-7.1312,-7.1312,-7.1312,-8.1093,-8.1093,-8.1093,-8.1093,-8.1093,-8.1093,-8.1093,-8.1093,-8.1093,-8.1093,-8.1093,-8.1093,-8.1093,-8.1093,-8.1093,-8.1093,-8.1093,-8.1093,-8.1093,-8.1093,-8.1093,-8.1093,-8.1093,-8.1093,-8.1093,-8.1093,-8.1093,-8.1093,-8.1093,-8.1093,-8.1093,-8.1093,-8.1093,-8.1093,-8.1093,-8.1093,-8.1093,-8.1093,-8.1093,-8.1093,-8.1093,-8.1093,-8.1093,-8.1093,-8.1093,-8.1093,-8.1093,-8.0201,-7.8972,-7.8893,-7.7963,-7.6907,-7.7053,-7.6533,-7.5909,-7.5909,-7.5322,-7.4661,-7.4551,-7.4515,-7.4515,-7.4515,-7.4001,-7.3487,-7.3487,-7.2973,-7.2496,-7.2496,-7.2496,-7.2496,-7.2496,-7.2496,-7.2496,-7.2496,-7.2496,-7.2496,-7.2496,-7.2496,-7.2496,-7.2496,-7.2606,-7.2973,-7.3634,-7.3817,-7.4258,-7.5065,-7.5726,-7.6166,-7.6313,-7.6937,-7.7273,-7.7273,-7.7273,-7.7273,-7.7273,-7.6498,-7.6061,-7.6027,-7.5227,-7.412,-7.2797,-7.3003,-7.2406,-7.1312,-7.1312,-7.1312,-7.1312,-7.1312,-7.1312,-7.1312,-7.1312,-7.1312,-7.1312,-7.1312,-7.1312,-7.1312,-8.1093,-8.1093,-8.1093,-8.1093,-8.1093,-8.1093,-8.1093,-8.1093,-8.1093,-8.1093,-8.1093,-8.1093,-8.1093,-8.1093,-8.1093,-8.1093,-8.1093,-8.1093,-8.1093,-8.1093,-8.1093,-8.1093,-8.1093,-8.1093,-8.1093,-8.1093,-8.1093,-8.1093,-8.1093,-8.1093,-8.1093,-8.1093,-8.1093,-8.1093,-8.1093,-8.1093,-8.1093,-8.1093,-8.1093,-8.1093,-8.1093,-8.1093,-8.1093,-8.1093,-8.1093,-8.1093,-8.1093,-7.9819,-7.8073,-7.7554,-7.644,-7.5359,-7.6056,-7.5726,-7.5065,-7.5065,-7.4478,-7.3707,-7.301,-7.2826,-7.2826,-7.2826,-7.2753,-7.2679,-7.2679,-7.2569,-7.2496,-7.2496,-7.2496,-7.2496,-7.2496,-7.2496,-7.2496,-7.2496,-7.2496,-7.2496,-7.2496,-7.2496,-7.2496,-7.2496,-7.312,-7.356,-7.367,-7.4331,-7.5065,-7.5873,-7.6056,-7.6423,-7.709,-7.7237,-7.7273,-7.7273,-7.7273,-7.7273,-7.7273,-7.7181,-7.7082,-7.7118,-7.6956,-7.544,-7.2838,-7.3729,-7.3084,-7.1312,-7.1312,-7.1312,-7.1312,-7.1312,-7.1312,-7.1312,-7.1312,-7.1312,-7.1312,-7.1312,-7.1312,-7.1312,-8.1093,-8.1093,-8.1093,-8.1093,-8.1093,-8.1093,-8.1093,-8.1093,-8.1093,-8.1093,-8.1093,-8.1093,-8.1093,-8.1093,-8.1093,-8.1093,-8.1093,-8.1093,-8.1093,-8.1093,-8.1093,-8.1093,-8.1093,-8.1093,-8.1093,-8.1093,-8.1093,-8.1093,-8.1093,-8.1093,-8.1093,-8.1093,-8.1093,-8.1093,-8.1093,-8.1093,-8.1093,-8.1093,-8.1093,-8.1093,-8.1093,-8.1093,-8.1093,-8.1093,-8.1093,-8.0984,-8.0179,-7.9055,-7.7847,-7.6779,-7.5764,-7.4955,-7.5322,-7.4882,-7.4221,-7.4221,-7.367,-7.2936,-7.2606,-7.2496,-7.2496,-7.2496,-7.2496,-7.2496,-7.2496,-7.2496,-7.2496,-7.2496,-7.2496,-7.2496,-7.2496,-7.2496,-7.2496,-7.2496,-7.2496,-7.2496,-7.2496,-7.2496,-7.2679,-7.312,-7.3487,-7.4037,-7.4955,-7.5359,-7.5909,-7.6717,-7.679,-7.6937,-7.7273,-7.7273,-7.7273,-7.7273,-7.7273,-7.7273,-7.7273,-7.7273,-7.7273,-7.7273,-7.7273,-7.5993,-7.365,-7.4082,-7.3206,-7.1312,-7.1312,-7.1312,-7.1312,-7.1312,-7.1312,-7.1312,-7.1312,-7.1312,-7.1312,-7.1312,-7.1312,-7.1312]},{"header":{"parameterUnit":"m.s-1","parameterCategory":1,"la1":30.6,"la2":28.766,"lo1":-90.7593,"lo2":-88.6598,"dx":0.0162,"dy":0.0183,"nx":116,"ny":114,"refTime":"2023-01-13T06:00:00:Z","depth":0,"parameterNumber":3,"parameterNumberName":"V-component_of_WINDS"},"data":[0.0,0.0,0.0,0.0,0.0,0.0,0.0,0.0,0.0,0.0,0.0,0.0,0.0,0.0,0.0,0.0,0.0,0.0,0.0,0.0,0.0,0.0,0.0,0.0,0.0,0.0,0.0,0.0,0.0,0.0,0.0,0.0,0.0,0.0,0.0,0.0,0.0,0.0,0.0,0.0,0.0,0.0,0.0,0.0,0.0,0.0,0.0,0.0,0.0,0.0,0.0,0.0,0.0,0.0,0.0,0.0,0.0,0.0,0.0,0.0,0.0,0.0,0.0,0.0,0.0,0.0,0.0,0.0,0.0,0.0,0.0,0.0,0.0,0.0,0.0,0.0,0.0,0.0,0.0,0.0,0.0,0.0,0.0,0.0,0.0,0.0,0.0,0.0,0.0,0.0,0.0,0.0,0.0,0.0,0.0,0.0,0.0,0.0,0.0,0.0,0.0,0.0,0.0,0.0,0.0,0.0,0.0,0.0,0.0,0.0,0.0,0.0,0.0,0.0,0.0,0.0,0.0,0.0,0.0,0.0,0.0,0.0,0.0,0.0,0.0,0.0,0.0,0.0,0.0,0.0,0.0,0.0,0.0,0.0,0.0,0.0,0.0,0.0,0.0,0.0,0.0,0.0,0.0,0.0,0.0,0.0,0.0,0.0,0.0,0.0,0.0,0.0,0.0,0.0,0.0,0.0,0.0,0.0,0.0,0.0,0.0,0.0,0.0,0.0,0.0,0.0,0.0,0.0,0.0,0.0,0.0,0.0,0.0,0.0,0.0,0.0,0.0,0.0,0.0,0.0,0.0,0.0,0.0,0.0,0.0,0.0,0.0,0.0,0.0,0.0,0.0,0.0,0.0,0.0,0.0,0.0,0.0,0.0,0.0,0.0,0.0,0.0,0.0,0.0,0.0,0.0,0.0,0.0,0.0,0.0,0.0,0.0,0.0,0.0,0.0,0.0,0.0,0.0,0.0,0.0,0.0,0.0,0.0,0.0,0.0,0.0,0.0,0.0,0.0,0.0,0.0,0.0,0.0,0.0,0.0,0.0,0.0,0.0,0.0,0.0,0.0,0.0,0.0,0.0,0.0,0.0,0.0,0.0,0.0,0.0,0.0,0.0,0.0,0.0,0.0,0.0,0.0,0.0,0.0,0.0,0.0,0.0,0.0,0.0,0.0,0.0,0.0,0.0,0.0,0.0,0.0,0.0,0.0,0.0,0.0,0.0,0.0,0.0,0.0,0.0,0.0,0.0,0.0,0.0,0.0,0.0,0.0,0.0,0.0,0.0,0.0,0.0,0.0,0.0,0.0,0.0,0.0,0.0,0.0,0.0,0.0,0.0,0.0,0.0,0.0,0.0,0.0,0.0,0.0,0.0,0.0,0.0,0.0,0.0,0.0,0.0,0.0,0.0,0.0,0.0,0.0,0.0,0.0,0.0,0.0,0.0,0.0,0.0,0.0,0.0,0.0,0.0,0.0,0.0,0.0,0.0,0.0,0.0,0.0,0.0,0.0,0.0,0.0,0.0,0.0,0.0,0.0,0.0,0.0,0.0,0.0,0.0,0.0,0.0,0.0,0.0,0.0,0.0,0.0,0.0,0.0,0.0,0.0,0.0,0.0,0.0,0.0,0.0,0.0,0.0,0.0,0.0,0.0,0.0,0.0,0.0,0.0,0.0,0.0,0.0,0.0,0.0,0.0,0.0,0.0,0.0,0.0,0.0,0.0,0.0,0.0,0.0,0.0,0.0,0.0,0.0,0.0,0.0,0.0,0.0,0.0,0.0,0.0,0.0,0.0,0.0,0.0,0.0,0.0,0.0,0.0,0.0,0.0,0.0,0.0,0.0,0.0,0.0,0.0,0.0,0.0,0.0,0.0,0.0,0.0,0.0,0.0,0.0,0.0,0.0,0.0,0.0,0.0,0.0,0.0,0.0,0.0,0.0,0.0,0.0,0.0,0.0,0.0,0.0,0.0,0.0,0.0,0.0,0.0,0.0,0.0,0.0,0.0,0.0,0.0,0.0,0.0,0.0,0.0,0.0,0.0,0.0,0.0,0.0,0.0,0.0,0.0,0.0,0.0,0.0,0.0,0.0,0.0,0.0,0.0,0.0,0.0,0.0,0.0,0.0,0.0,0.0,0.0,0.0,0.0,0.0,0.0,0.0,0.0,0.0,0.0,0.0,0.0,0.0,0.0,0.0,0.0,0.0,0.0,0.0,0.0,0.0,0.0,0.0,0.0,0.0,0.0,0.0,0.0,0.0,0.0,0.0,0.0,0.0,0.0,0.0,0.0,0.0,0.0,0.0,0.0,0.0,0.0,0.0,0.0,0.0,0.0,0.0,0.0,0.0,0.0,0.0,0.0,0.0,0.0,0.0,0.0,0.0,0.0,0.0,0.0,0.0,0.0,0.0,0.0,0.0,0.0,0.0,0.0,0.0,0.0,0.0,0.0,0.0,0.0,0.0,0.0,0.0,0.0,0.0,0.0,0.0,0.0,0.0,0.0,0.0,0.0,0.0,0.0,0.0,0.0,0.0,0.0,0.0,0.0,0.0,0.0,0.0,0.0,0.0,0.0,0.0,0.0,0.0,0.0,0.0,0.0,0.0,0.0,0.0,0.0,0.0,0.0,0.0,0.0,0.0,0.0,0.0,0.0,0.0,0.0,0.0,0.0,0.0,0.0,0.0,0.0,0.0,0.0,0.0,0.0,0.0,0.0,0.0,0.0,0.0,0.0,0.0,0.0,0.0,0.0,0.0,0.0,0.0,0.0,0.0,0.0,0.0,0.0,0.0,0.0,0.0,0.0,0.0,0.0,0.0,0.0,0.0,0.0,0.0,0.0,0.0,0.0,0.0,0.0,0.0,0.0,0.0,0.0,0.0,0.0,0.0,0.0,0.0,0.0,0.0,0.0,0.0,0.0,0.0,0.0,0.0,0.0,0.0,0.0,0.0,0.0,0.0,0.0,0.0,0.0,0.0,0.0,0.0,0.0,0.0,0.0,0.0,0.0,0.0,0.0,0.0,0.0,0.0,0.0,0.0,0.0,0.0,0.0,0.0,0.0,0.0,0.0,0.0,0.0,0.0,0.0,0.0,0.0,0.0,0.0,0.0,0.0,0.0,0.0,0.0,0.0,0.0,0.0,0.0,0.0,0.0,0.0,0.0,0.0,0.0,0.0,0.0,0.0,0.0,0.0,0.0,0.0,0.0,0.0,0.0,0.0,0.0,0.0,0.0,0.0,0.0,0.0,0.0,0.0,0.0,0.0,0.0,0.0,0.0,0.0,0.0,0.0,0.0,0.0,0.0,0.0,0.0,0.0,0.0,0.0,0.0,0.0,0.0,0.0,0.0,0.0,0.0,0.0,0.0,0.0,0.0,0.0,0.0,0.0,0.0,0.0,0.0,0.0,0.0,0.0,0.0,0.0,0.0,0.0,0.0,0.0,0.0,0.0,0.0,0.0,0.0,0.0,0.0,0.0,0.0,0.0,0.0,0.0,0.0,0.0,0.0,0.0,0.0,0.0,0.0,0.0,0.0,0.0,0.0,0.0,0.0,0.0,0.0,0.0,0.0,0.0,0.0,0.0,0.0,0.0,0.0,0.0,0.0,0.0,0.0,0.0,0.0,0.0,0.0,0.0,0.0,0.0,0.0,0.0,0.0,0.0,0.0,0.0,0.0,0.0,0.0,0.0,0.0,0.0,0.0,0.0,0.0,0.0,0.0,0.0,0.0,0.0,0.0,0.0,0.0,0.0,0.0,0.0,0.0,0.0,0.0,0.0,0.0,0.0,0.0,0.0,0.0,0.0,0.0,0.0,0.0,0.0,0.0,0.0,0.0,0.0,0.0,0.0,0.0,0.0,0.0,0.0,0.0,0.0,0.0,0.0,0.0,0.0,0.0,0.0,0.0,0.0,0.0,0.0,0.0,0.0,0.0,0.0,0.0,0.0,0.0,0.0,0.0,0.0,0.0,0.0,0.0,0.0,0.0,0.0,0.0,0.0,0.0,0.0,0.0,0.0,0.0,0.0,0.0,0.0,0.0,0.0,0.0,0.0,0.0,0.0,0.0,0.0,0.0,0.0,0.0,0.0,0.0,0.0,0.0,0.0,0.0,0.0,0.0,0.0,0.0,0.0,0.0,0.0,0.0,0.0,0.0,0.0,0.0,0.0,0.0,0.0,0.0,0.0,0.0,0.0,0.0,0.0,0.0,0.0,0.0,0.0,0.0,0.0,0.0,0.0,0.0,0.0,0.0,0.0,0.0,0.0,0.0,0.0,0.0,0.0,0.0,0.0,0.0,0.0,0.0,0.0,0.0,0.0,0.0,0.0,0.0,0.0,0.0,0.0,0.0,0.0,0.0,0.0,0.0,0.0,0.0,0.0,0.0,0.0,0.0,0.0,0.0,0.0,0.0,0.0,0.0,0.0,0.0,0.0,0.0,0.0,0.0,0.0,0.0,0.0,0.0,0.0,0.0,0.0,0.0,0.0,0.0,0.0,0.0,0.0,0.0,0.0,0.0,0.0,0.0,0.0,0.0,0.0,0.0,0.0,0.0,0.0,0.0,0.0,0.0,0.0,0.0,0.0,0.0,0.0,0.0,0.0,0.0,0.0,0.0,0.0,0.0,0.0,0.0,0.0,0.0,0.0,0.0,0.0,0.0,0.0,0.0,0.0,0.0,0.0,0.0,0.0,0.0,0.0,0.0,0.0,0.0,0.0,0.0,0.0,0.0,0.0,0.0,0.0,0.0,0.0,0.0,0.0,0.0,0.0,0.0,0.0,0.0,0.0,0.0,0.0,0.0,0.0,0.0,0.0,0.0,0.0,0.0,0.0,0.0,0.0,0.0,0.0,0.0,0.0,0.0,0.0,0.0,0.0,0.0,0.0,0.0,0.0,0.0,0.0,0.0,0.0,0.0,0.0,0.0,0.0,0.0,0.0,0.0,0.0,0.0,0.0,0.0,0.0,0.0,0.0,0.0,0.0,0.0,0.0,0.0,0.0,0.0,0.0,0.0,0.0,0.0,0.0,0.0,0.0,0.0,0.0,0.0,0.0,0.0,0.0,0.0,0.0,0.0,0.0,0.0,0.0,0.0,0.0,0.0,0.0,0.0,0.0,0.0,0.0,0.0,0.0,0.0,0.0,0.0,0.0,0.0,0.0,0.0,0.0,0.0,0.0,0.0,0.0,0.0,0.0,0.0,0.0,0.0,0.0,0.0,0.0,0.0,0.0,0.0,0.0,0.0,0.0,0.0,0.0,0.0,0.0,0.0,0.0,0.0,0.0,0.0,0.0,0.0,0.0,0.0,0.0,0.0,0.0,0.0,0.0,0.0,0.0,0.0,0.0,0.0,0.0,0.0,0.0,0.0,0.0,0.0,0.0,0.0,0.0,0.0,0.0,0.0,0.0,0.0,0.0,0.0,0.0,0.0,0.0,0.0,0.0,0.0,0.0,0.0,0.0,0.0,0.0,0.0,0.0,0.0,0.0,0.0,0.0,0.0,0.0,0.0,0.0,0.0,0.0,0.0,0.0,0.0,0.0,0.0,0.0,0.0,0.0,0.0,0.0,0.0,0.0,0.0,0.0,0.0,0.0,0.0,0.0,0.0,0.0,0.0,0.0,0.0,0.0,0.0,0.0,0.0,0.0,0.0,0.0,0.0,0.0,0.0,0.0,0.0,0.0,0.0,0.0,0.0,0.0,0.0,0.0,0.0,0.0,0.0,0.0,0.0,0.0,0.0,0.0,0.0,0.0,0.0,0.0,0.0,0.0,0.0,0.0,0.0,0.0,0.0,0.0,0.0,0.0,0.0,0.0,0.0,0.0,0.0,0.0,0.0,0.0,0.0,0.0,0.0,0.0,0.0,0.0,0.0,0.0,0.0,0.0,0.0,0.0,0.0,0.0,0.0,0.0,0.0,0.0,0.0,0.0,0.0,0.0,0.0,0.0,0.0,0.0,0.0,0.0,0.0,0.0,0.0,0.0,0.0,0.0,0.0,0.0,0.0,0.0,0.0,0.0,0.0,0.0,0.0,0.0,0.0,0.0,0.0,0.0,0.0,0.0,0.0,0.0,0.0,0.0,0.0,0.0,0.0,0.0,0.0,0.0,0.0,-2.7754,-2.6738,0.0,0.0,0.0,0.0,0.0,0.0,0.0,0.0,0.0,0.0,0.0,0.0,0.0,0.0,0.0,0.0,0.0,0.0,0.0,0.0,0.0,0.0,0.0,0.0,0.0,0.0,0.0,0.0,0.0,0.0,0.0,0.0,0.0,0.0,0.0,0.0,0.0,0.0,0.0,0.0,0.0,0.0,0.0,0.0,0.0,0.0,0.0,0.0,0.0,0.0,0.0,0.0,0.0,0.0,0.0,0.0,0.0,0.0,0.0,0.0,0.0,0.0,0.0,0.0,0.0,0.0,0.0,0.0,0.0,0.0,0.0,0.0,0.0,0.0,0.0,0.0,0.0,0.0,0.0,0.0,0.0,0.0,0.0,0.0,0.0,0.0,0.0,0.0,0.0,0.0,0.0,0.0,0.0,0.0,0.0,0.0,0.0,0.0,0.0,0.0,0.0,0.0,0.0,0.0,0.0,0.0,0.0,0.0,0.0,0.0,0.0,0.0,0.0,0.0,-2.8301,-2.7871,0.0,0.0,0.0,0.0,0.0,0.0,0.0,0.0,0.0,0.0,0.0,0.0,0.0,0.0,0.0,0.0,0.0,0.0,0.0,0.0,0.0,0.0,0.0,0.0,0.0,0.0,0.0,0.0,0.0,0.0,0.0,0.0,0.0,0.0,0.0,0.0,0.0,0.0,0.0,0.0,0.0,0.0,0.0,0.0,0.0,0.0,0.0,0.0,0.0,0.0,0.0,0.0,0.0,0.0,0.0,0.0,0.0,0.0,0.0,0.0,0.0,0.0,0.0,0.0,0.0,0.0,0.0,0.0,0.0,0.0,0.0,0.0,0.0,0.0,0.0,0.0,0.0,0.0,0.0,0.0,0.0,0.0,0.0,0.0,0.0,0.0,0.0,0.0,0.0,0.0,0.0,0.0,0.0,0.0,0.0,0.0,0.0,0.0,0.0,0.0,0.0,0.0,0.0,0.0,0.0,0.0,0.0,0.0,-2.8867,-2.8926,-2.9258,-2.8906,-2.8926,-2.9238,-2.8809,-2.8984,-2.9548,-2.8491,0.0,0.0,0.0,0.0,0.0,0.0,0.0,0.0,0.0,0.0,0.0,0.0,0.0,0.0,0.0,0.0,0.0,0.0,0.0,0.0,0.0,0.0,0.0,0.0,0.0,0.0,0.0,0.0,0.0,0.0,0.0,0.0,0.0,0.0,0.0,0.0,0.0,0.0,0.0,0.0,0.0,0.0,0.0,0.0,0.0,0.0,0.0,0.0,0.0,0.0,0.0,0.0,0.0,0.0,0.0,0.0,0.0,0.0,0.0,0.0,0.0,0.0,0.0,0.0,0.0,0.0,0.0,0.0,0.0,0.0,0.0,0.0,0.0,0.0,0.0,0.0,0.0,0.0,0.0,0.0,0.0,0.0,0.0,0.0,0.0,0.0,-2.6137,-2.655,0.0,0.0,0.0,0.0,0.0,0.0,0.0,0.0,0.0,0.0,0.0,0.0,0.0,-2.8418,-2.8828,-2.9219,-2.9609,-3.0039,-3.0391,-3.0586,-3.0625,-3.0566,-3.0586,-3.0605,-3.0137,0.0,-2.9607,-2.945,0.0,0.0,0.0,0.0,0.0,0.0,0.0,0.0,0.0,0.0,0.0,0.0,0.0,0.0,0.0,0.0,0.0,0.0,0.0,0.0,0.0,0.0,0.0,0.0,0.0,0.0,0.0,0.0,0.0,0.0,0.0,0.0,0.0,0.0,0.0,0.0,0.0,0.0,0.0,0.0,0.0,0.0,0.0,0.0,0.0,0.0,0.0,0.0,0.0,0.0,0.0,0.0,0.0,0.0,0.0,0.0,0.0,0.0,0.0,0.0,0.0,0.0,0.0,0.0,0.0,0.0,0.0,0.0,0.0,0.0,0.0,0.0,0.0,0.0,0.0,0.0,0.0,0.0,0.0,0.0,0.0,0.0,0.0,0.0,0.0,-2.3375,-2.4579,-2.4501,-2.3607,-2.2569,0.0,0.0,0.0,0.0,0.0,0.0,0.0,0.0,0.0,-2.8146,-2.8966,-2.957,-3.0019,-3.0215,-3.041,-3.0586,-3.0801,-3.0898,-3.0898,-3.0898,-3.0898,-3.0879,-3.0684,-3.0488,-3.0293,-3.0019,-2.9805,-2.9609,0.0,0.0,0.0,0.0,-2.9121,-2.9316,0.0,0.0,0.0,0.0,0.0,0.0,0.0,0.0,0.0,0.0,0.0,0.0,0.0,0.0,0.0,0.0,0.0,0.0,0.0,0.0,0.0,0.0,0.0,0.0,0.0,0.0,0.0,0.0,0.0,0.0,0.0,0.0,0.0,0.0,0.0,0.0,0.0,0.0,0.0,0.0,0.0,0.0,0.0,0.0,0.0,0.0,0.0,0.0,0.0,0.0,0.0,0.0,0.0,0.0,0.0,0.0,0.0,0.0,0.0,0.0,0.0,0.0,0.0,0.0,0.0,0.0,0.0,0.0,0.0,0.0,0.0,0.0,0.0,0.0,0.0,0.0,0.0,-2.295,-2.3881,-2.3374,-2.3446,-2.2987,0.0,0.0,0.0,0.0,0.0,0.0,-2.6965,-2.7691,-2.8288,-2.8695,-2.9834,-3.0586,-3.1055,-3.1055,-3.1113,-3.1211,-3.1328,-3.1387,-3.1387,-3.1484,-3.1543,-3.1543,-3.1543,-3.1543,-3.1484,-3.0703,-3.0371,-3.0371,-3.0234,-3.0,-2.9726,-2.9726,-2.9805,-2.9922,0.0,0.0,0.0,0.0,0.0,0.0,0.0,0.0,0.0,0.0,0.0,0.0,0.0,0.0,0.0,0.0,0.0,0.0,0.0,0.0,0.0,0.0,0.0,0.0,0.0,0.0,0.0,0.0,0.0,0.0,0.0,0.0,0.0,0.0,0.0,0.0,0.0,0.0,0.0,0.0,0.0,0.0,0.0,0.0,0.0,0.0,0.0,0.0,0.0,0.0,0.0,0.0,0.0,0.0,0.0,0.0,0.0,0.0,0.0,0.0,0.0,0.0,0.0,0.0,0.0,0.0,0.0,0.0,0.0,0.0,0.0,0.0,0.0,0.0,0.0,0.0,0.0,0.0,0.0,-2.5518,-2.7019,0.0,0.0,0.0,0.0,-2.5053,-2.6399,-2.7398,-2.7875,-2.926,-3.0256,-3.0723,-3.0859,-3.1055,-3.1484,-3.1484,-3.1699,-3.2109,-3.25,-3.2695,-3.2715,-3.3105,-3.3301,-3.3301,-3.3301,-3.3301,-3.3164,-3.1523,-3.0859,-3.082,-3.0371,-3.0176,-3.0156,-3.0156,-3.0449,-3.0879,0.0,0.0,0.0,0.0,0.0,0.0,0.0,0.0,0.0,0.0,0.0,0.0,0.0,0.0,0.0,0.0,0.0,0.0,0.0,0.0,0.0,0.0,0.0,0.0,0.0,0.0,0.0,0.0,0.0,0.0,0.0,0.0,0.0,0.0,0.0,0.0,0.0,0.0,0.0,0.0,0.0,0.0,0.0,0.0,0.0,0.0,0.0,0.0,0.0,0.0,0.0,0.0,0.0,0.0,0.0,0.0,0.0,0.0,0.0,0.0,0.0,0.0,0.0,0.0,0.0,0.0,0.0,0.0,0.0,0.0,0.0,0.0,0.0,0.0,0.0,0.0,0.0,0.0,0.0,-2.4272,-2.6465,0.0,-2.4275,-2.5932,-2.7117,-2.6976,-2.8584,-2.9813,-3.0232,-3.0741,-3.125,-3.1699,-3.1719,-3.1914,-3.2344,-3.2344,-3.2559,-3.2969,-3.3125,-3.3203,-3.3203,-3.3359,-3.3418,-3.3418,-3.3418,-3.3418,-3.3379,-3.2773,-3.2519,-3.25,-3.2344,-3.2266,-3.2266,-3.2266,-3.2383,-3.2539,0.0,0.0,0.0,0.0,0.0,0.0,0.0,0.0,0.0,0.0,0.0,0.0,0.0,0.0,0.0,0.0,0.0,0.0,0.0,0.0,0.0,0.0,0.0,0.0,0.0,0.0,0.0,0.0,0.0,0.0,0.0,0.0,0.0,0.0,0.0,0.0,0.0,0.0,0.0,0.0,0.0,0.0,-1.5217,0.0,0.0,0.0,0.0,0.0,0.0,0.0,0.0,0.0,0.0,0.0,0.0,0.0,0.0,0.0,0.0,0.0,0.0,0.0,0.0,0.0,0.0,0.0,0.0,0.0,0.0,0.0,0.0,0.0,0.0,0.0,0.0,0.0,0.0,-2.4308,-2.5015,-2.2564,-2.5734,-2.7068,-2.4311,-2.719,-2.8972,-2.8364,-3.0211,-3.1188,-3.0838,-3.1419,-3.1875,-3.2209,-3.2305,-3.2578,-3.3008,-3.3144,-3.3437,-3.3848,-3.4004,-3.4082,-3.4101,-3.4238,-3.4297,-3.4297,-3.4297,-3.4297,-3.4297,-3.4297,-3.4297,-3.4238,-3.3652,-3.3418,-3.3418,-3.3418,-3.3516,-3.3672,0.0,0.0,0.0,0.0,0.0,0.0,0.0,0.0,0.0,0.0,0.0,0.0,0.0,0.0,0.0,0.0,0.0,0.0,0.0,0.0,0.0,0.0,0.0,0.0,0.0,0.0,0.0,0.0,0.0,0.0,0.0,0.0,0.0,0.0,0.0,0.0,0.0,0.0,0.0,0.0,0.0,0.0,-1.6607,0.0,0.0,0.0,0.0,0.0,0.0,0.0,0.0,0.0,0.0,0.0,0.0,0.0,0.0,0.0,0.0,0.0,0.0,0.0,0.0,0.0,0.0,0.0,0.0,0.0,0.0,0.0,0.0,0.0,0.0,0.0,0.0,0.0,-2.2617,-2.2992,-2.2669,-2.1067,-2.5363,-2.7829,-2.62,-2.9305,-3.0727,-2.8979,-3.0846,-3.1336,-2.9617,-3.1233,-3.2207,-3.2287,-3.2637,-3.3066,-3.3476,-3.3906,-3.4316,-3.4746,-3.5195,-3.541,-3.543,-3.584,-3.6016,-3.6016,-3.6016,-3.6016,-3.6016,-3.6016,-3.6016,-3.5859,-3.416,-3.3496,-3.3496,-3.3496,-3.3769,-3.4199,0.0,0.0,0.0,0.0,0.0,0.0,0.0,0.0,0.0,0.0,0.0,0.0,0.0,0.0,0.0,0.0,0.0,0.0,0.0,0.0,0.0,0.0,0.0,0.0,0.0,0.0,0.0,0.0,0.0,0.0,0.0,0.0,0.0,0.0,0.0,0.0,0.0,0.0,0.0,0.0,0.0,0.0,-1.7301,0.0,0.0,0.0,0.0,0.0,0.0,0.0,0.0,0.0,0.0,0.0,0.0,0.0,0.0,0.0,0.0,0.0,0.0,0.0,0.0,0.0,0.0,0.0,0.0,0.0,0.0,0.0,0.0,0.0,0.0,0.0,-2.2111,-2.1526,-2.281,-2.5033,-2.6133,-2.5121,-2.8346,-2.9651,-2.7073,-2.8747,-2.9313,-2.757,-2.9173,-3.0178,-3.0014,-3.1935,-3.3223,-3.3535,-3.3965,-3.4394,-3.4844,-3.498,-3.5234,-3.5664,-3.5781,-3.5859,-3.5859,-3.5976,-3.6016,-3.6016,-3.6016,-3.6016,-3.6016,-3.6016,-3.6016,-3.5976,-3.5488,-3.5312,-3.5312,-3.5312,-3.5391,-3.5508,0.0,0.0,0.0,0.0,0.0,0.0,0.0,0.0,0.0,0.0,0.0,0.0,0.0,0.0,0.0,0.0,0.0,0.0,0.0,0.0,0.0,0.0,0.0,0.0,0.0,0.0,0.0,0.0,0.0,0.0,0.0,0.0,0.0,0.0,0.0,0.0,0.0,0.0,0.0,0.0,0.0,0.0,-1.8116,-1.7876,-1.7595,-1.7326,-1.686,-1.682,-1.7015,-1.7295,0.0,0.0,0.0,0.0,0.0,0.0,0.0,0.0,0.0,0.0,0.0,0.0,0.0,0.0,0.0,0.0,0.0,0.0,0.0,0.0,0.0,0.0,0.0,0.0,-2.2147,-2.1121,-2.229,-2.4024,-2.5272,-2.5485,-2.7283,-2.7843,-2.612,-2.7604,-2.7942,-2.6166,-2.8523,-2.9949,-2.963,-3.2222,-3.3887,-3.4316,-3.4766,-3.5117,-3.5391,-3.5566,-3.5781,-3.6016,-3.6016,-3.6016,-3.6016,-3.6016,-3.6016,-3.6016,-3.6016,-3.6016,-3.6016,-3.6016,-3.6016,-3.6016,0.0,0.0,0.0,0.0,-3.6016,-3.6016,0.0,0.0,0.0,0.0,0.0,0.0,0.0,0.0,0.0,0.0,0.0,0.0,0.0,0.0,0.0,0.0,0.0,0.0,0.0,0.0,0.0,0.0,0.0,0.0,0.0,0.0,0.0,0.0,0.0,0.0,0.0,0.0,0.0,0.0,0.0,0.0,0.0,0.0,0.0,0.0,0.0,0.0,-1.9011,-1.8435,-1.8225,-1.8129,-1.7599,-1.7408,-1.7548,-1.8844,0.0,0.0,0.0,0.0,0.0,0.0,0.0,0.0,0.0,0.0,0.0,0.0,0.0,0.0,0.0,0.0,0.0,0.0,0.0,0.0,0.0,0.0,0.0,0.0,-2.1577,-2.1137,-2.2034,-2.1862,-2.2277,-2.3917,-2.4475,-2.467,-2.452,-2.621,-2.6579,-2.4834,-2.8325,-3.0075,-2.8876,-3.2282,0.0,0.0,0.0,-3.5469,-3.5469,-3.584,-3.6016,-3.6016,-3.6016,-3.6016,-3.6016,-3.6016,-3.6016,-3.6016,-3.6016,-3.6016,-3.6016,-3.6016,-3.6055,-3.6094,-3.6035,-3.6016,-3.6035,-3.6074,-3.6094,-3.6094,0.0,0.0,0.0,0.0,0.0,0.0,0.0,0.0,0.0,0.0,0.0,0.0,0.0,0.0,0.0,0.0,0.0,0.0,0.0,0.0,0.0,0.0,0.0,0.0,0.0,0.0,0.0,0.0,0.0,0.0,0.0,0.0,0.0,0.0,0.0,0.0,0.0,0.0,0.0,0.0,0.0,0.0,-1.9973,-1.9794,-2.0586,-2.1714,-2.1596,-2.1552,-2.1565,-2.1553,-2.0583,-1.9359,-1.9738,0.0,0.0,0.0,0.0,0.0,0.0,0.0,0.0,0.0,0.0,0.0,0.0,0.0,0.0,0.0,0.0,0.0,0.0,0.0,0.0,-2.2734,-2.2145,-2.2348,-2.5078,-2.3595,-2.2896,-2.4648,-2.6064,-2.6466,-2.536,-2.565,-2.5159,-2.3447,-2.6925,-2.9094,-2.8826,-3.2836,-3.5176,-3.5254,-3.5684,-3.5898,-3.5898,-3.5976,-3.6016,-3.6016,-3.6016,0.0,-3.6016,-3.6016,-3.6016,-3.6016,-3.6016,-3.6016,-3.6016,-3.6016,-3.623,-3.6504,-3.6152,-3.6016,-3.6055,-3.6426,-3.6543,-3.6601,0.0,0.0,0.0,0.0,0.0,0.0,0.0,0.0,0.0,0.0,0.0,0.0,0.0,0.0,0.0,0.0,0.0,0.0,0.0,0.0,0.0,0.0,0.0,0.0,0.0,0.0,0.0,0.0,0.0,0.0,0.0,0.0,0.0,0.0,0.0,0.0,0.0,0.0,0.0,0.0,0.0,0.0,-2.0641,-2.0286,-2.0698,-2.1466,-2.1466,-2.1466,-2.1678,-2.3068,-2.2898,-2.2427,-2.4024,-2.3213,-2.1639,0.0,0.0,0.0,0.0,0.0,0.0,0.0,0.0,0.0,0.0,0.0,0.0,0.0,0.0,-2.0409,0.0,0.0,-2.1266,-2.2936,-2.2321,-2.2277,-2.4163,-2.3266,-2.3075,-2.4775,-2.5107,-2.4937,-2.4235,-2.4337,-2.4038,-2.3169,-2.674,-2.9106,-2.9373,-3.3206,-3.5488,-3.5703,-3.5918,-3.6016,-3.6016,-3.623,-3.6348,-3.6348,-3.6562,-3.6543,-3.6348,-3.6562,-3.6543,-3.6348,-3.6562,-3.666,-3.666,-3.666,-3.6797,-3.6953,-3.6738,-3.666,-3.668,-3.6894,-3.6992,-3.7012,0.0,0.0,0.0,0.0,0.0,0.0,0.0,0.0,0.0,0.0,0.0,0.0,0.0,0.0,0.0,0.0,0.0,0.0,0.0,0.0,0.0,0.0,0.0,0.0,0.0,0.0,0.0,0.0,0.0,0.0,0.0,0.0,0.0,0.0,0.0,0.0,0.0,0.0,0.0,0.0,0.0,0.0,-2.1483,-2.0698,-2.0754,-2.1348,-2.1348,-2.1488,-2.2033,-2.4327,-2.4825,-2.491,-2.7204,-2.6071,-2.3757,-2.3175,-2.1581,0.0,0.0,0.0,0.0,0.0,0.0,0.0,0.0,0.0,-2.0395,-2.0815,-2.0584,-2.0781,-2.21,-2.1575,-2.1456,-2.2869,-2.242,-2.2058,-2.2525,-2.2645,-2.3147,-2.4535,-2.3706,-2.2953,-2.2953,-2.3233,-2.3407,-2.3407,-2.7093,-2.9537,-2.9904,-3.3502,-3.5664,-3.6016,-3.6016,-3.6055,-3.6152,-3.6484,-3.6719,-3.6797,-3.7148,-3.7129,-3.6797,-3.7148,-3.7109,-3.6816,-3.7148,-3.7305,-3.7305,-3.7383,-3.7422,-3.7422,-3.7519,-3.7539,-3.7539,-3.7461,-3.7422,-3.7422,0.0,0.0,0.0,0.0,0.0,0.0,0.0,0.0,0.0,0.0,0.0,0.0,0.0,0.0,0.0,0.0,0.0,0.0,0.0,0.0,0.0,0.0,0.0,0.0,0.0,0.0,0.0,0.0,0.0,0.0,0.0,0.0,0.0,0.0,0.0,0.0,0.0,0.0,0.0,0.0,0.0,0.0,-2.3139,-2.1595,-2.2835,-2.5368,-2.5368,-2.6014,-2.6818,-2.6114,-2.463,-2.3005,-2.2267,-2.1777,-2.1444,-2.1115,0.0,-2.0454,0.0,0.0,0.0,-1.984,-2.0013,-2.0618,0.0,0.0,-2.1128,-2.2853,-2.2054,-2.1159,-2.1605,-2.1773,-2.2003,-2.2418,-2.282,-2.3153,-2.322,-2.346,-2.3691,-2.389,-2.3547,-2.3273,-2.3273,-2.3541,-2.3728,-2.3728,-2.7516,-2.9871,-2.9921,-3.3761,-3.5976,-3.6016,-3.6016,-3.6211,-3.6601,-3.6641,-3.6855,-3.7226,-3.7266,-3.7266,-3.7226,-3.7266,-3.7266,-3.7226,-3.7266,-3.7305,-3.7324,-3.7695,-3.7851,-3.7891,-3.8281,-3.8437,-3.8379,-3.8008,-3.7851,-3.791,0.0,0.0,0.0,0.0,0.0,0.0,0.0,0.0,0.0,0.0,0.0,0.0,0.0,0.0,0.0,0.0,0.0,0.0,0.0,0.0,0.0,0.0,0.0,0.0,0.0,0.0,0.0,0.0,0.0,0.0,0.0,0.0,0.0,0.0,0.0,0.0,0.0,0.0,0.0,0.0,0.0,0.0,-2.2153,-2.2466,-2.3387,-2.4455,-2.3335,-2.3246,0.0,0.0,-2.5152,-2.4667,-2.6308,-2.5368,-2.3658,-2.3581,-2.2037,0.0,-2.0334,0.0,0.0,0.0,-2.0655,-2.1238,-2.3263,-2.2553,-2.197,-2.3794,-2.2815,-2.171,-2.2004,-2.2151,-2.2392,0.0,-2.3166,-2.338,-2.3554,-2.3688,-2.3768,-2.3768,-2.3808,-2.3768,-2.3607,-2.3848,-2.4022,-2.4022,-2.6816,-2.8482,-2.8482,-3.2228,-3.4477,-3.4719,-3.5816,-3.6601,-3.7031,-3.7285,-3.748,-3.7676,-3.793,-3.791,-3.7676,-3.793,-3.8047,-3.8047,-3.8047,-3.8047,-3.8047,-3.8223,-3.8301,-3.832,-3.8496,-3.8574,-3.8555,-3.8359,-3.8301,-3.832,0.0,0.0,0.0,0.0,0.0,0.0,0.0,0.0,0.0,0.0,0.0,0.0,0.0,0.0,0.0,0.0,0.0,0.0,0.0,0.0,0.0,0.0,0.0,0.0,0.0,0.0,0.0,0.0,0.0,0.0,0.0,0.0,0.0,0.0,0.0,0.0,0.0,0.0,0.0,0.0,0.0,0.0,-2.1915,-2.3139,-2.3514,-2.3348,-2.2375,-2.2245,0.0,0.0,-2.5284,-2.5562,-2.7858,-2.6473,-2.4042,-2.4118,-2.2228,-2.0174,-2.0468,0.0,0.0,-2.0975,-2.1229,-2.1723,-2.3249,-2.2781,-2.2372,-2.3638,-2.2883,-2.2098,-2.2472,-2.2605,-2.2873,-2.3474,-2.3634,-2.3768,-2.3981,-2.4008,-2.4008,-2.4008,-2.4195,-2.4235,-2.4035,-2.4195,-2.4329,-2.4329,-2.63,-2.7753,-2.8408,-3.1557,-3.3793,-3.4778,-3.6099,-3.7051,-3.7461,-3.7773,-3.7988,-3.8105,-3.8418,-3.8418,-3.8105,-3.8437,-3.8574,-3.8574,-3.8574,-3.8574,-3.8574,-3.8574,-3.8574,-3.8574,-3.8574,-3.8574,-3.8594,-3.8711,-3.8672,-3.8574,0.0,0.0,0.0,0.0,0.0,0.0,0.0,0.0,0.0,0.0,0.0,0.0,0.0,0.0,0.0,0.0,0.0,0.0,0.0,0.0,0.0,0.0,0.0,0.0,0.0,0.0,0.0,0.0,0.0,0.0,0.0,0.0,0.0,0.0,0.0,0.0,0.0,0.0,0.0,0.0,0.0,0.0,-2.3512,-2.3574,-2.338,-2.3323,-2.4919,0.0,0.0,0.0,-2.4639,-2.4122,-2.3104,-2.1675,0.0,-2.0362,-2.01,0.0,0.0,0.0,-2.0735,-2.1029,-2.1537,-2.1964,-2.203,-2.2043,-2.2057,-2.2057,-2.2043,-2.2164,-2.2807,-2.31,-2.3487,-2.4088,-2.4409,-2.4522,-2.4609,-2.4609,-2.4609,-2.4609,-2.4549,-2.4549,-2.4609,-2.4549,-2.4623,-2.4623,-2.643,-2.8496,-3.0749,-3.2718,-3.4867,-3.7125,-3.7285,-3.748,-3.791,-3.791,-3.8144,-3.8555,-3.8574,-3.8574,-3.8555,-3.8574,-3.8574,-3.8574,-3.8574,-3.8574,-3.8574,-3.8574,-3.8574,-3.8574,-3.8574,-3.8574,-3.8633,-3.9023,-3.8926,-3.8574,0.0,0.0,0.0,0.0,0.0,0.0,0.0,0.0,0.0,0.0,0.0,0.0,0.0,0.0,0.0,0.0,0.0,0.0,0.0,0.0,0.0,0.0,0.0,0.0,0.0,0.0,0.0,0.0,0.0,0.0,0.0,0.0,0.0,0.0,0.0,0.0,0.0,0.0,0.0,0.0,0.0,0.0,-2.3245,-2.4311,-2.3867,-2.2901,0.0,0.0,0.0,0.0,0.0,0.0,-2.3922,0.0,0.0,-2.0232,0.0,0.0,0.0,0.0,-2.1082,-2.1563,-2.1977,-2.2605,-2.3771,-2.3276,-2.3025,-2.4342,-2.34,-2.2512,-2.3313,-2.322,-2.3273,-2.4075,-2.4289,-2.4422,-2.4609,-2.4636,-2.4636,-2.4636,-2.4636,0.0,-2.4636,-2.4636,-2.4636,-2.4636,-2.539,-2.6862,-2.8981,-3.1085,-3.3279,-3.5754,-3.7033,-3.791,-3.8359,-3.8633,-3.8848,-3.9004,-3.9297,-3.9297,-3.8984,-3.8984,-3.8828,-3.8574,-3.8574,-3.873,-3.8984,-3.8984,-3.918,-3.9453,-3.9453,-3.9453,-3.9473,-3.9609,-3.957,-3.9453,0.0,0.0,0.0,0.0,0.0,0.0,0.0,0.0,0.0,0.0,0.0,0.0,0.0,0.0,0.0,0.0,0.0,0.0,0.0,0.0,0.0,0.0,0.0,0.0,0.0,0.0,0.0,0.0,0.0,0.0,0.0,0.0,0.0,0.0,0.0,0.0,0.0,0.0,0.0,0.0,0.0,0.0,-2.2288,-2.3758,-2.3154,0.0,0.0,0.0,0.0,0.0,0.0,0.0,0.0,0.0,0.0,0.0,0.0,0.0,0.0,-2.1269,-2.1537,-2.2017,-2.2365,-2.2903,-2.4032,-2.3678,-2.3418,-2.4758,-2.3804,-2.2953,-2.3647,-2.3367,-2.3287,-2.4075,-2.4209,-2.4302,-2.4596,-2.4636,-2.4636,-2.4636,-2.4636,-2.4636,0.0,-2.4636,-2.4676,-2.4783,-2.5629,-2.7138,-2.9338,-3.1539,-3.3828,-3.6254,-3.7547,-3.8359,-3.8789,-3.9062,-3.9277,-3.9453,-3.9746,-3.9746,-3.9453,-3.9453,-3.9297,-3.9043,-3.9043,-3.9199,-3.9453,-3.9453,-3.9629,-3.9902,-3.9902,-3.9902,-3.9922,-4.0059,-4.0117,-4.0098,0.0,0.0,0.0,0.0,0.0,0.0,0.0,0.0,0.0,0.0,0.0,0.0,0.0,0.0,0.0,0.0,0.0,0.0,0.0,0.0,0.0,0.0,0.0,0.0,0.0,0.0,0.0,0.0,0.0,0.0,0.0,0.0,0.0,0.0,0.0,0.0,0.0,0.0,0.0,0.0,0.0,0.0,-2.0896,-2.2153,0.0,0.0,0.0,0.0,0.0,0.0,0.0,0.0,0.0,0.0,0.0,0.0,0.0,-2.055,-2.1141,-2.1706,-2.2203,-2.2499,-2.2727,-2.2886,-2.2886,-2.3113,-2.3327,-2.3327,-2.3287,-2.3354,0.0,0.0,-2.35,-2.4088,-2.4222,-2.4342,-2.4636,-2.4676,-2.4676,0.0,0.0,0.0,0.0,0.0,-2.4783,-2.5077,-2.6918,-2.9159,-3.1836,-3.3909,-3.6108,-3.8521,-3.8613,-3.8809,-3.9238,-3.9258,-3.9492,-3.9961,-3.9961,-3.9961,-3.9961,-3.9941,-3.9922,-3.9922,-3.9902,-3.9902,-3.9922,-3.9922,-3.9941,-3.9961,-3.9961,-3.9961,-4.0019,-4.041,-4.0566,-4.0508,0.0,0.0,0.0,0.0,0.0,0.0,0.0,0.0,0.0,0.0,0.0,0.0,0.0,0.0,0.0,0.0,0.0,0.0,0.0,0.0,0.0,0.0,0.0,0.0,0.0,0.0,0.0,0.0,0.0,0.0,0.0,0.0,0.0,0.0,0.0,0.0,0.0,0.0,0.0,0.0,0.0,0.0,-2.1744,0.0,0.0,0.0,0.0,0.0,0.0,0.0,0.0,0.0,0.0,0.0,-2.0876,0.0,0.0,-2.3325,-2.3904,-2.4196,-2.44,-2.4654,-2.3981,-2.3207,-2.3207,-2.3273,-2.3327,-2.3327,-2.2792,-2.2418,0.0,0.0,0.0,-2.3781,-2.4422,0.0,-2.5251,-2.5291,0.0,-2.4997,0.0,-2.4877,-2.4589,-2.4836,-2.509,-2.5384,-2.584,-2.7859,-3.1778,-3.2735,-3.4954,-3.895,-3.9043,-3.9258,-3.9726,-4.0039,-4.041,-4.084,-4.084,-4.084,-4.084,-4.0508,-4.0371,-4.0351,-4.0039,-4.0078,-4.0371,-4.0371,-4.0547,-4.084,-4.084,-4.084,-4.0859,-4.0976,-4.1016,-4.0996,0.0,0.0,0.0,0.0,0.0,0.0,0.0,0.0,0.0,0.0,0.0,0.0,0.0,0.0,0.0,0.0,0.0,0.0,0.0,0.0,0.0,0.0,0.0,0.0,0.0,0.0,0.0,0.0,0.0,0.0,0.0,0.0,0.0,0.0,0.0,0.0,0.0,0.0,0.0,0.0,0.0,0.0,0.0,0.0,0.0,0.0,0.0,0.0,0.0,0.0,0.0,-2.2613,-2.4854,-2.3975,-2.2591,-2.5466,0.0,-2.4509,-2.4955,-2.4613,-2.4171,-2.4342,-2.3832,-2.326,-2.2993,-2.314,-2.3247,-2.2979,-2.2525,0.0,-2.2913,0.0,0.0,0.0,0.0,0.0,-2.5478,-2.5518,-2.5451,0.0,-2.5277,0.0,-2.5224,-2.5371,-2.5638,-2.6052,-2.6675,-2.8667,-3.233,-3.3551,-3.5757,-3.9417,-3.9512,-3.9726,-4.0176,-4.0586,-4.0937,-4.1172,-4.1367,-4.1445,-4.1445,-4.1191,-4.1094,-4.1055,-4.0644,-4.0586,-4.0801,-4.0801,-4.0957,-4.1172,-4.1172,-4.1172,-4.1172,-4.1172,-4.1172,-4.1172,0.0,0.0,0.0,0.0,0.0,0.0,0.0,0.0,0.0,0.0,0.0,0.0,0.0,0.0,0.0,0.0,0.0,0.0,0.0,0.0,0.0,0.0,0.0,0.0,0.0,0.0,0.0,0.0,0.0,0.0,0.0,0.0,0.0,0.0,0.0,0.0,0.0,0.0,0.0,0.0,0.0,0.0,0.0,0.0,0.0,0.0,0.0,0.0,0.0,0.0,-2.5485,-2.3526,-2.6121,-2.5672,-2.4922,-2.8383,-2.7364,-2.5115,-2.5141,-2.4252,-2.3256,-2.3256,-2.3334,-2.322,-2.2619,-2.2913,-2.314,-2.2498,0.0,-2.2552,-2.338,-2.342,-2.3688,-2.4783,0.0,-2.5277,-2.5531,-2.5598,-2.5611,-2.5571,-2.5598,-2.5718,-2.601,-2.6026,-2.6279,-2.6787,-2.831,-3.0392,-3.2989,-3.4887,-3.7102,-3.9885,-4.0039,-4.0234,-4.0605,-4.0976,-4.1172,-4.1172,-4.1601,-4.1836,-4.1875,-4.1816,-4.1836,-4.1855,-4.1387,-4.1172,-4.1172,-4.1172,-4.1172,-4.1172,-4.1172,-4.1172,-4.1172,-4.1172,-4.1172,-4.1172,0.0,0.0,0.0,0.0,0.0,0.0,0.0,0.0,0.0,0.0,0.0,0.0,0.0,0.0,0.0,0.0,0.0,0.0,0.0,0.0,0.0,0.0,0.0,0.0,0.0,0.0,0.0,0.0,0.0,0.0,0.0,0.0,0.0,0.0,0.0,0.0,0.0,0.0,0.0,0.0,0.0,0.0,0.0,0.0,0.0,0.0,0.0,0.0,0.0,0.0,-2.7102,-2.68,-2.9661,-2.8719,-2.6739,-2.7596,-2.7751,-2.7276,-2.5814,-2.5204,-2.5046,-2.5046,-2.4358,-2.3541,-2.2926,-2.306,0.0,0.0,-2.1871,-2.1896,-2.2218,-2.2859,-2.3554,-2.4249,0.0,0.0,0.0,0.0,-2.6146,0.0,-2.6092,-2.6159,-2.605,-2.6386,-2.6707,-2.6814,-2.8913,-3.1242,-3.3401,-3.3887,-3.6022,-4.0238,-4.0762,-4.0996,-4.1055,-4.1133,-4.1172,-4.1172,-4.1601,-4.1973,-4.2305,-4.1953,-4.1992,-4.2266,-4.1504,-4.1172,-4.1172,-4.1172,-4.1172,-4.1172,-4.1172,-4.1172,-4.1172,-4.1172,-4.1172,-4.1172,0.0,0.0,0.0,0.0,0.0,0.0,0.0,0.0,0.0,0.0,0.0,0.0,0.0,0.0,0.0,0.0,0.0,0.0,0.0,0.0,0.0,0.0,0.0,0.0,0.0,0.0,0.0,0.0,0.0,0.0,0.0,0.0,0.0,0.0,0.0,0.0,0.0,0.0,0.0,0.0,0.0,0.0,0.0,0.0,0.0,0.0,0.0,0.0,0.0,0.0,-2.7647,-2.7853,-3.0195,-2.9324,-2.7596,-2.8661,-2.7948,-2.6542,-2.5574,-2.4727,-2.4128,-2.4128,-2.3997,-2.3527,-2.2619,0.0,0.0,0.0,-2.1416,-2.155,-2.2298,0.0,0.0,0.0,0.0,0.0,0.0,0.0,0.0,0.0,0.0,-2.6627,-2.664,-2.7028,-2.7335,-2.7495,-2.9645,-3.1811,-3.378,-3.6193,-3.8557,-4.0782,-4.1074,-4.1172,-4.1172,-4.1172,-4.1289,-4.1504,-4.1933,-4.2344,-4.2754,-4.2324,-4.2246,-4.2383,-4.1543,-4.1172,-4.1172,-4.1172,-4.1172,-4.1172,-4.1172,-4.1172,-4.1172,-4.1172,-4.1172,-4.1211,0.0,0.0,0.0,0.0,0.0,0.0,0.0,0.0,0.0,0.0,0.0,0.0,0.0,0.0,0.0,0.0,0.0,0.0,0.0,0.0,0.0,0.0,0.0,0.0,0.0,0.0,0.0,-1.849,0.0,0.0,0.0,0.0,0.0,0.0,0.0,0.0,0.0,0.0,0.0,0.0,0.0,0.0,0.0,0.0,0.0,0.0,0.0,0.0,0.0,0.0,-2.7429,-2.7718,-2.9244,-2.8922,-2.8252,-2.9443,-2.7947,-2.5768,-2.4856,-2.4079,-2.3406,-2.3077,-2.3367,-2.3474,-2.2338,-2.2485,0.0,0.0,0.0,-2.1443,-2.2565,0.0,0.0,0.0,0.0,0.0,0.0,0.0,0.0,0.0,0.0,0.0,-2.7241,-2.7988,-2.862,-2.8867,-3.1324,-3.3466,-3.4878,-3.8952,-4.1172,-4.1172,-4.1172,-4.1172,-4.1172,-4.1269,-4.1484,-4.1816,-4.2324,-4.2695,-4.293,-4.2578,-4.2383,-4.2246,-4.1504,-4.1172,-4.1172,-4.1172,-4.1172,-4.1172,-4.1172,-4.1172,-4.1172,-4.1172,-4.123,-4.1348,0.0,0.0,0.0,0.0,0.0,0.0,0.0,0.0,0.0,0.0,0.0,0.0,0.0,0.0,0.0,0.0,0.0,0.0,0.0,0.0,0.0,0.0,0.0,0.0,0.0,0.0,0.0,-1.849,-1.8758,0.0,0.0,0.0,0.0,0.0,0.0,-1.943,0.0,0.0,0.0,0.0,0.0,0.0,0.0,0.0,0.0,0.0,0.0,0.0,0.0,0.0,0.0,-2.6493,-2.7315,-2.8224,-2.8826,-2.7997,0.0,0.0,-2.3879,-2.4167,-2.4931,-2.3623,-2.3527,-2.3527,-2.2592,0.0,0.0,0.0,0.0,0.0,0.0,0.0,0.0,0.0,0.0,0.0,0.0,0.0,0.0,0.0,0.0,0.0,-2.7268,-2.9542,-3.1046,-3.1076,-3.4975,-3.7401,-3.7524,-3.9845,-4.1172,-4.1172,-4.1172,-4.1172,-4.1172,-4.1543,-4.1758,-4.1816,-4.2637,-4.2832,-4.248,-4.2441,-4.2207,-4.1836,-4.1367,-4.1172,-4.1172,-4.1172,-4.1172,-4.1172,-4.1172,-4.1172,-4.1172,-4.1172,-4.1406,-4.1758,0.0,0.0,0.0,0.0,0.0,0.0,0.0,0.0,0.0,0.0,0.0,0.0,0.0,0.0,0.0,0.0,0.0,0.0,0.0,0.0,0.0,0.0,0.0,0.0,0.0,0.0,0.0,-1.8744,-1.8865,0.0,0.0,0.0,0.0,0.0,0.0,-1.943,-1.943,0.0,0.0,0.0,0.0,0.0,0.0,0.0,0.0,0.0,0.0,0.0,0.0,0.0,0.0,0.0,-2.6146,-2.6208,0.0,0.0,-2.6568,-2.6059,-2.5539,-2.5484,-2.539,-2.4991,-2.4233,-2.3313,-2.2592,0.0,0.0,0.0,0.0,0.0,-2.2031,0.0,0.0,0.0,0.0,0.0,0.0,0.0,0.0,0.0,0.0,0.0,0.0,0.0,-3.2448,-3.5137,-3.6922,-3.8469,-3.9786,-4.0685,-4.1172,-4.1172,-4.1172,-4.1289,-4.1543,-4.1719,-4.2051,-4.2578,-4.291,-4.2988,-4.2812,-4.2539,-4.2207,-4.1777,-4.1348,-4.1172,-4.1172,-4.1172,-4.1172,-4.1172,-4.1172,-4.1172,-4.1172,-4.1172,-4.1445,-4.1836,0.0,0.0,0.0,0.0,0.0,0.0,0.0,0.0,0.0,0.0,0.0,0.0,0.0,0.0,0.0,0.0,0.0,0.0,0.0,0.0,0.0,0.0,0.0,0.0,0.0,0.0,0.0,0.0,-1.9052,-1.9158,0.0,0.0,-1.943,-1.943,0.0,0.0,0.0,0.0,0.0,0.0,0.0,0.0,0.0,0.0,0.0,0.0,0.0,0.0,0.0,0.0,0.0,0.0,0.0,0.0,0.0,0.0,-2.5373,-2.505,-2.6167,-2.6005,-2.5742,-2.6725,-2.5149,-2.3332,0.0,0.0,0.0,0.0,0.0,-2.1283,-2.1871,-2.2819,0.0,0.0,0.0,0.0,0.0,0.0,0.0,0.0,0.0,-2.7175,-2.7255,-3.0378,-3.4164,-3.8548,-3.8882,-3.9531,-4.1094,-4.1172,-4.1172,-4.1172,-4.1289,-4.1504,-4.1797,-4.2051,-4.248,-4.3086,-4.3203,-4.3125,-4.2871,-4.2558,-4.2129,-4.1601,-4.1308,-4.1172,-4.1172,-4.1172,-4.1172,-4.1172,-4.1172,-4.1172,-4.1191,-4.1308,-4.1621,-4.2051,0.0,0.0,0.0,0.0,0.0,0.0,0.0,0.0,0.0,0.0,0.0,0.0,0.0,0.0,0.0,0.0,0.0,0.0,0.0,0.0,0.0,0.0,0.0,0.0,0.0,0.0,0.0,0.0,0.0,0.0,-1.943,-1.943,-1.943,-1.943,0.0,0.0,0.0,0.0,0.0,0.0,0.0,0.0,0.0,0.0,0.0,0.0,0.0,0.0,0.0,0.0,0.0,0.0,0.0,0.0,0.0,0.0,-2.4116,-2.4329,-2.4975,-2.533,-2.6072,-2.8562,-2.6195,-2.372,0.0,0.0,0.0,0.0,-2.1109,-2.1283,-2.1871,-2.2472,0.0,0.0,0.0,0.0,0.0,0.0,0.0,0.0,0.0,-2.6947,-2.7241,-3.1752,-3.6442,-4.0841,-4.1172,-4.1172,-4.1172,-4.1172,-4.1172,-4.1172,-4.1582,-4.1797,-4.1797,-4.2637,-4.3066,-4.3086,-4.3496,-4.3242,-4.2441,-4.2422,-4.1973,-4.1172,-4.1172,-4.1172,-4.1172,-4.1172,-4.1172,-4.1172,-4.1172,-4.1172,-4.123,-4.1641,-4.207,-4.248,0.0,0.0,0.0,0.0,0.0,0.0,0.0,0.0,0.0,0.0,0.0,0.0,0.0,0.0,0.0,0.0,0.0,0.0,0.0,0.0,0.0,0.0,0.0,0.0,0.0,0.0,0.0,0.0,0.0,0.0,0.0,0.0,0.0,-1.943,-1.943,-1.943,0.0,0.0,0.0,0.0,0.0,0.0,0.0,0.0,0.0,0.0,0.0,0.0,0.0,0.0,0.0,0.0,0.0,0.0,0.0,0.0,0.0,0.0,-2.5755,-2.5494,-2.5146,-2.6167,-2.4396,-2.2512,-2.3057,0.0,0.0,0.0,-2.1109,-2.1283,-2.1871,-2.2645,0.0,0.0,0.0,0.0,0.0,0.0,0.0,-2.6373,-2.8147,-3.0173,-3.2174,-3.5083,-3.8073,-4.1016,-4.1172,-4.1172,-4.1172,-4.1172,-4.1172,-4.1172,-4.1582,-4.1933,-4.2226,-4.2793,-4.3223,-4.3496,-4.3633,-4.3262,-4.2422,-4.2422,-4.1973,-4.1172,-4.1172,-4.1172,-4.1172,-4.1172,-4.1172,-4.1172,-4.1172,-4.1348,-4.1621,-4.1758,-4.2266,-4.2891,0.0,0.0,0.0,0.0,0.0,0.0,0.0,0.0,0.0,0.0,0.0,0.0,0.0,0.0,0.0,0.0,0.0,0.0,0.0,0.0,0.0,0.0,0.0,0.0,0.0,0.0,0.0,0.0,0.0,0.0,0.0,0.0,0.0,0.0,0.0,0.0,0.0,0.0,0.0,0.0,0.0,0.0,0.0,0.0,0.0,0.0,0.0,0.0,0.0,0.0,0.0,0.0,0.0,0.0,0.0,0.0,0.0,0.0,0.0,-2.4659,-2.4036,-2.572,-2.4079,0.0,0.0,0.0,0.0,0.0,0.0,-2.1496,-2.2191,-2.2873,0.0,0.0,0.0,0.0,0.0,0.0,0.0,-2.6533,0.0,0.0,-3.4226,-3.6595,-3.8803,-4.1016,-4.1172,-4.1172,-4.1172,-4.1172,-4.1172,-4.1172,-4.1582,-4.1992,-4.2422,-4.2851,-4.3281,-4.3711,-4.3555,-4.3105,-4.2422,-4.2266,-4.1816,-4.1172,-4.1172,-4.1172,0.0,-4.1172,-4.1172,-4.1172,-4.1172,-4.1426,-4.1816,-4.1973,-4.248,-4.3105,0.0,0.0,0.0,0.0,0.0,0.0,0.0,0.0,0.0,0.0,0.0,0.0,0.0,0.0,0.0,0.0,0.0,0.0,0.0,0.0,0.0,0.0,0.0,0.0,0.0,0.0,0.0,0.0,-1.943,-1.943,-1.943,0.0,0.0,0.0,0.0,0.0,0.0,0.0,0.0,0.0,0.0,0.0,0.0,0.0,0.0,0.0,0.0,0.0,0.0,0.0,0.0,0.0,0.0,0.0,0.0,0.0,0.0,0.0,0.0,0.0,0.0,0.0,0.0,0.0,0.0,0.0,0.0,0.0,0.0,0.0,0.0,0.0,0.0,0.0,0.0,0.0,0.0,-2.6159,0.0,0.0,-2.9122,-3.1662,-3.3994,-3.6614,-3.8961,-4.1094,-4.1172,-4.1172,-4.1172,-4.1172,-4.1172,-4.1172,-4.1543,-4.1973,-4.2422,-4.2851,-4.3281,-4.3691,-4.3281,-4.2851,-4.2402,-4.1992,-4.1562,-4.1172,-4.1172,-4.1172,-4.1172,-4.1172,-4.1172,-4.1172,-4.1211,-4.1484,-4.1894,-4.2324,-4.2754,-4.3183,0.0,0.0,0.0,0.0,0.0,0.0,0.0,0.0,0.0,0.0,0.0,0.0,0.0,0.0,0.0,0.0,0.0,0.0,0.0,0.0,0.0,0.0,0.0,0.0,0.0,0.0,0.0,-1.943,-1.943,-1.943,-1.943,-1.943,0.0,0.0,0.0,0.0,0.0,0.0,0.0,0.0,0.0,0.0,0.0,0.0,0.0,0.0,-2.1109,-2.1362,0.0,0.0,0.0,0.0,0.0,0.0,0.0,0.0,0.0,0.0,0.0,0.0,0.0,0.0,0.0,0.0,0.0,0.0,0.0,0.0,0.0,0.0,0.0,0.0,0.0,0.0,0.0,0.0,-2.6333,0.0,0.0,-2.6774,-3.045,-3.3316,-3.4153,-3.7995,-4.0685,-4.1172,-4.1172,-4.1172,-4.1172,-4.1172,-4.1172,-4.1172,-4.1269,-4.168,-4.2422,-4.2851,-4.3281,-4.3691,-4.3281,-4.2851,-4.2402,-4.1992,-4.1562,-4.1172,-4.1172,-4.1172,-4.1172,-4.1172,-4.1172,-4.1211,-4.1523,-4.1914,-4.2324,-4.2773,-4.3203,-4.3574,0.0,0.0,0.0,0.0,0.0,0.0,0.0,0.0,0.0,0.0,0.0,0.0,0.0,0.0,0.0,0.0,0.0,0.0,0.0,0.0,0.0,0.0,0.0,0.0,0.0,0.0,0.0,0.0,0.0,-1.9639,0.0,0.0,0.0,0.0,0.0,0.0,0.0,0.0,0.0,0.0,0.0,0.0,0.0,0.0,0.0,0.0,-2.1109,-2.1109,0.0,-2.1109,-2.1109,-2.1109,0.0,0.0,0.0,0.0,0.0,0.0,0.0,0.0,0.0,0.0,0.0,0.0,0.0,0.0,0.0,0.0,0.0,0.0,0.0,0.0,0.0,0.0,-2.6371,0.0,0.0,0.0,-2.6547,-2.6974,-3.1017,-3.3934,-3.4385,-3.8517,-4.1172,-4.1172,-4.1172,-4.1172,-4.1172,-4.1172,-4.1172,-4.1172,-4.1172,-4.1582,-4.2422,-4.2656,-4.3086,-4.3691,-4.3066,-4.2656,-4.2402,-4.1797,-4.1387,-4.1172,-4.1172,-4.1172,-4.1172,-4.1172,-4.1289,-4.1484,-4.1699,-4.2187,-4.2754,-4.2988,-4.334,-4.3711,0.0,0.0,0.0,0.0,0.0,0.0,0.0,0.0,0.0,0.0,0.0,0.0,0.0,0.0,0.0,0.0,0.0,0.0,0.0,0.0,0.0,0.0,0.0,0.0,0.0,0.0,0.0,0.0,0.0,0.0,0.0,0.0,0.0,0.0,0.0,0.0,0.0,0.0,0.0,0.0,0.0,0.0,0.0,0.0,0.0,0.0,0.0,0.0,0.0,-2.1109,-2.1109,-2.1109,-2.1109,0.0,0.0,0.0,0.0,0.0,0.0,0.0,0.0,0.0,0.0,0.0,0.0,0.0,0.0,0.0,0.0,0.0,0.0,0.0,0.0,0.0,0.0,0.0,-2.6583,-2.6386,-2.6746,-2.7608,-3.1348,-3.4159,-3.5067,-3.8845,-4.1172,-4.1172,-4.1172,-4.1172,-4.1172,-4.1172,-4.1172,-4.1172,-4.1172,-4.1543,-4.2324,-4.2402,-4.2832,-4.3594,-4.2812,-4.2422,-4.2402,-4.1562,-4.1172,-4.1172,-4.1172,-4.1172,-4.1172,-4.125,-4.1484,-4.1816,-4.1953,-4.2441,-4.3086,-4.3144,-4.3398,-4.3711,0.0,0.0,0.0,0.0,0.0,0.0,0.0,0.0,0.0,0.0,0.0,0.0,0.0,0.0,0.0,0.0,0.0,0.0,0.0,0.0,0.0,0.0,0.0,0.0,0.0,0.0,0.0,0.0,0.0,0.0,-2.0167,-2.0167,-2.008,0.0,0.0,0.0,0.0,0.0,0.0,0.0,0.0,0.0,0.0,0.0,0.0,0.0,0.0,0.0,0.0,-2.1109,-2.1109,-2.1109,-2.1109,0.0,0.0,0.0,0.0,0.0,-2.3263,-2.3455,0.0,0.0,0.0,0.0,0.0,0.0,0.0,0.0,0.0,0.0,0.0,0.0,-2.601,0.0,0.0,-2.6727,0.0,-2.6386,-2.7206,-2.9433,-3.2142,-3.4688,-3.6884,-3.9578,-4.1172,-4.1172,-4.1172,-4.1172,-4.1172,-4.1172,-4.1172,-4.1172,-4.1172,-4.1406,-4.1894,-4.2246,-4.2676,-4.3164,-4.2676,-4.2422,-4.2402,-4.1562,-4.1172,-4.1172,-4.1172,-4.1172,-4.1211,-4.1562,-4.1738,-4.1875,-4.2598,-4.2969,-4.3125,-4.3476,-4.3652,-4.3711,0.0,0.0,0.0,0.0,0.0,0.0,0.0,0.0,0.0,0.0,0.0,0.0,0.0,0.0,0.0,0.0,0.0,0.0,0.0,0.0,0.0,0.0,0.0,0.0,0.0,0.0,0.0,0.0,0.0,-2.0548,-2.0708,-2.0548,-2.0401,-2.0254,0.0,0.0,0.0,0.0,0.0,0.0,0.0,0.0,0.0,0.0,0.0,0.0,0.0,0.0,0.0,0.0,-2.1109,-2.1109,-2.1109,0.0,0.0,0.0,0.0,0.0,-2.3807,-2.3741,-2.3855,0.0,0.0,0.0,0.0,0.0,0.0,0.0,0.0,0.0,0.0,0.0,-2.8934,-3.047,0.0,-2.7997,-2.7997,-2.7997,-2.9017,-3.17,-3.4026,-3.6008,-3.7571,-3.9829,-4.1172,-4.1172,-4.1172,-4.1172,-4.1172,-4.1172,-4.1172,-4.1172,-4.1172,-4.1269,-4.1465,-4.2109,-4.2656,-4.3066,-4.2637,-4.2422,-4.2402,-4.1562,-4.1172,-4.1172,-4.1172,-4.1308,-4.1523,-4.1719,-4.207,-4.2539,-4.293,-4.3223,-4.3437,-4.3633,-4.3711,-4.3711,0.0,0.0,0.0,0.0,0.0,0.0,0.0,0.0,0.0,0.0,0.0,0.0,0.0,0.0,0.0,0.0,0.0,0.0,0.0,0.0,0.0,0.0,0.0,0.0,0.0,0.0,0.0,-2.0775,-2.0775,-2.0895,-2.1109,-2.0882,-2.0708,0.0,0.0,0.0,0.0,0.0,0.0,0.0,0.0,0.0,0.0,0.0,0.0,0.0,0.0,0.0,0.0,0.0,0.0,0.0,0.0,0.0,0.0,0.0,-2.478,-2.6283,-2.4193,-2.4301,-2.5172,0.0,0.0,0.0,0.0,0.0,0.0,0.0,0.0,0.0,0.0,-3.0082,0.0,-3.175,-3.0438,-2.9371,-2.9371,-2.9371,-3.0422,-3.3146,-3.5494,-3.7226,-3.8425,-4.012,-4.1172,-4.1172,-4.1172,-4.1172,-4.1172,-4.1172,-4.1172,-4.1172,-4.1172,-4.1172,-4.1172,-4.2012,-4.2539,-4.2773,-4.2539,-4.2383,-4.2266,-4.1504,-4.1172,-4.1172,-4.1269,-4.1504,-4.1816,-4.2012,-4.248,-4.3086,-4.3183,-4.3418,-4.3711,-4.3711,-4.3711,-4.3711,0.0,0.0,0.0,0.0,0.0,0.0,0.0,0.0,0.0,0.0,0.0,0.0,0.0,0.0,0.0,0.0,0.0,0.0,0.0,0.0,0.0,0.0,0.0,0.0,0.0,-2.0628,-2.0788,-2.1082,-2.1082,-2.1082,-2.1109,-2.1082,-2.0788,-2.0207,0.0,0.0,0.0,0.0,0.0,0.0,0.0,0.0,0.0,0.0,0.0,0.0,0.0,0.0,0.0,0.0,0.0,0.0,0.0,0.0,0.0,0.0,-2.4875,-2.8088,-2.4564,-2.6356,-2.8994,-2.7841,0.0,0.0,-2.866,-2.9044,0.0,-2.9691,0.0,0.0,0.0,-3.205,-3.1798,-2.996,-2.9526,-2.9371,-2.9371,-2.9371,-3.0345,-3.2862,-3.532,-3.7752,-4.0124,-4.086,-4.1172,-4.1172,-4.1172,-4.1172,-4.1172,-4.1172,-4.1172,-4.1172,-4.1172,-4.1172,-4.1172,-4.2012,-4.2246,-4.1894,-4.2266,-4.2226,-4.1836,-4.1387,-4.1172,-4.1191,-4.1582,-4.1777,-4.1855,-4.2656,-4.3027,-4.3125,-4.3496,-4.3672,-4.3711,-4.3711,-4.3711,-4.3711,0.0,0.0,0.0,0.0,0.0,0.0,0.0,0.0,0.0,0.0,0.0,0.0,0.0,0.0,0.0,0.0,0.0,0.0,0.0,0.0,0.0,0.0,0.0,-2.0454,-2.0935,-2.0949,-2.1002,-2.1109,-2.1109,-2.1109,-2.1109,-2.1109,0.0,0.0,0.0,0.0,0.0,0.0,0.0,0.0,0.0,0.0,0.0,0.0,0.0,0.0,0.0,0.0,0.0,0.0,-2.0842,0.0,0.0,0.0,0.0,0.0,0.0,-2.6949,-2.5759,-2.7565,-2.9699,-2.9771,0.0,0.0,0.0,-3.1557,-3.1873,-3.2104,-3.265,0.0,0.0,0.0,-3.37,-3.165,-3.136,-3.1727,-3.3003,-3.3154,-3.4139,-3.6602,-3.7971,-3.9185,-4.0392,-4.0918,-4.1172,-4.1172,-4.1172,-4.1172,-4.1172,-4.1172,-4.1172,-4.1172,-4.1172,-4.1172,-4.1172,-4.2012,-4.2207,-4.1797,-4.2226,-4.2344,-4.2168,-4.1758,-4.1562,-4.1582,-4.2012,-4.2344,-4.2617,-4.2949,-4.3223,-4.3476,-4.3633,-4.3711,-4.3711,-4.3711,-4.3711,-4.3672,0.0,0.0,0.0,0.0,0.0,0.0,0.0,0.0,0.0,0.0,0.0,0.0,0.0,0.0,0.0,0.0,0.0,0.0,0.0,0.0,0.0,0.0,0.0,-2.0508,-2.1096,-2.1109,-2.1109,-2.1109,-2.1109,-2.1109,-2.1109,0.0,0.0,0.0,0.0,0.0,0.0,0.0,0.0,0.0,0.0,0.0,0.0,0.0,0.0,0.0,0.0,0.0,0.0,0.0,0.0,0.0,0.0,0.0,0.0,0.0,0.0,-2.6996,-2.6208,-2.8379,-3.0751,0.0,0.0,0.0,0.0,-3.327,-3.3659,-3.4492,-3.4752,-3.4282,-3.2451,0.0,-3.3926,-3.1879,-3.2048,-3.2944,-3.4376,-3.5124,-3.6145,-3.7798,-3.9002,-3.9844,-4.0273,-4.0723,-4.1035,-4.1172,-4.1172,-4.1172,-4.1172,-4.1172,-4.1172,-4.1172,-4.1172,-4.1172,-4.1172,-4.1875,-4.2148,-4.1992,-4.2285,-4.2422,-4.2422,-4.2129,-4.1992,-4.2031,-4.2441,-4.2793,-4.3086,-4.3086,-4.3164,-4.332,-4.3457,-4.3418,-4.332,-4.3457,-4.3418,-4.3281,0.0,0.0,0.0,0.0,0.0,0.0,0.0,0.0,0.0,0.0,0.0,0.0,0.0,0.0,0.0,0.0,0.0,0.0,0.0,0.0,0.0,0.0,0.0,-2.0508,-2.1096,-2.1109,-2.1109,-2.1109,-2.1109,-2.1109,-2.1109,0.0,0.0,0.0,0.0,0.0,0.0,0.0,0.0,0.0,0.0,0.0,0.0,0.0,0.0,0.0,0.0,0.0,0.0,0.0,0.0,0.0,0.0,0.0,0.0,0.0,-2.5407,-2.8959,-2.556,-2.8968,-3.2638,0.0,0.0,0.0,0.0,0.0,-3.4103,-3.6758,-3.6396,-3.49,-3.2868,-3.2505,-3.1819,-2.9821,-3.1207,-3.2581,-3.2581,-3.4301,-3.5497,-3.5497,-3.7705,-3.9394,-3.9844,-4.0273,-4.0703,-4.1133,-4.1172,-4.1172,-4.1172,-4.1172,-4.1172,-4.1172,-4.1172,-4.1172,-4.1172,-4.1582,-4.2012,-4.2422,-4.2422,-4.2441,-4.2441,-4.2441,-4.2441,-4.2461,-4.2891,-4.3086,-4.3086,-4.3066,-4.2812,-4.2461,-4.2891,-4.2812,-4.248,-4.291,-4.2793,-4.25,0.0,0.0,0.0,0.0,0.0,0.0,0.0,0.0,0.0,0.0,0.0,0.0,0.0,0.0,0.0,0.0,0.0,0.0,0.0,0.0,0.0,0.0,0.0,0.0,0.0,0.0,-2.1109,-2.1109,-2.1109,-2.1109,0.0,0.0,0.0,-2.0167,0.0,0.0,0.0,0.0,0.0,0.0,0.0,0.0,0.0,0.0,0.0,0.0,0.0,0.0,0.0,0.0,0.0,0.0,0.0,0.0,0.0,0.0,-2.4659,-2.7887,-2.7312,-3.068,0.0,0.0,0.0,0.0,0.0,0.0,0.0,0.0,-3.7943,-3.7032,-3.4975,-3.4601,-3.4376,-3.3758,-3.4226,-3.5142,-3.659,-3.7272,-3.7658,-3.7658,-3.8557,-3.9394,-3.9844,-4.0273,-4.0703,-4.1133,-4.1172,-4.1172,-4.1172,-4.1172,-4.1172,-4.1172,-4.1172,-4.1172,-4.1172,-4.1582,-4.1855,-4.1992,-4.2598,-4.2891,-4.2891,-4.2891,-4.2891,-4.291,-4.334,-4.3359,-4.3047,-4.2754,-4.2539,-4.2441,-4.2558,-4.2539,-4.2441,-4.2578,-4.2734,-4.2851,0.0,0.0,0.0,0.0,0.0,0.0,0.0,0.0,0.0,0.0,0.0,0.0,0.0,0.0,0.0,0.0,0.0,0.0,0.0,0.0,0.0,0.0,0.0,0.0,0.0,-2.1109,-2.1109,0.0,0.0,0.0,0.0,0.0,0.0,-2.0054,0.0,-1.9746,0.0,0.0,0.0,0.0,0.0,0.0,0.0,0.0,0.0,0.0,0.0,0.0,0.0,0.0,0.0,0.0,0.0,0.0,0.0,0.0,-2.4942,-2.7908,-2.8776,0.0,0.0,0.0,0.0,0.0,-3.5908,0.0,0.0,0.0,-3.8457,-3.7951,-3.5886,-3.5497,-3.5274,-3.4451,-3.4975,-3.5961,-3.7198,-3.8117,-3.8574,-3.8574,-3.8789,-3.9121,-3.957,-4.0019,-4.0449,-4.0879,-4.1074,-4.1172,-4.1172,-4.1172,-4.1172,-4.1172,-4.1172,-4.1172,-4.1172,-4.1426,-4.1641,-4.1816,-4.2324,-4.2656,-4.2832,-4.3164,-4.3242,-4.3086,-4.3164,-4.2969,-4.2539,-4.2285,-4.207,-4.1953,-4.2109,-4.207,-4.1973,-4.2305,-4.248,-4.2578,0.0,0.0,0.0,0.0,0.0,0.0,0.0,0.0,0.0,0.0,0.0,0.0,0.0,0.0,0.0,0.0,0.0,0.0,0.0,0.0,0.0,0.0,0.0,0.0,0.0,0.0,0.0,0.0,0.0,0.0,0.0,0.0,-2.0334,-1.9813,0.0,-1.9907,0.0,0.0,0.0,0.0,0.0,0.0,0.0,0.0,0.0,0.0,0.0,0.0,0.0,0.0,0.0,0.0,0.0,0.0,0.0,-2.2864,-2.5754,-2.8589,0.0,0.0,0.0,0.0,0.0,0.0,-3.7207,-3.7715,-3.7988,-3.7988,0.0,-3.8024,-3.6109,-3.5812,-3.5199,-3.3339,-3.4601,-3.5812,-3.5812,-3.7419,-3.8574,-3.8574,-3.8574,-3.875,-3.916,-3.9629,-4.0078,-4.0488,-4.0918,-4.1172,-4.1172,-4.1172,-4.1172,-4.1172,-4.1172,-4.1172,-4.1172,-4.1172,-4.1367,-4.1738,-4.1777,-4.1992,-4.2402,-4.3223,-4.3379,-4.2988,-4.2558,-4.2148,-4.1797,-4.1758,-4.1523,-4.1211,-4.1601,-4.1523,-4.1328,-4.209,-4.2168,-4.2031,0.0,0.0,0.0,0.0,0.0,0.0,0.0,0.0,0.0,0.0,0.0,0.0,0.0,0.0,0.0,0.0,0.0,0.0,0.0,0.0,0.0,0.0,0.0,0.0,0.0,0.0,0.0,0.0,0.0,0.0,0.0,0.0,0.0,-1.98,0.0,-1.9826,0.0,0.0,0.0,0.0,0.0,0.0,0.0,0.0,0.0,0.0,0.0,0.0,0.0,0.0,0.0,0.0,-1.98,-2.004,-2.0489,-2.1388,-2.469,-2.8175,0.0,0.0,0.0,0.0,0.0,0.0,0.0,-3.8379,-3.8437,-3.8437,-3.8516,-3.8501,-3.8024,-3.7951,-3.7805,-3.7364,-3.7658,-3.7951,-3.7951,-3.8336,-3.8574,-3.8574,-3.8574,-3.875,-3.916,-3.9629,-4.0078,-4.0488,-4.0918,-4.1172,-4.1172,-4.1172,-4.1172,-4.1172,-4.1172,-4.1172,-4.1172,-4.1172,-4.1211,-4.1308,-4.1641,-4.1855,-4.1953,-4.2461,-4.2656,-4.2539,-4.2129,-4.1894,-4.1777,-4.1445,-4.125,-4.1191,-4.1269,-4.1445,-4.168,-4.1875,-4.2305,-4.2832,0.0,0.0,0.0,0.0,0.0,0.0,0.0,0.0,0.0,0.0,0.0,0.0,0.0,0.0,0.0,0.0,0.0,0.0,0.0,0.0,0.0,0.0,0.0,0.0,0.0,0.0,0.0,0.0,0.0,0.0,0.0,0.0,0.0,-1.9599,0.0,-1.9933,0.0,0.0,0.0,0.0,0.0,0.0,0.0,0.0,0.0,0.0,0.0,0.0,0.0,0.0,0.0,0.0,0.0,0.0,-2.0805,-2.1762,-2.4254,-2.7052,0.0,0.0,0.0,0.0,0.0,0.0,0.0,-3.8574,-3.8574,-3.8574,-3.8574,-3.8574,-3.8574,-3.8574,-3.8574,-3.8574,-3.8574,-3.8574,-3.8574,-3.8574,-3.8574,-3.8574,-3.8574,-3.8652,-3.8887,-3.9297,-3.9746,-4.0195,-4.0625,-4.0957,-4.1172,-4.1172,-4.1172,-4.1172,-4.1172,-4.1172,-4.1172,-4.1172,-4.1172,-4.1172,-4.1387,-4.1504,-4.1523,-4.1933,-4.2129,-4.2109,-4.168,-4.1504,-4.1484,-4.1269,-4.1172,-4.1191,-4.1387,-4.1601,-4.1855,-4.2266,-4.2695,-4.3105,0.0,0.0,0.0,0.0,0.0,0.0,0.0,0.0,0.0,0.0,0.0,0.0,0.0,0.0,0.0,0.0,0.0,0.0,0.0,0.0,0.0,0.0,0.0,0.0,0.0,0.0,0.0,0.0,0.0,0.0,0.0,0.0,0.0,-1.9466,0.0,0.0,0.0,0.0,0.0,0.0,0.0,0.0,0.0,0.0,0.0,-2.0388,0.0,0.0,-2.0722,-2.0468,0.0,0.0,0.0,0.0,-2.1227,-2.2375,-2.387,-2.5773,0.0,0.0,0.0,0.0,0.0,0.0,0.0,-3.8516,-3.8574,-3.8574,-3.8574,-3.8574,-3.8574,-3.8574,-3.8574,-3.8574,-3.8574,-3.8574,-3.8574,-3.8574,-3.8574,-3.8574,-3.8574,-3.8574,-3.8574,-3.8965,-3.9394,-3.9863,-4.0273,-4.0703,-4.1152,-4.1172,-4.1172,-4.1172,-4.1172,-4.1172,-4.1172,-4.1172,-4.1172,-4.1172,-4.1172,-4.1172,-4.1191,-4.1523,-4.1699,-4.168,-4.1328,-4.1172,-4.1172,-4.1172,-4.1172,-4.1211,-4.1641,-4.1836,-4.1992,-4.2793,-4.3125,-4.3242,0.0,0.0,0.0,0.0,0.0,0.0,0.0,0.0,0.0,0.0,0.0,0.0,0.0,0.0,0.0,0.0,0.0,0.0,0.0,0.0,0.0,0.0,0.0,0.0,0.0,0.0,0.0,0.0,0.0,0.0,0.0,0.0,0.0,0.0,0.0,0.0,0.0,0.0,0.0,0.0,0.0,0.0,0.0,0.0,0.0,-2.0989,-2.0989,-2.1015,-2.1042,-2.1002,-2.0855,0.0,0.0,0.0,-2.0784,-2.0991,-2.262,0.0,0.0,0.0,0.0,0.0,0.0,0.0,0.0,0.0,-3.8574,0.0,-3.8574,-3.8574,-3.8574,-3.8574,-3.8574,-3.8574,-3.8574,-3.8574,-3.8574,-3.8574,-3.8574,-3.8574,-3.8574,-3.8574,-3.8574,-3.8965,-3.9394,-3.9863,-4.0273,-4.0703,-4.1152,-4.1172,-4.1172,-4.1172,-4.1172,-4.1172,-4.1172,-4.1172,-4.1172,-4.1172,-4.1172,-4.1172,-4.1172,-4.123,-4.125,-4.125,-4.1191,-4.1172,-4.1172,-4.1172,-4.1172,-4.1211,-4.1641,-4.2031,-4.2402,-4.2891,-4.3301,-4.3633,0.0,0.0,0.0,0.0,0.0,0.0,0.0,0.0,0.0,0.0,0.0,0.0,0.0,0.0,0.0,0.0,0.0,0.0,0.0,0.0,0.0,0.0,0.0,0.0,0.0,0.0,0.0,0.0,0.0,0.0,0.0,-2.0668,-2.0481,0.0,0.0,0.0,0.0,0.0,0.0,0.0,0.0,0.0,0.0,0.0,0.0,-2.1109,-2.1109,-2.1109,-2.1109,-2.1109,-2.1029,-2.0922,-2.0922,0.0,0.0,0.0,0.0,0.0,0.0,0.0,0.0,0.0,0.0,0.0,0.0,0.0,-3.8281,-3.8516,-3.8574,-3.8574,-3.8574,-3.8574,-3.8574,-3.8574,-3.8574,-3.8574,-3.8574,-3.8574,-3.8574,-3.8574,-3.8574,-3.8574,-3.8574,-3.875,-3.9141,-3.9844,-4.0059,-4.0469,-4.1133,-4.1172,-4.1172,-4.1172,-4.1172,-4.1172,-4.1172,-4.1172,-4.1172,-4.1172,-4.1172,-4.1172,-4.1172,-4.1172,-4.1172,-4.1172,-4.1172,-4.1172,-4.1172,-4.1172,-4.1308,-4.1562,-4.1992,-4.2422,-4.2851,-4.3262,-4.3555,-4.3711,0.0,0.0,0.0,0.0,0.0,0.0,0.0,0.0,0.0,0.0,0.0,0.0,0.0,0.0,0.0,0.0,0.0,0.0,0.0,0.0,0.0,0.0,0.0,0.0,0.0,0.0,0.0,0.0,0.0,0.0,-2.1002,-2.1229,-2.1056,0.0,-2.1336,0.0,0.0,0.0,0.0,0.0,0.0,0.0,0.0,-2.1363,-2.1296,-2.1109,-2.1109,-2.1109,-2.1109,-2.1109,-2.1109,-2.1109,-2.1109,-2.1109,0.0,0.0,0.0,0.0,0.0,0.0,0.0,0.0,0.0,0.0,0.0,0.0,-3.8027,-3.834,-3.8496,-3.8574,-3.8574,-3.8574,-3.8574,-3.8574,-3.8574,-3.8574,-3.8574,-3.8574,-3.8574,-3.8574,-3.8574,-3.8574,-3.8574,-3.8574,-3.8887,-3.9668,-3.9824,-4.0215,-4.0976,-4.1113,-4.1172,-4.1172,-4.1172,-4.1172,-4.1172,-4.1172,-4.1172,-4.1172,-4.1172,-4.1172,-4.1172,-4.1172,-4.1172,-4.1172,-4.1172,-4.1172,-4.1172,-4.1289,-4.1523,-4.1855,-4.2383,-4.2793,-4.3125,-4.3555,-4.3711,-4.3711,0.0,0.0,0.0,0.0,0.0,0.0,0.0,0.0,0.0,0.0,0.0,0.0,-1.943,-1.943,-1.943,-1.943,0.0,0.0,0.0,0.0,0.0,0.0,0.0,0.0,0.0,0.0,0.0,0.0,0.0,0.0,-2.0722,-2.155,-2.1777,-2.1561,-2.1817,-2.1643,-2.1122,0.0,0.0,0.0,0.0,0.0,0.0,-2.1122,-2.1122,-2.1109,-2.1109,-2.1109,-2.1109,-2.1109,-2.1109,-2.1109,-2.1109,-2.1109,-2.1109,0.0,0.0,0.0,0.0,0.0,0.0,0.0,0.0,0.0,0.0,0.0,-3.793,-3.7949,-3.8281,-3.8574,-3.8574,-3.8574,-3.8574,-3.8574,-3.8574,-3.8574,-3.8574,-3.8574,-3.8574,-3.8574,-3.8574,-3.8574,-3.8574,-3.8574,-3.875,-3.9199,-3.9648,-4.0098,-4.0527,-4.0957,-4.1172,-4.1172,-4.1172,-4.1172,-4.1172,-4.1172,-4.1172,-4.1172,-4.1172,-4.1172,-4.1172,-4.1172,-4.1172,-4.1172,-4.1172,-4.1172,-4.1211,-4.1601,-4.1777,-4.1875,-4.2715,-4.3066,-4.3125,-4.3555,-4.3711,-4.3711,0.0,0.0,0.0,0.0,0.0,0.0,0.0,0.0,0.0,0.0,0.0,0.0,0.0,-1.943,-1.943,-1.943,-1.943,0.0,0.0,0.0,0.0,0.0,0.0,0.0,0.0,0.0,0.0,0.0,0.0,-2.1056,-2.1306,-2.1628,-2.175,-2.1857,-2.2338,-2.2218,-2.1697,-2.1991,0.0,0.0,0.0,0.0,0.0,-2.167,-2.155,-2.139,-2.139,-2.139,-2.143,-2.1617,-2.155,-2.139,-2.139,-2.1269,-2.1109,0.0,0.0,0.0,0.0,0.0,0.0,0.0,0.0,0.0,-3.376,-3.5303,-3.6855,-3.7402,-3.7851,-3.8242,-3.8516,-3.8574,-3.8574,-3.8574,-3.8574,-3.8574,-3.8574,-3.8574,-3.8574,-3.8574,-3.8574,-3.8574,-3.8574,-3.8574,-3.875,-3.916,-3.9629,-4.0078,-4.0508,-4.0937,-4.1172,-4.1172,-4.1172,-4.1172,-4.1172,-4.1172,-4.1172,-4.1172,-4.1172,-4.1172,-4.1172,-4.1172,-4.1172,-4.1191,-4.1465,-4.1582,-4.1582,-4.1738,-4.2129,-4.2656,-4.2949,-4.3242,-4.3496,-4.3652,-4.3711,-4.3711,0.0,0.0,0.0,0.0,0.0,0.0,0.0,0.0,0.0,-1.9573,0.0,0.0,0.0,0.0,-1.943,-1.943,-1.943,-1.943,-1.943,0.0,0.0,0.0,0.0,0.0,0.0,0.0,0.0,0.0,0.0,0.0,0.0,-2.1574,-2.1722,-2.1857,-2.2311,-2.2271,0.0,0.0,0.0,-2.1844,0.0,-2.1977,-2.1977,-2.1884,-2.1844,-2.183,-2.1802,-2.1764,-2.1871,-2.2071,-2.1937,-2.1762,-2.1762,-2.143,-2.1109,-2.1109,0.0,0.0,-2.2466,0.0,0.0,0.0,0.0,0.0,-3.1769,-3.358,-3.5295,-3.658,-3.7324,-3.7851,-3.8281,-3.8359,-3.8398,-3.8555,-3.8574,-3.8574,-3.8574,-3.8574,-3.8574,-3.8574,-3.8574,-3.8574,-3.8574,-3.8574,-3.8691,-3.8965,-3.9414,-3.9844,-4.0293,-4.0723,-4.1016,-4.1172,-4.1172,-4.1172,-4.1172,-4.1172,-4.1172,-4.1172,-4.1172,-4.1172,-4.1172,-4.1172,-4.125,-4.1406,-4.168,-4.1797,-4.1816,-4.2109,-4.2558,-4.3086,-4.3223,-4.3457,-4.3711,-4.3711,-4.3711,-4.3711,0.0,0.0,0.0,0.0,0.0,0.0,0.0,0.0,0.0,-1.984,0.0,0.0,0.0,0.0,0.0,-1.943,-1.943,-1.943,-1.943,-1.943,0.0,0.0,0.0,0.0,0.0,0.0,0.0,0.0,0.0,0.0,0.0,0.0,-2.1588,0.0,-2.1588,-2.1588,-2.1588,0.0,-2.1628,-2.1601,0.0,-2.151,-2.1964,-2.1762,-2.1937,-2.2392,-2.2111,-2.2191,-2.2432,-2.2445,-2.2245,-2.1991,-2.1977,-2.1577,-2.1109,-2.1109,-2.1109,0.0,0.0,0.0,0.0,0.0,0.0,0.0,-3.0734,0.0,-3.3311,-3.5471,-3.6591,-3.7312,-3.7832,-3.791,-3.8047,-3.8476,-3.8574,-3.8574,-3.8574,-3.8574,-3.8574,-3.8574,-3.8574,-3.8574,-3.8574,-3.8574,-3.8574,-3.8574,-3.8965,-3.9394,-3.9844,-4.0293,-4.0723,-4.1133,-4.1172,-4.1172,-4.1172,-4.1172,-4.1172,-4.1172,-4.1172,-4.1172,-4.1172,-4.1191,-4.1406,-4.1797,-4.1836,-4.1836,-4.1894,-4.2734,-4.3086,-4.3144,-4.3555,-4.3711,-4.3711,-4.3711,-4.3711,-4.3711,0.0,0.0,0.0,0.0,0.0,0.0,0.0,0.0,-2.0374,0.0,0.0,0.0,-1.9444,-1.943,-1.943,-1.943,-1.943,-1.943,-1.943,-1.9559,-1.9679,-1.9679,0.0,0.0,0.0,0.0,0.0,0.0,0.0,0.0,0.0,0.0,0.0,0.0,-2.0985,-2.0985,-2.0962,-2.1603,0.0,-2.1681,-2.2405,-2.2552,-2.2311,-2.2445,-2.2605,-2.2726,-2.2645,-2.2672,-2.2766,-2.3006,-2.2726,-2.2218,-2.1804,-2.1416,-2.1109,-2.1109,-2.1109,-2.1109,-2.1109,0.0,0.0,0.0,0.0,0.0,-2.631,0.0,-3.0087,-3.3028,-3.3898,-3.4778,-3.7054,-3.7461,-3.7617,-3.8027,-3.8359,-3.8574,-3.8574,-3.8574,-3.8574,-3.8574,-3.8574,-3.8574,-3.8574,-3.8574,-3.8574,-3.8574,-3.8965,-3.9258,-3.9394,-4.0117,-4.0586,-4.0703,-4.1016,-4.1172,-4.1172,-4.1172,-4.1172,-4.1172,-4.1172,-4.1172,-4.1191,-4.1484,-4.1699,-4.1836,-4.2461,-4.2715,-4.2734,-4.2988,-4.3262,-4.3555,-4.3652,-4.3711,-4.3711,-4.3711,-4.3711,-4.3711,0.0,0.0,0.0,0.0,0.0,0.0,0.0,0.0,-2.0508,0.0,0.0,0.0,-1.9457,-1.943,-1.943,-1.943,-1.943,-1.947,-1.9546,-1.9706,-1.9853,-1.9973,0.0,0.0,0.0,0.0,0.0,0.0,0.0,0.0,0.0,0.0,0.0,0.0,0.0,0.0,0.0,0.0,0.0,0.0,-2.2218,-2.2485,-2.2592,-2.2525,-2.2806,-2.322,-2.31,-2.3287,-2.3594,-2.3527,-2.3113,-2.2485,-2.1842,-2.1494,-2.1269,-2.1149,-2.1109,-2.1109,-2.1109,-2.1109,-2.1109,-2.1109,0.0,0.0,-2.4362,-2.6327,-2.8782,-3.1832,-3.2954,-3.4107,-3.6316,-3.6465,-3.6465,-3.7266,-3.7617,-3.7969,-3.8496,-3.8574,-3.8574,-3.8574,-3.8574,-3.8574,-3.8574,-3.8574,-3.8574,-3.8574,-3.8809,-3.9023,-3.9199,-3.9883,-4.0332,-4.0508,-4.0781,-4.0996,-4.1172,-4.1172,-4.1172,-4.1172,-4.1172,-4.1269,-4.1445,-4.168,-4.1992,-4.2363,-4.2871,-4.3183,-4.334,-4.334,-4.3476,-4.3711,-4.3711,-4.3711,-4.3711,-4.3711,-4.3711,-4.3711,0.0,0.0,0.0,0.0,0.0,0.0,0.0,0.0,0.0,0.0,-2.0027,-1.9693,-1.9457,-1.9457,-1.9399,-1.943,-1.9426,-1.9559,-1.9786,-1.9867,-2.0013,-2.0267,0.0,0.0,0.0,0.0,0.0,0.0,0.0,0.0,0.0,0.0,0.0,0.0,0.0,0.0,0.0,0.0,0.0,-2.1951,-2.1523,-2.1964,-2.2874,-2.2352,-2.2846,-2.3741,-2.3474,-2.3901,-2.4489,-2.3875,-2.3313,-2.2794,-2.1976,-2.1722,-2.159,-2.1296,-2.1189,-2.1149,-2.1122,-2.1109,-2.1109,-2.1109,-2.1109,0.0,-2.3773,-2.5765,-2.7945,-3.0733,-3.2282,-3.3505,-3.495,-3.4547,-3.4412,-3.5673,-3.61,-3.6813,-3.8184,-3.8398,-3.8437,-3.8437,-3.8476,-3.8516,-3.8574,-3.8574,-3.8574,-3.8574,-3.8574,-3.875,-3.9101,-3.957,-4.0,-4.0351,-4.043,-4.0644,-4.1035,-4.1035,-4.1055,-4.1094,-4.1094,-4.1348,-4.1797,-4.1855,-4.2305,-4.3086,-4.3125,-4.3359,-4.3711,-4.3711,-4.3711,-4.3711,-4.3711,-4.3711,-4.3711,-4.3711,-4.3711,-4.3711,0.0,0.0,0.0,0.0,0.0,0.0,0.0,0.0,0.0,-2.0975,-2.0267,-1.9693,-1.9457,-1.9573,-1.9626,-1.9444,-1.9786,-1.9987,-1.9813,-2.0241,-2.0535,-2.0588,0.0,0.0,0.0,0.0,0.0,0.0,0.0,0.0,0.0,0.0,0.0,0.0,0.0,0.0,0.0,0.0,0.0,-2.2044,-2.2645,-2.2886,-2.2968,-2.3273,-2.3567,-2.3768,-2.3701,-2.3941,-2.4155,-2.3327,-2.3035,-2.2792,-2.2378,-2.2245,-2.2191,-2.1897,-2.1643,-2.1416,-2.1176,-2.1109,-2.1109,-2.1109,-2.1109,0.0,-2.2001,-2.2304,-2.3249,-2.6021,-2.6613,-2.7312,-2.9636,-2.9934,-3.0004,-3.0609,-3.2309,-3.4446,-3.6755,-3.7324,-3.7539,-3.7539,-3.7851,-3.8184,-3.8535,-3.8574,-3.8574,-3.8574,-3.8574,-3.8613,-3.8691,-3.9101,-3.9375,-3.9453,-3.9824,-4.0059,-4.0137,-4.0137,-4.0312,-4.0644,-4.0644,-4.1055,-4.1816,-4.2148,-4.2598,-4.3105,-4.3437,-4.3633,-4.3711,-4.3711,-4.3711,-4.3711,-4.3711,-4.3711,-4.3711,-4.3711,-4.3711,-4.3711,0.0,0.0,0.0,0.0,0.0,0.0,0.0,0.0,0.0,-2.1363,-2.0695,-2.0187,-2.004,-2.0013,-1.996,-1.9813,-2.0067,-2.0227,-2.0241,-2.0508,-2.0735,0.0,0.0,0.0,0.0,0.0,0.0,0.0,0.0,0.0,0.0,0.0,0.0,0.0,0.0,0.0,0.0,0.0,-2.1483,-2.2445,-2.2752,-2.2873,-2.2981,-2.338,-2.3647,-2.3794,-2.3928,-2.4075,-2.4115,-2.3514,-2.322,-2.302,-2.2565,-2.2418,-2.2365,-2.2071,-2.1777,-2.1547,-2.1189,-2.1109,-2.1109,-2.1109,-2.1109,0.0,0.0,-2.2121,-2.3163,-2.4925,-2.5525,-2.62,-2.7962,-2.7908,-2.7841,-2.8458,-3.0487,-3.2294,-3.3397,-3.5712,-3.7383,-3.7578,-3.7617,-3.7695,-3.791,-3.8125,-3.834,-3.8555,-3.8574,-3.8574,-3.8574,-3.8769,-3.8984,-3.9199,-3.9434,-3.9668,-3.9902,-3.9902,-4.0098,-4.0527,-4.0527,-4.0976,-4.1816,-4.2012,-4.2344,-4.2754,-4.2969,-4.3183,-4.3398,-4.3398,-4.3516,-4.3711,-4.3711,-4.3711,-4.3711,-4.3711,-4.3711,-4.3711,0.0,0.0,0.0,0.0,0.0,0.0,0.0,0.0,0.0,-2.1668,-2.1082,-2.0762,-2.0762,-2.0174,-1.982,-1.982,-1.9872,-1.9976,-2.0159,-2.0535,-2.0869,0.0,0.0,-2.1109,0.0,0.0,0.0,0.0,0.0,0.0,0.0,0.0,0.0,0.0,0.0,0.0,0.0,0.0,0.0,-2.2914,-2.2726,-2.2886,-2.322,-2.342,-2.3674,-2.3968,-2.4209,-2.4249,-2.4168,-2.3928,-2.3701,-2.3407,-2.2846,-2.2672,-2.2592,-2.2191,-2.1857,-2.1563,-2.1203,-2.1109,-2.1109,-2.1109,-2.1109,-2.1176,0.0,0.0,0.0,-2.4375,-2.5088,-2.5753,-2.644,-2.5992,-2.58,-2.6504,-2.8395,-2.9696,-2.9513,-3.3308,-3.6352,-3.7059,-3.7187,-3.7168,-3.7168,-3.7695,-3.8164,-3.8418,-3.8594,-3.8652,-3.8574,-3.8574,-3.873,-3.9062,-3.9082,-3.9258,-3.9648,-3.9726,-3.998,-4.041,-4.0488,-4.0976,-4.1797,-4.1797,-4.2031,-4.2422,-4.2422,-4.2637,-4.2949,-4.2949,-4.3144,-4.3476,-4.3633,-4.3711,-4.3711,-4.3711,-4.3711,-4.3711,-1.6931,-1.8256,0.0,0.0,0.0,0.0,0.0,0.0,0.0,-2.1695,-2.1269,-2.1056,-2.1056,-1.945,-1.8339,-1.8339,-1.8554,-1.859,-1.8399,-2.0079,-2.1069,-2.1109,0.0,0.0,-2.1109,0.0,0.0,0.0,0.0,0.0,0.0,0.0,0.0,0.0,-2.0054,0.0,0.0,0.0,-2.2498,-2.2968,-2.342,-2.3941,-2.4409,-2.4182,-2.4289,-2.4543,-2.4569,-2.4422,-2.4195,-2.4168,-2.4128,-2.4048,-2.3714,-2.3621,-2.3447,-2.2619,-2.2164,-2.1817,-2.1256,-2.1109,-2.1109,-2.1109,-2.1109,-2.1122,-2.1149,0.0,-2.1493,-2.1561,0.0,-2.1732,-2.1864,0.0,0.0,-2.1864,-2.3927,-2.5634,-2.6028,-2.9327,-3.2432,-3.4323,-3.584,-3.6738,-3.6738,-3.7812,-3.8359,-3.8027,-3.8711,-3.8965,-3.8594,-3.8574,-3.8594,-3.8652,-3.8652,-3.8672,-3.873,-3.9101,-3.9512,-3.9961,-4.0351,-4.0976,-4.1797,-4.1797,-4.2031,-4.2422,-4.2422,-4.2461,-4.25,-4.25,-4.2519,-4.2637,-4.3418,-4.3711,-4.3711,-4.3711,-4.3711,-4.3711,-1.5708,-1.6878,0.0,0.0,0.0,0.0,0.0,0.0,0.0,-1.9073,-1.9824,-1.9893,-1.8717,-1.9545,-1.9349,-1.7271,-1.9083,-1.9871,-1.8794,-2.04,-2.1443,-2.1617,-2.1296,-2.1189,0.0,0.0,0.0,0.0,-2.0588,0.0,0.0,0.0,0.0,0.0,-2.0535,0.0,-2.1496,0.0,-2.3113,-2.342,-2.3848,-2.4369,-2.485,-2.4382,-2.4382,-2.4636,-2.4636,-2.4556,-2.4422,-2.4262,-2.4315,-2.4369,-2.3915,-2.3768,-2.3594,-2.2686,-2.2218,-2.1897,-2.1483,-2.1496,-2.1577,-2.1403,-2.1496,-2.1523,-2.1189,-2.0975,-2.0855,-2.0855,0.0,0.0,0.0,0.0,0.0,0.0,-2.3013,-2.4423,-2.4378,-2.7162,-2.9695,-3.1097,-3.3341,-3.5176,-3.6191,-3.7012,-3.7598,-3.791,-3.8262,-3.8379,-3.8203,-3.8437,-3.8574,-3.8574,-3.8574,-3.8691,-3.8945,-3.9121,-3.9551,-4.0254,-4.043,-4.084,-4.1426,-4.1426,-4.1523,-4.1699,-4.1699,-4.1836,-4.207,-4.207,-4.2207,-4.2461,-4.2812,-4.3105,-4.3359,-4.3613,-4.3711,-4.3711,-1.397,0.0,0.0,0.0,0.0,0.0,0.0,0.0,0.0,-1.7208,-1.8299,-1.8513,-1.7085,-1.8373,-1.8424,-1.6031,-1.8017,-1.9149,-1.8529,-1.9907,-2.115,-2.1977,-2.1496,-2.1336,-2.1614,-2.1336,0.0,0.0,0.0,0.0,0.0,0.0,0.0,0.0,0.0,-2.143,-2.2044,0.0,-2.3541,-2.3915,-2.4115,-2.4462,-2.481,-2.4543,-2.4529,-2.4636,-2.4636,-2.4636,-2.4609,-2.4489,-2.4529,-2.4569,-2.4142,-2.3901,-2.3607,-2.2779,-2.2392,-2.2164,-2.1871,-2.1884,-2.1951,-2.1817,-2.1764,-2.1657,-2.1309,-2.1002,-2.0802,-2.0802,-2.0802,0.0,0.0,0.0,-2.1109,-2.1109,0.0,-2.3277,-2.2933,-2.5123,-2.7147,-2.8359,-3.0938,-3.3168,-3.4643,-3.5821,-3.6699,-3.7187,-3.7656,-3.7871,-3.7754,-3.8164,-3.8457,-3.8574,-3.8574,-3.8769,-3.9199,-3.9336,-3.9766,-4.0527,-4.0644,-4.0859,-4.1172,-4.1172,-4.1172,-4.1172,-4.1172,-4.1348,-4.1621,-4.1621,-4.1816,-4.209,-4.2207,-4.2441,-4.2773,-4.3203,-4.3359,-4.3359,-1.085,-1.2223,0.0,0.0,0.0,0.0,0.0,0.0,-1.7419,-1.7208,-1.7107,-1.7097,-1.7168,-1.5165,-1.3883,-1.4241,-1.3942,-1.462,-1.657,-1.7973,-1.9752,-2.1912,-2.1762,-2.1601,-2.1614,-2.1601,0.0,0.0,0.0,0.0,0.0,0.0,0.0,0.0,0.0,-2.143,-2.2044,-2.2953,-2.3661,-2.4195,-2.4195,-2.4209,-2.4289,-2.4836,-2.4877,-2.4636,-2.4636,-2.4636,-2.4676,-2.4957,-2.4863,-2.4636,-2.4609,-2.4222,-2.3647,-2.3033,-2.2914,-2.2766,-2.2472,-2.2191,-2.2044,-2.2325,-2.1764,-2.1203,-2.1483,-2.1309,-2.1096,-2.1096,-2.1096,-2.1096,-2.1096,-2.1096,-2.1109,0.0,-2.1186,0.0,0.0,-2.2683,-2.4486,-2.6454,-2.893,-3.0792,-3.1629,-3.4317,-3.5879,-3.5508,-3.6992,-3.7754,-3.7344,-3.7715,-3.8144,-3.8555,-3.8574,-3.8769,-3.9199,-3.9648,-4.0098,-4.0527,-4.0957,-4.1172,-4.1172,-4.1172,-4.1172,-4.1172,-4.1172,-4.1172,-4.1191,-4.1191,-4.1211,-4.125,-4.166,-4.1836,-4.1894,-4.2305,-4.2461,-4.2461,0.0,0.0,0.0,0.0,0.0,0.0,-1.3207,-1.3555,-1.368,-1.3625,-1.4792,-1.5159,-1.3937,-1.5044,-1.4946,-1.2798,-1.4518,-1.555,-1.5208,-1.7769,-1.9725,-2.0681,-2.1488,-2.1844,-2.1844,-2.1844,-2.155,0.0,0.0,0.0,0.0,0.0,0.0,0.0,0.0,-2.2191,0.0,0.0,0.0,-2.4783,-2.4783,-2.4783,-2.4756,-2.4569,-2.4556,-2.4636,-2.4636,-2.4636,-2.4649,-2.4756,-2.485,-2.4863,-2.4476,-2.4342,-2.4182,-2.3407,-2.302,-2.2886,-2.2993,-2.2953,-2.2899,-2.2993,-2.2792,-2.2498,-2.2191,-2.1603,-2.1109,-2.1109,-2.0962,-2.0882,-2.1069,-2.1109,-2.1176,0.0,0.0,-2.1042,0.0,-2.1313,-2.2032,-2.288,-2.6134,-2.8985,-3.0683,-3.3443,-3.5078,-3.4941,-3.6016,-3.6719,-3.6875,-3.7285,-3.7832,-3.8555,-3.8574,-3.8769,-3.9199,-3.9668,-4.0098,-4.0527,-4.0976,-4.1172,-4.1172,-4.1172,-4.1172,-4.1172,-4.1172,-4.1172,-4.1172,-4.1172,-4.1172,-4.1191,-4.1328,-4.1387,-4.1465,-4.2168,-4.2422,-4.2383,-1.0717,0.0,0.0,-1.0717,-1.0887,-1.1111,-1.1355,-1.1687,-1.1891,-1.1837,-1.3104,-1.3498,-1.2141,-1.389,-1.4217,-1.1962,-1.3721,-1.507,-1.5406,-1.6758,-1.8672,-2.102,-2.1154,-2.1512,-2.2298,-2.2098,-2.1804,-2.1416,0.0,-2.0414,0.0,0.0,0.0,0.0,0.0,-2.2231,-2.2752,-2.3554,-2.4235,0.0,-2.477,-2.477,-2.473,-2.4342,-2.4516,-2.4917,-2.4716,-2.4636,-2.4636,-2.4636,-2.4756,-2.485,-2.4476,-2.4422,-2.4369,-2.3808,-2.35,-2.3407,-2.3714,-2.3634,-2.3527,-2.3741,-2.3474,-2.3086,-2.2806,-2.2218,-2.1737,-2.1737,-2.1496,-2.1349,-2.1537,-2.1403,-2.1336,0.0,0.0,0.0,0.0,-2.0828,-2.0895,-2.1082,-2.4499,-2.752,-2.9168,-3.2192,-3.4141,-3.4453,-3.5137,-3.5879,-3.6641,-3.6934,-3.7539,-3.8555,-3.8574,-3.8769,-3.9199,-3.9492,-3.9941,-4.0527,-4.0801,-4.1035,-4.1172,-4.1172,-4.1172,-4.1172,-4.1172,-4.1172,-4.1172,-4.1172,-4.1172,-4.1172,-4.1172,-4.1172,-4.125,-4.1777,-4.1973,-4.1953,0.0,-1.0724,-1.0731,-1.0744,-1.0982,-1.1219,-1.1369,-1.1769,-1.1999,-1.1864,-1.2094,-1.2169,-1.1884,-1.185,-1.185,-1.185,-1.1721,-1.3126,-1.6725,-1.5131,-1.6559,-2.2242,-2.0605,-2.0513,-2.2722,-2.2178,-2.1951,-2.2004,-2.0855,0.0,0.0,0.0,0.0,0.0,-2.0842,0.0,-2.2458,-2.3046,-2.3647,-2.4209,-2.4249,-2.4262,-2.4262,-2.4235,-2.4756,-2.5438,-2.485,-2.4636,-2.4636,-2.4636,-2.4636,-2.4636,-2.4636,-2.4449,-2.4222,-2.4222,-2.4209,-2.4262,-2.4556,-2.4235,-2.3955,-2.4516,-2.3794,-2.3033,-2.3327,-2.3126,-2.2954,-2.2954,-2.2645,-2.2445,-2.2458,-2.1977,-2.1641,0.0,0.0,0.0,-2.1109,-2.1096,-2.1096,-2.1109,-2.4054,-2.6343,-2.7164,-3.0523,-3.3062,-3.3945,-3.4434,-3.5254,-3.6543,-3.6641,-3.7226,-3.8476,-3.8535,-3.873,-3.9141,-3.916,-3.9609,-4.0469,-4.0508,-4.0762,-4.1172,-4.1172,-4.1172,-4.1172,-4.1172,-4.1172,-4.1172,-4.1172,-4.1172,-4.1172,-4.1172,-4.1172,-4.1172,-4.1172,-4.1172,-4.1172,-1.0744,-1.0812,-1.0921,-1.1029,-1.1206,-1.1348,-1.1389,-1.1674,-1.1918,-1.1993,-1.2074,-1.2135,-1.2169,-1.2169,-1.2169,-1.2169,-1.2033,-1.2388,-1.3331,-1.4221,-1.5307,-1.6716,-1.7582,-1.8909,-2.0756,-2.0691,-2.1145,-2.2311,-2.1577,0.0,-2.0548,0.0,0.0,0.0,0.0,0.0,-2.2445,-2.2819,-2.346,-2.4262,-2.4917,-2.5184,-2.513,-2.469,-2.493,-2.5438,-2.485,-2.4636,-2.4636,-2.4636,-2.4636,-2.4636,-2.4636,-2.4583,-2.4529,-2.4529,-2.4369,-2.4262,-2.4556,-2.4529,-2.4502,-2.4877,-2.4569,-2.4195,-2.4275,-2.3728,-2.3207,-2.3207,-2.2966,-2.2819,-2.3046,-2.2418,-2.1951,-2.2164,-2.1403,-2.0869,-2.1082,-2.0922,-2.0869,-2.1082,-2.4268,-2.6426,-2.6326,-2.9164,-3.1584,-3.3043,-3.4101,-3.5,-3.5684,-3.6328,-3.6973,-3.7598,-3.793,-3.8144,-3.8242,-3.8574,-3.9004,-3.9551,-4.0215,-4.0762,-4.1172,-4.1172,-4.1172,-4.1172,-4.1172,-4.1172,-4.1172,-4.1172,-4.1172,-4.1172,-4.1172,-4.1172,-4.1172,-4.1172,-4.1172,-4.1172,-1.0928,-1.1036,-1.1145,-1.1158,-1.1396,-1.1586,-1.1586,-1.1837,-1.206,-1.2149,-1.2216,-1.2264,-1.2284,-1.2345,-1.2359,-1.2298,-1.221,-1.2503,-1.3237,-1.3527,-1.4359,-1.5931,-1.6192,-1.7181,-1.9189,-1.8882,-1.9565,-2.1233,-2.0542,0.0,0.0,0.0,0.0,0.0,0.0,-2.1403,-2.2285,-2.31,-2.3741,-2.4262,-2.4877,-2.5211,0.0,-2.481,-2.4917,-2.5277,-2.4943,-2.4743,-2.4636,-2.4636,-2.4636,-2.4636,-2.4636,-2.4636,-2.4663,-2.4796,-2.4716,-2.4649,-2.4943,-2.493,-2.4903,-2.5197,-2.505,-2.4863,-2.4997,-2.4636,-2.4249,-2.4115,-2.3848,-2.3647,-2.3701,-2.2979,-2.2298,-2.2071,-2.1376,-2.0922,-2.1082,-2.0962,-2.0922,-2.1096,-2.2923,-2.4377,-2.4917,-2.8871,-3.1897,-3.2984,-3.373,-3.459,-3.5605,-3.5957,-3.6484,-3.7266,-3.7891,-3.8027,-3.7656,-3.8437,-3.8965,-3.9199,-3.9922,-4.0566,-4.1172,-4.1172,-4.1172,-4.1172,-4.1172,-4.1172,-4.1172,-4.1172,-4.1172,-4.1172,-4.1172,-4.1172,-4.1172,-4.1172,-4.1172,-4.1172,-1.1199,-1.1314,-1.1382,-1.1267,-1.1586,-1.187,-1.1884,-1.2101,-1.2271,-1.2291,-1.24,-1.2427,-1.2305,-1.242,-1.2454,-1.2332,-1.2318,-1.3007,-1.4481,-1.3073,-1.3588,-1.6857,-1.5337,-1.5471,-1.7709,-1.7096,-1.7631,-1.9552,-1.8676,0.0,0.0,0.0,0.0,0.0,0.0,0.0,0.0,-2.3661,-2.4289,-2.4342,-2.4676,-2.4943,-2.5104,-2.485,-2.4917,-2.5144,-2.5144,-2.4917,-2.4636,-2.4636,-2.4663,-2.469,-2.469,-2.4716,-2.4796,-2.5064,-2.5144,-2.5197,-2.5451,-2.5358,-2.5251,-2.5504,-2.5384,-2.5264,-2.5518,-2.5545,-2.5438,-2.5184,-2.493,-2.4663,-2.4369,-2.3554,-2.2645,-2.1869,-2.1416,-2.1229,-2.1229,-2.1256,-2.1269,-2.1229,-2.1447,0.0,-2.3524,-2.8694,-3.2277,-3.2889,-3.3024,-3.3843,-3.5684,-3.5306,-3.5714,-3.709,-3.791,-3.8027,-3.7383,-3.8476,-3.9121,-3.9297,-3.9707,-4.0351,-4.1172,-4.1172,-4.1172,-4.1172,-4.1172,-4.1172,-4.1172,-4.1172,-4.1172,-4.1172,-4.1172,-4.1172,-4.1172,-4.1172,-4.1172,-4.1172,-1.1375,-1.147,-1.1606,-1.1701,-1.1884,-1.206,-1.2189,-1.2149,-1.2149,-1.2277,-1.2311,-1.2318,-1.2291,-1.242,-1.2488,-1.2467,-1.2467,-1.2608,-1.2881,-1.2574,-1.2671,-1.3227,-1.3011,-1.3778,-1.5777,-1.5541,-1.6287,-1.8101,-1.7441,0.0,0.0,0.0,0.0,0.0,0.0,0.0,-2.3153,-2.4142,-2.4703,-2.497,-2.5504,-2.5611,-2.5424,-2.5371,-2.5398,-2.5438,-2.5438,-2.509,-2.4636,-2.4636,-2.4796,-2.4997,-2.4997,-2.517,-2.5371,-2.5424,-2.5438,-2.5451,-2.5504,-2.5651,-2.5812,-2.5865,-2.5916,-2.5812,-2.5865,-2.5692,-2.5504,-2.5451,-2.5398,-2.5264,-2.4983,-2.4008,-2.3033,-2.2378,-2.2017,-2.183,-2.183,-2.2031,-2.2098,-2.1857,-2.3332,-2.4301,-2.3959,-2.6221,-2.842,-3.0215,-3.0874,-3.2198,-3.431,-3.3632,-3.4078,-3.6142,-3.6738,-3.7266,-3.7812,-3.8027,-3.8691,-3.9766,-3.9863,-4.0351,-4.1172,-4.1172,-4.1172,-4.1172,-4.1172,-4.1172,-4.1172,-4.1172,-4.1172,-4.1172,-4.1172,-4.1172,-4.1172,-4.1172,-4.1172,-4.1172,-1.1619,-1.1681,-1.1748,-1.1816,-1.1959,-1.2088,-1.2162,-1.2176,-1.223,-1.2379,-1.24,-1.24,-1.24,-1.2461,-1.2501,-1.2501,-1.2501,-1.2501,-1.2501,-1.2501,-1.2474,-1.2406,-1.2467,-1.2923,-1.3824,-1.3748,-1.4511,-1.6002,-1.5728,-1.6088,0.0,0.0,0.0,0.0,0.0,-2.2498,0.0,-2.4422,-2.5037,-2.5344,-2.5785,-2.6052,-2.6159,-2.5852,-2.5838,-2.5945,-2.5798,-2.5464,-2.509,-2.509,-2.5184,-2.5304,-2.5304,-2.5398,-2.5545,-2.5692,-2.5745,-2.5745,-2.5745,-2.5852,-2.6037,-2.6037,-2.6037,-2.6077,-2.6146,-2.6066,-2.5932,-2.5772,-2.5745,-2.5611,-2.5157,-2.4489,-2.3808,-2.322,-2.2739,-2.2392,-2.2231,-2.2338,-2.2365,-2.2231,-2.3112,-2.3478,-2.3026,-2.4332,-2.649,-2.9501,-3.1058,-3.2568,-3.4355,-3.3955,-3.4423,-3.5928,-3.6875,-3.7187,-3.6934,-3.8027,-3.8691,-3.8887,-3.957,-4.0234,-4.084,-4.1074,-4.1172,-4.1172,-4.1172,-4.1172,-4.1172,-4.1172,-4.1172,-4.1172,-4.1172,-4.1172,-4.1172,-4.1172,-4.1172,-4.1172,-1.1857,-1.1904,-1.1925,-1.1925,-1.2026,-1.2121,-1.2149,-1.223,-1.2338,-1.2481,-1.2501,-1.2501,-1.2501,-1.2501,-1.2515,-1.2549,-1.2522,-1.2515,-1.2549,-1.2549,-1.2549,-1.2549,-1.261,-1.263,-1.2603,-1.2596,-1.3054,-1.3953,-1.3881,-1.4376,-1.5385,0.0,0.0,0.0,0.0,-2.33,-2.3768,-2.4756,-2.5371,-2.5718,-2.6026,-2.6413,-2.6774,-2.6386,-2.6373,-2.6547,-2.6319,-2.6079,-2.5879,-2.5879,-2.5758,-2.5611,-2.5611,-2.5651,-2.5745,-2.5985,-2.613,-2.613,-2.613,-2.613,-2.6066,-2.6132,-2.6146,-2.6213,-2.6507,-2.6573,-2.6493,-2.6199,-2.6039,-2.5812,-2.5344,-2.497,-2.4583,-2.4128,-2.3541,-2.3046,-2.2752,-2.2806,-2.2819,-2.2632,-2.2726,-2.2632,-2.2218,-2.3371,-2.5406,-2.8379,-3.0468,-3.2428,-3.4492,-3.4224,-3.468,-3.625,-3.709,-3.7207,-3.6562,-3.8144,-3.873,-3.8359,-3.9394,-4.0117,-4.0547,-4.0976,-4.1172,-4.1172,-4.1172,-4.1172,-4.1172,-4.1172,-4.1172,-4.1172,-4.1172,-4.1172,-4.1172,-4.1172,-4.1172,-4.1172,-1.204,-1.2149,-1.225,-1.225,-1.2257,-1.2311,-1.244,-1.2366,-1.2338,-1.2481,-1.2501,-1.2501,-1.2501,-1.2501,-1.2556,-1.2698,-1.2583,-1.2562,-1.2698,-1.2712,-1.2712,-1.2712,-1.2963,-1.3051,-1.2922,-1.2922,-1.2777,-1.2471,-1.2187,-1.2567,-1.3555,0.0,0.0,-2.0251,-2.2653,-2.4142,-2.4943,-2.5317,-2.5798,-2.6333,-2.6627,-2.6774,-2.6841,-2.7054,-2.7161,-2.7188,-2.7148,-2.7121,-2.7108,-2.7108,-2.6573,-2.5919,-2.5919,-2.6092,-2.6306,-2.6346,-2.6346,-2.6346,-2.6346,-2.6346,-2.6413,-2.668,-2.6747,-2.6814,-2.7121,-2.7188,-2.7094,-2.68,-2.6319,-2.601,-2.5956,-2.5411,-2.5024,-2.497,-2.4462,-2.3981,-2.3688,-2.4102,-2.4128,-2.334,-2.3714,-2.3701,-2.2859,-2.4028,-2.4895,-2.5062,-2.6679,-2.9542,-3.3934,-3.259,-3.342,-3.7039,-3.6543,-3.6894,-3.832,-3.8144,-3.8594,-3.9707,-3.9844,-4.0117,-4.0547,-4.0976,-4.1172,-4.1172,-4.1172,-4.1172,-4.1172,-4.1172,-4.1172,-4.1172,-4.1172,-4.1172,-4.1172,-4.1172,-4.1172,-4.1172,-1.2413,-1.244,-1.2447,-1.2535,-1.2556,-1.2576,-1.263,-1.2671,-1.2712,-1.2773,-1.2698,-1.2637,-1.2637,-1.2725,-1.28,-1.2861,-1.2813,-1.2807,-1.2868,-1.2868,-1.2868,-1.2868,-1.3064,-1.3105,-1.2963,-1.3044,-1.2868,-1.242,-1.221,-1.2272,-1.2578,-1.3808,-1.5983,-1.8947,-2.1398,-2.2856,-2.3411,-2.3683,-2.4903,-2.6574,-2.538,-2.5865,-2.7335,-2.7281,-2.7375,-2.7509,-2.7321,-2.7268,-2.7268,-2.7268,-2.7028,-2.6747,-2.6747,-2.6827,-2.6921,-2.6921,-2.6921,-2.6921,-2.6921,-2.6921,-2.6947,-2.7054,-2.7094,-2.7121,-2.7241,-2.7268,-2.7228,-2.7108,-2.676,-2.6426,-2.6253,-2.6026,-2.5745,-2.5398,-2.5144,-2.477,-2.4115,-2.4529,-2.4636,-2.3941,-2.4062,-2.3995,-2.346,-2.3406,-2.3719,-2.4431,-2.6263,-2.8884,-3.2413,-3.21,-3.3527,-3.7156,-3.6719,-3.6973,-3.8164,-3.8008,-3.832,-3.9101,-3.9648,-4.0117,-4.0547,-4.0976,-4.1172,-4.1172,-4.1172,-4.1172,-4.1172,-4.1172,-4.1172,-4.1172,-4.1172,-4.1172,-4.1172,-4.1172,-4.1172,-4.1172,-1.2739,-1.2712,-1.2671,-1.2779,-1.28,-1.28,-1.28,-1.2888,-1.2963,-1.2963,-1.2901,-1.2847,-1.28,-1.2895,-1.3056,-1.3097,-1.2983,-1.3056,-1.3024,-1.3024,-1.3024,-1.3024,-1.3159,-1.3193,-1.3091,-1.3146,-1.3017,-1.2698,-1.2508,-1.2298,-1.2135,-1.3992,-1.5715,-1.7483,-1.9908,-2.1133,-2.148,-2.1794,-2.344,-2.5766,-2.4359,-2.531,-2.7682,-2.7562,-2.7655,-2.7802,-2.7602,-2.7522,-2.7522,-2.7522,-2.7522,-2.7495,-2.7321,-2.7268,-2.7268,-2.7268,-2.7268,-2.7268,-2.7268,-2.7268,-2.7281,-2.7375,-2.7388,-2.7415,-2.7509,-2.7522,-2.7495,-2.7415,-2.7161,-2.6894,-2.668,-2.6653,-2.648,-2.5985,-2.5825,-2.5464,-2.4583,-2.497,-2.509,-2.4409,-2.4556,-2.4569,-2.4195,-2.3581,-2.3474,-2.4176,-2.5604,-2.7899,-3.1269,-3.2306,-3.4199,-3.707,-3.6582,-3.6816,-3.791,-3.7793,-3.8086,-3.8769,-3.9531,-4.0117,-4.0547,-4.0976,-4.1172,-4.1172,-4.1172,-4.1172,-4.1172,-4.1172,-4.1172,-4.1172,-4.1172,-4.1172,-4.1172,-4.1172,-4.1172,-4.1172,-1.3036,-1.3036,-1.2956,-1.3036,-1.3036,-1.3036,-1.3036,-1.3043,-1.2963,-1.2963,-1.3078,-1.3112,-1.2976,-1.3043,-1.3017,-1.3159,-1.3044,-1.3024,-1.3159,-1.3173,-1.3173,-1.3173,-1.3315,-1.3397,-1.3397,-1.3247,-1.3166,-1.3166,-1.2868,-1.2494,-1.2135,-1.4186,-1.5455,-1.6168,-1.85,-1.9553,-1.9583,-1.9947,-2.1452,-2.3656,-2.3997,-2.5573,-2.7736,-2.8016,-2.8221,-2.8221,-2.8221,-2.8221,-2.8221,-2.8221,-2.8221,-2.8114,-2.7537,-2.7268,-2.7268,-2.7268,-2.7268,-2.7268,-2.7268,-2.7268,-2.7335,-2.7629,-2.7696,-2.7762,-2.8154,-2.8221,-2.814,-2.7749,-2.7468,-2.7255,-2.7255,-2.7255,-2.7161,-2.6854,-2.656,-2.6066,-2.5197,-2.5571,-2.5625,-2.473,-2.5398,-2.5705,-2.5117,-2.505,-2.469,-2.3892,-2.3825,-2.5958,-3.0732,-3.3291,-3.5312,-3.6641,-3.5859,-3.6211,-3.791,-3.7519,-3.793,-3.9199,-3.9668,-4.0117,-4.0547,-4.0976,-4.1172,-4.1172,-4.1172,-4.1172,-4.1172,-4.1172,-4.1172,-4.1172,-4.1172,-4.1172,-4.1172,-4.1172,-4.1172,-4.1172,-1.322,-1.3261,-1.3261,-1.3261,-1.3261,-1.3261,-1.3261,-1.3261,-1.3261,-1.3261,-1.3302,-1.3308,-1.3268,-1.3261,-1.3281,-1.3322,-1.3288,-1.3281,-1.3322,-1.3329,-1.3329,-1.3329,-1.3376,-1.3403,-1.3403,-1.3356,-1.3275,-1.3173,-1.2983,-1.2759,-1.2522,-1.3318,-1.3842,-1.4224,-1.6478,-1.7602,-1.7754,-1.793,-1.9454,-2.1705,-2.1938,-2.3456,-2.5857,-2.7591,-2.8221,-2.8221,-2.8221,-2.8221,-2.8221,-2.8221,-2.8221,-2.8194,-2.8006,-2.7953,-2.7953,-2.7953,-2.7953,-2.7953,-2.7953,-2.7953,-2.7966,-2.806,-2.8003,-2.8114,-2.8207,-2.8221,-2.814,-2.7762,-2.7629,-2.7495,-2.7308,-2.7268,-2.7175,-2.6867,-2.6921,-2.668,-2.5798,-2.6012,-2.5999,-2.5317,-2.5304,-2.5358,-2.5371,-2.501,-2.4663,-2.4382,-2.5761,-2.7545,-2.9766,-3.0678,-3.3048,-3.739,-3.6699,-3.709,-3.8769,-3.8086,-3.8379,-3.9668,-3.9824,-4.0273,-4.0976,-4.1113,-4.1172,-4.1172,-4.1172,-4.1172,-4.1172,-4.1172,-4.1172,-4.1172,-4.1172,-4.1172,-4.1172,-4.1172,-4.1172,-4.1172,-1.3363,-1.3403,-1.3403,-1.3403,-1.3403,-1.3403,-1.3403,-1.3403,-1.3403,-1.3403,-1.3403,-1.3403,-1.3403,-1.3403,-1.3403,-1.3403,-1.3403,-1.3403,-1.3403,-1.3403,-1.3403,-1.3403,-1.3403,-1.3403,-1.3403,-1.3403,-1.3356,-1.3261,-1.3227,-1.3166,-1.3071,-1.322,-1.3342,-1.3507,-1.4916,-1.5599,-1.5716,-1.5895,-1.7383,-1.9543,-1.9695,-2.1786,-2.4861,-2.6321,-2.7448,-2.8221,-2.8221,-2.8221,-2.8221,-2.8221,-2.8221,-2.8221,-2.8221,-2.8221,-2.8221,-2.8221,-2.8221,-2.8221,-2.8221,-2.8221,-2.8221,-2.8221,-2.8221,-2.8221,-2.8221,-2.8221,-2.8181,-2.7896,-2.7869,-2.7816,-2.7712,-2.7671,-2.7495,-2.7201,-2.7308,-2.7161,-2.6386,-2.6533,-2.6547,-2.6066,-2.5838,-2.5758,-2.5838,-2.5411,-2.509,-2.497,-2.6019,-2.7348,-2.8948,-3.0263,-3.2926,-3.7027,-3.6855,-3.7324,-3.8711,-3.8184,-3.8594,-3.9902,-4.0215,-4.0664,-4.1172,-4.1172,-4.1172,-4.1172,-4.1172,-4.1172,-4.1172,-4.1172,-4.1172,-4.1172,-4.1172,-4.1172,-4.1172,-4.1172,-4.1172,-4.1172,-1.3403,-1.3403,-1.3403,-1.3403,-1.3403,-1.3403,-1.3403,-1.3403,-1.3403,-1.3403,-1.3403,-1.3403,-1.3403,-1.3403,-1.3403,-1.3417,-1.3403,-1.3403,-1.3403,-1.3403,-1.3403,-1.3417,-1.3417,-1.3424,-1.3431,-1.3431,-1.3431,-1.3431,-1.3573,-1.3641,-1.3648,-1.3777,-1.3838,-1.3838,-1.3851,-1.3858,-1.3865,-1.4021,-1.5379,-1.7268,-1.7696,-2.0356,-2.4252,-2.4434,-2.5896,-2.7968,-2.7968,-2.8052,-2.8221,-2.8221,-2.8221,-2.8221,-2.8221,-2.8221,-2.8221,-2.8221,-2.8221,-2.8221,-2.8221,-2.8221,-2.8221,-2.8221,-2.8221,-2.8221,-2.8221,-2.8221,-2.8221,-2.8221,-2.8221,-2.8221,-2.8221,-2.8221,-2.814,-2.7776,-2.7722,-2.7522,-2.6934,-2.7068,-2.7121,-2.6827,-2.6774,-2.6667,-2.6413,-2.6146,-2.5865,-2.5598,-2.5064,-2.5852,-2.8447,-3.1716,-3.4275,-3.5879,-3.6474,-3.7148,-3.7969,-3.7969,-3.8613,-3.9902,-4.0762,-4.1172,-4.1172,-4.1172,-4.1172,-4.1172,-4.1172,-4.1172,-4.1172,-4.1172,-4.1172,-4.1172,-4.1172,-4.1172,-4.1172,-4.1172,-4.1172,-4.1172,-1.3403,-1.3403,-1.3403,-1.3403,-1.3403,-1.3403,-1.3403,-1.3403,-1.3403,-1.3403,-1.3403,-1.3403,-1.3403,-1.3403,-1.3451,-1.3566,-1.3464,-1.3403,-1.3403,-1.3403,-1.3451,-1.3566,-1.3573,-1.3627,-1.3736,-1.3736,-1.3736,-1.3736,-1.377,-1.379,-1.379,-1.3824,-1.3838,-1.3844,-1.3966,-1.4014,-1.4027,-1.4183,-1.4597,-1.5206,-1.7055,-1.8453,-1.9575,-2.1394,-2.347,-2.5543,-2.5543,-2.6673,-2.8221,-2.8221,-2.8221,-2.8221,-2.8221,-2.8221,-2.8221,-2.8221,-2.8221,-2.8221,-2.8221,-2.8221,-2.8221,-2.8221,-2.8221,-2.8221,-2.8221,-2.8221,-2.8221,-2.8221,-2.8221,-2.8221,-2.8221,-2.8221,-2.8207,-2.8043,-2.8043,-2.7829,-2.7241,-2.7028,-2.6814,-2.6533,-2.6293,-2.6226,-2.6373,-2.6333,-2.6253,-2.6186,-2.6052,-2.7339,-3.0383,-3.1919,-3.3505,-3.5119,-3.6756,-3.7891,-3.8418,-3.8418,-3.8926,-3.9902,-4.0762,-4.1172,-4.1172,-4.1172,-4.1172,-4.1172,-4.1172,-4.1172,-4.1172,-4.1172,-4.1172,-4.1172,-4.1172,-4.1172,-4.1172,-4.1172,-4.1172,-4.1172,-1.3403,-1.3403,-1.3403,-1.3403,-1.3403,-1.3403,-1.3403,-1.3403,-1.3424,-1.3498,-1.3505,-1.3532,-1.3593,-1.36,-1.3634,-1.3722,-1.3593,-1.3532,-1.36,-1.36,-1.3641,-1.3722,-1.3729,-1.3763,-1.3838,-1.3838,-1.3838,-1.3838,-1.3912,-1.3946,-1.3946,-1.4021,-1.4048,-1.4055,-1.4136,-1.4177,-1.4183,-1.4265,-1.4299,-1.4387,-1.569,-1.6809,-1.7929,-1.915,-2.1739,-2.4691,-2.4691,-2.6236,-2.8221,-2.8221,-2.8221,-2.8221,-2.8221,-2.8221,-2.8221,-2.8221,-2.8221,-2.8221,-2.8221,-2.8221,-2.8221,-2.8221,-2.8221,-2.8221,-2.8221,-2.8221,-2.8221,-2.8221,-2.8221,-2.8221,-2.8221,-2.8221,-2.8221,-2.8221,-2.8114,-2.7776,-2.7321,-2.7121,-2.6921,-2.6627,-2.6453,-2.636,-2.6386,-2.6266,-2.6186,-2.6186,-2.6066,-2.7249,-3.0244,-3.1599,-3.3438,-3.5933,-3.7413,-3.834,-3.8574,-3.8984,-3.9414,-3.9902,-4.0762,-4.1172,-4.1172,-4.1172,-4.1172,-4.1172,-4.1172,-4.1172,-4.1172,-4.1172,-4.1172,-4.1172,-4.1172,-4.1172,-4.1172,-4.1172,-4.1172,-4.1172,-1.3437,-1.3451,-1.3464,-1.3464,-1.3464,-1.3464,-1.3464,-1.3464,-1.3512,-1.3641,-1.3661,-1.3709,-1.3831,-1.3838,-1.3851,-1.3871,-1.3763,-1.3736,-1.3745,-1.3838,-1.3851,-1.3871,-1.3878,-1.3885,-1.3912,-1.3912,-1.3912,-1.3912,-1.4041,-1.4109,-1.4109,-1.4238,-1.4299,-1.4299,-1.4299,-1.4299,-1.4299,-1.4299,-1.4299,-1.4299,-1.4299,-1.5513,-1.7238,-1.7238,-2.0096,-2.4166,-2.4166,-2.5896,-2.8221,-2.8221,-2.8221,-2.8221,-2.8221,-2.8221,-2.8221,-2.8221,-2.8221,-2.8221,-2.8221,-2.8221,-2.8221,-2.8221,-2.8221,-2.8221,-2.8221,-2.8221,-2.8221,-2.8221,-2.8221,-2.8221,-2.8221,-2.8221,-2.8221,-2.8221,-2.7856,-2.7549,-2.7308,-2.7188,-2.7041,-2.6787,-2.676,-2.6653,-2.6413,-2.6159,-2.6026,-2.6026,-2.5785,-2.6738,-2.9189,-3.0738,-3.3288,-3.6816,-3.8,-3.8574,-3.8574,-3.9453,-3.9902,-3.9902,-4.0762,-4.1172,-4.1172,-4.1172,-4.1172,-4.1172,-4.1172,-4.1172,-4.1172,-4.1172,-4.1172,-4.1172,-4.1172,-4.1172,-4.1172,-4.1172,-4.1172,-4.1172,-1.3593,-1.3688,-1.377,-1.377,-1.377,-1.377,-1.377,-1.377,-1.3783,-1.3804,-1.3804,-1.3817,-1.3838,-1.3838,-1.3892,-1.4021,-1.4014,-1.396,-1.3844,-1.3838,-1.3899,-1.4034,-1.4034,-1.4095,-1.4224,-1.4231,-1.4231,-1.4231,-1.4251,-1.4265,-1.4265,-1.4292,-1.4299,-1.4299,-1.4299,-1.4299,-1.4299,-1.4299,-1.4299,-1.4299,-1.4299,-1.4564,-1.4822,-1.4822,-1.7684,-2.1739,-2.1739,-2.4508,-2.8221,-2.8221,-2.8221,-2.8221,-2.8221,-2.8221,-2.8221,-2.8221,-2.8221,-2.8221,-2.8221,-2.8221,-2.8221,-2.8221,-2.8221,-2.8221,-2.8221,-2.8221,-2.8221,-2.8221,-2.8221,-2.8221,-2.8221,-2.8221,-2.8221,-2.8221,-2.7765,-2.7321,-2.7268,-2.6841,-2.6507,-2.6466,-2.6453,-2.644,-2.6386,-2.6346,-2.6319,-2.6319,-2.6279,-2.702,-2.8815,-2.947,-3.1485,-3.5139,-3.741,-3.8574,-3.8574,-3.9453,-3.9902,-3.9902,-4.0762,-4.1172,-4.1172,-4.1172,-4.1172,-4.1172,-4.1172,-4.1172,-4.1172,-4.1172,-4.1172,-4.1172,-4.1172,-4.1172,-4.1172,-4.1172,-4.1172,-4.1172,-1.3743,-1.3797,-1.3838,-1.3838,-1.3838,-1.3838,-1.3838,-1.3838,-1.3871,-1.3953,-1.3966,-1.3994,-1.4082,-1.4089,-1.4116,-1.419,-1.4197,-1.4163,-1.4095,-1.4089,-1.4122,-1.419,-1.4197,-1.4231,-1.4299,-1.4299,-1.4299,-1.4299,-1.4299,-1.4299,-1.4299,-1.4299,-1.4299,-1.4299,-1.4299,-1.4299,-1.4299,-1.4299,-1.4299,-1.4299,-1.4299,-1.4299,-1.4299,-1.4299,-1.6378,-1.9488,-2.0789,-2.3384,-2.6503,-2.7799,-2.8221,-2.8221,-2.8221,-2.8221,-2.8221,-2.8221,-2.8221,-2.8221,-2.8221,-2.8221,-2.8221,-2.8221,-2.8221,-2.8221,-2.8221,-2.8221,-2.8221,-2.8221,-2.8221,-2.8221,-2.8221,-2.8221,-2.8127,-2.7805,-2.7442,-2.7108,-2.6707,-2.6453,-2.6333,-2.6172,-2.6293,-2.6386,-2.6386,-2.6386,-2.6386,-2.6386,-2.6386,-2.7171,-2.9008,-2.9282,-3.0668,-3.3535,-3.6865,-3.8574,-3.8574,-3.9453,-3.9902,-3.9902,-4.0762,-4.1172,-4.1172,-4.1172,-4.1172,-4.1172,-4.1172,-4.1172,-4.1172,-4.1172,-4.1172,-4.1172,-4.1172,-4.1172,-4.1172,-4.1172,-4.1172,-4.1172,-1.3892,-1.3926,-1.3946,-1.3946,-1.3946,-1.3946,-1.3946,-1.3946,-1.3987,-1.4109,-1.4122,-1.417,-1.4285,-1.4299,-1.4299,-1.4299,-1.4299,-1.4299,-1.4299,-1.4299,-1.4299,-1.4299,-1.4299,-1.4299,-1.4299,-1.4299,-1.4299,-1.4299,-1.4299,-1.4299,-1.4299,-1.4299,-1.4299,-1.4299,-1.4299,-1.4299,-1.4299,-1.4299,-1.4299,-1.4299,-1.4299,-1.4299,-1.4299,-1.4299,-1.577,-1.8104,-2.0356,-2.2697,-2.5032,-2.7448,-2.8221,-2.8221,-2.8221,-2.8221,-2.8221,-2.8221,-2.8221,-2.8221,-2.8221,-2.8221,-2.8221,-2.8221,-2.8221,-2.8221,-2.8221,-2.8221,-2.8221,-2.8221,-2.8221,-2.8221,-2.8221,-2.8167,-2.7896,-2.7442,-2.7201,-2.6854,-2.6239,-2.6239,-2.6226,-2.6079,-2.6253,-2.6386,-2.6386,-2.6386,-2.6386,-2.6386,-2.6386,-2.7083,-2.8608,-2.8686,-2.9681,-3.1743,-3.5756,-3.7936,-3.8032,-3.9268,-3.9941,-4.0059,-4.082,-4.1172,-4.1172,-4.1172,-4.1172,-4.1172,-4.1172,-4.1172,-4.1172,-4.1172,-4.1172,-4.1172,-4.1172,-4.1172,-4.1172,-4.1172,-4.1172,-4.1172,-1.4055,-1.417,-1.4265,-1.4265,-1.4265,-1.4265,-1.4265,-1.4265,-1.4272,-1.4285,-1.4285,-1.4285,-1.4299,-1.4299,-1.4299,-1.4299,-1.4299,-1.4299,-1.4299,-1.4299,-1.4299,-1.4299,-1.4299,-1.4299,-1.4299,-1.4299,-1.4299,-1.4299,-1.4299,-1.4299,-1.4299,-1.4299,-1.4299,-1.4299,-1.4299,-1.4299,-1.4299,-1.4299,-1.4299,-1.4299,-1.4299,-1.4299,-1.4299,-1.4299,-1.577,-1.8104,-2.0356,-2.2697,-2.5032,-2.7448,-2.8221,-2.8221,-2.8221,-2.8221,-2.8221,-2.8221,-2.8221,-2.8221,-2.8221,-2.8221,-2.8221,-2.8221,-2.8221,-2.8221,-2.8221,-2.8221,-2.8221,-2.8221,-2.8221,-2.8221,-2.8221,-2.7923,-2.7722,-2.7669,-2.6987,-2.652,-2.6734,-2.6319,-2.6079,-2.6333,-2.6373,-2.6386,-2.6386,-2.6386,-2.6386,-2.6386,-2.6386,-2.6465,-2.6623,-2.6623,-2.7541,-2.9604,-3.3607,-3.5919,-3.6394,-3.8727,-4.0098,-4.0488,-4.0957,-4.1172,-4.1172,-4.1172,-4.1172,-4.1172,-4.1172,-4.1172,-4.1172,-4.1172,-4.1172,-4.1172,-4.1172,-4.1172,-4.1172,-4.1172,-4.1172,-4.1172,-1.4211,-1.4258,-1.4299,-1.4299,-1.4299,-1.4299,-1.4299,-1.4299,-1.4299,-1.4299,-1.4299,-1.4299,-1.4299,-1.4299,-1.4299,-1.4299,-1.4299,-1.4299,-1.4299,-1.4299,-1.4299,-1.4299,-1.4299,-1.4299,-1.4299,-1.4299,-1.4299,-1.4299,-1.4299,-1.4299,-1.4299,-1.4299,-1.4299,-1.4299,-1.4299,-1.4299,-1.4299,-1.4299,-1.4299,-1.4299,-1.4299,-1.4299,-1.4299,-1.4299,-1.4822,-1.5946,-1.8279,-2.0529,-2.2869,-2.5203,-2.7012,-2.8221,-2.8221,-2.8221,-2.8221,-2.8221,-2.8221,-2.8221,-2.8221,-2.8221,-2.8221,-2.8221,-2.8221,-2.8221,-2.8221,-2.8221,-2.8221,-2.8221,-2.7989,-2.7869,-2.7869,-2.7629,-2.7308,-2.6947,-2.676,-2.6573,-2.6319,-2.6253,-2.6266,-2.6373,-2.6386,-2.6386,-2.6386,-2.6386,-2.6386,-2.6386,-2.6386,-2.6386,-2.6386,-2.6386,-2.6768,-2.7541,-3.0484,-3.3346,-3.6146,-3.8899,-4.0371,-4.0527,-4.0976,-4.1172,-4.1172,-4.1172,-4.1172,-4.1172,-4.1172,-4.1172,-4.1172,-4.1172,-4.1172,-4.1172,-4.1172,-4.1172,-4.1172,-4.1172,-4.1172,-4.1172,-1.4299,-1.4299,-1.4299,-1.4299,-1.4299,-1.4299,-1.4299,-1.4299,-1.4299,-1.4299,-1.4299,-1.4299,-1.4299,-1.4299,-1.4299,-1.4299,-1.4299,-1.4299,-1.4299,-1.4299,-1.4299,-1.4299,-1.4299,-1.4299,-1.4299,-1.4299,-1.4299,-1.4299,-1.4299,-1.4299,-1.4299,-1.4299,-1.4299,-1.4299,-1.4299,-1.4299,-1.4299,-1.4299,-1.4299,-1.4299,-1.4299,-1.4299,-1.4299,-1.4299,-1.4299,-1.4646,-1.6984,-1.9228,-2.1566,-2.3909,-2.6236,-2.8221,-2.8221,-2.8221,-2.8221,-2.8221,-2.8221,-2.8221,-2.8221,-2.8221,-2.8221,-2.8221,-2.8221,-2.8221,-2.8221,-2.8221,-2.8221,-2.8221,-2.7909,-2.7696,-2.7696,-2.7388,-2.6987,-2.6587,-2.6613,-2.6547,-2.6146,-2.6266,-2.6386,-2.6386,-2.6386,-2.6386,-2.6386,-2.6386,-2.6386,-2.6386,-2.6386,-2.6386,-2.6386,-2.6386,-2.6426,-2.652,-2.8835,-3.1543,-3.4547,-3.7841,-3.9952,-4.0723,-4.1035,-4.1172,-4.1172,-4.1172,-4.1172,-4.1172,-4.1172,-4.1172,-4.1172,-4.1172,-4.1172,-4.1172,-4.1172,-4.1172,-4.1172,-4.1172,-4.1172,-4.1172,-1.4299,-1.4299,-1.4299,-1.4299,-1.4299,-1.4299,-1.4299,-1.4299,-1.4299,-1.4299,-1.4299,-1.4299,-1.4299,-1.4299,-1.4299,-1.4299,-1.4299,-1.4299,-1.4299,-1.4299,-1.4299,-1.4299,-1.4299,-1.4299,-1.4299,-1.4299,-1.4299,-1.4299,-1.4299,-1.4299,-1.4299,-1.4299,-1.4299,-1.4299,-1.4299,-1.4299,-1.4299,-1.4299,-1.4299,-1.4299,-1.4299,-1.4299,-1.4299,-1.4299,-1.4299,-1.4557,-1.6896,-1.9228,-2.1566,-2.3909,-2.6236,-2.8221,-2.8221,-2.8221,-2.8221,-2.8221,-2.8221,-2.8221,-2.8221,-2.8221,-2.8221,-2.8221,-2.8221,-2.8221,-2.8221,-2.8221,-2.8221,-2.8221,-2.7896,-2.7696,-2.7696,-2.7215,-2.6814,-2.6814,-2.6573,-2.6386,-2.6386,-2.6386,-2.6386,-2.6386,-2.6386,-2.6386,-2.6386,-2.6386,-2.6386,-2.6386,-2.6386,-2.6386,-2.6386,-2.6386,-2.6533,-2.6814,-2.9151,-3.0665,-3.0995,-3.5157,-3.8572,-4.1172,-4.1172,-4.1172,-4.1172,-4.1172,-4.1172,-4.1172,-4.1172,-4.1172,-4.1172,-4.1172,-4.1172,-4.1172,-4.1172,-4.1172,-4.1172,-4.1172,-4.1172,-4.1172,-1.4299,-1.4299,-1.4299,-1.4299,-1.4299,-1.4299,-1.4299,-1.4299,-1.4299,-1.4299,-1.4299,-1.4299,-1.4299,-1.4299,-1.4299,-1.4299,-1.4299,-1.4299,-1.4299,-1.4299,-1.4299,-1.4299,-1.4299,-1.4299,-1.4299,-1.4299,-1.4299,-1.4299,-1.4299,-1.4299,-1.4299,-1.4299,-1.4299,-1.4299,-1.4299,-1.4299,-1.4299,-1.4299,-1.4299,-1.4299,-1.4299,-1.4299,-1.4299,-1.4299,-1.4299,-1.4387,-1.508,-1.7851,-2.1307,-2.1998,-2.4935,-2.8221,-2.8221,-2.8221,-2.8221,-2.8221,-2.8221,-2.8221,-2.8221,-2.8221,-2.8221,-2.8221,-2.8221,-2.8221,-2.8221,-2.7976,-2.7829,-2.7829,-2.7428,-2.7081,-2.7081,-2.6774,-2.652,-2.652,-2.6453,-2.6386,-2.6386,-2.6386,-2.6386,-2.6386,-2.6386,-2.6386,-2.6386,-2.6386,-2.6386,-2.6386,-2.6386,-2.6386,-2.6386,-2.6587,-2.6734,-2.6814,-2.7948,-2.9289,-3.0995,-3.5492,-3.8104,-3.8882,-4.0431,-4.1172,-4.1172,-4.1172,-4.1172,-4.1172,-4.1172,-4.1172,-4.1172,-4.1172,-4.1172,-4.1172,-4.1172,-4.1172,-4.1172,-4.1172,-4.1172,-4.1172,-1.4299,-1.4299,-1.4299,-1.4299,-1.4299,-1.4299,-1.4299,-1.4299,-1.4299,-1.4299,-1.4299,-1.4299,-1.4299,-1.4299,-1.4299,-1.4299,-1.4299,-1.4299,-1.4299,-1.4299,-1.4299,-1.4299,-1.4299,-1.4299,-1.4299,-1.4299,-1.4299,-1.4299,-1.4299,-1.4299,-1.4299,-1.4299,-1.4299,-1.4299,-1.4299,-1.4299,-1.4299,-1.4299,-1.4299,-1.4299,-1.4299,-1.4299,-1.4299,-1.4299,-1.4299,-1.4299,-1.4299,-1.6729,-2.0009,-2.0875,-2.4326,-2.8221,-2.8221,-2.8221,-2.8221,-2.8221,-2.8221,-2.8221,-2.8221,-2.8221,-2.8221,-2.8221,-2.814,-2.7963,-2.7963,-2.7736,-2.7522,-2.7522,-2.7148,-2.6827,-2.6827,-2.6587,-2.6386,-2.6386,-2.6386,-2.6386,-2.6386,-2.6386,-2.6386,-2.6386,-2.6386,-2.6386,-2.6386,-2.6386,-2.6386,-2.6386,-2.6493,-2.656,-2.656,-2.6841,-2.7054,-2.7161,-2.7509,-2.84,-2.9904,-3.4391,-3.7082,-3.7896,-4.0099,-4.1172,-4.1172,-4.1172,-4.1172,-4.1172,-4.1172,-4.1172,-4.1172,-4.1172,-4.1172,-4.1172,-4.1172,-4.1172,-4.1172,-4.1172,-4.1172,-4.1172,-1.4299,-1.4299,-1.4299,-1.4299,-1.4299,-1.4299,-1.4299,-1.4299,-1.4299,-1.4299,-1.4299,-1.4299,-1.4299,-1.4299,-1.4299,-1.4299,-1.4299,-1.4299,-1.4299,-1.4299,-1.4299,-1.4299,-1.4299,-1.4299,-1.4299,-1.4299,-1.4299,-1.4299,-1.4299,-1.4299,-1.4299,-1.4299,-1.4299,-1.4299,-1.4299,-1.4299,-1.4299,-1.4299,-1.4299,-1.4299,-1.4299,-1.4299,-1.4299,-1.4299,-1.4299,-1.4299,-1.4299,-1.577,-1.8191,-2.0702,-2.4496,-2.8221,-2.8221,-2.8221,-2.8221,-2.8194,-2.8181,-2.8181,-2.8154,-2.8154,-2.8154,-2.8154,-2.7843,-2.7629,-2.7682,-2.7455,-2.7228,-2.7228,-2.6987,-2.6787,-2.6787,-2.656,-2.6386,-2.6386,-2.6386,-2.6386,-2.6386,-2.6386,-2.6386,-2.6386,-2.6386,-2.6386,-2.6386,-2.6386,-2.64,-2.6426,-2.668,-2.6827,-2.6854,-2.7148,-2.7428,-2.7696,-2.7722,-2.7869,-2.8221,-3.2299,-3.546,-3.7657,-3.9864,-4.1016,-4.1172,-4.1016,-4.1016,-4.1172,-4.1172,-4.1172,-4.1172,-4.1172,-4.1172,-4.1172,-4.1172,-4.1172,-4.1172,-4.1172,-4.1172,-4.1172,-1.4299,-1.4299,-1.4299,-1.4299,-1.4299,-1.4299,-1.4299,-1.4299,-1.4299,-1.4299,-1.4299,-1.4299,-1.4299,-1.4299,-1.4299,-1.4299,-1.4299,-1.4299,-1.4299,-1.4299,-1.4299,-1.4299,-1.4299,-1.4299,-1.4299,-1.4299,-1.4299,-1.4299,-1.4299,-1.4299,-1.4299,-1.4299,-1.4299,-1.4299,-1.4299,-1.4299,-1.4299,-1.4299,-1.4299,-1.4299,-1.4299,-1.4299,-1.4299,-1.4299,-1.4299,-1.4299,-1.4299,-1.577,-1.8453,-2.2525,-2.5811,-2.8221,-2.8221,-2.8221,-2.8181,-2.7869,-2.7789,-2.7749,-2.7522,-2.7537,-2.7537,-2.7537,-2.7228,-2.7134,-2.7589,-2.7295,-2.6921,-2.6921,-2.668,-2.648,-2.648,-2.6426,-2.6386,-2.6386,-2.6386,-2.6386,-2.6386,-2.6386,-2.6386,-2.6386,-2.6386,-2.6386,-2.6386,-2.6386,-2.648,-2.6707,-2.6787,-2.6921,-2.7161,-2.7442,-2.7629,-2.7696,-2.7923,-2.8167,-2.8221,-3.0827,-3.3186,-3.5379,-3.7578,-3.9531,-4.1172,-3.9374,-3.9531,-4.1172,-4.1172,-4.1172,-4.1172,-4.1172,-4.1172,-4.1172,-4.1172,-4.1172,-4.1172,-4.1172,-4.1172,-4.1172,-1.4299,-1.4299,-1.4299,-1.4299,-1.4299,-1.4299,-1.4299,-1.4299,-1.4299,-1.4299,-1.4299,-1.4299,-1.4299,-1.4299,-1.4299,-1.4299,-1.4299,-1.4299,-1.4299,-1.4299,-1.4299,-1.4299,-1.4299,-1.4299,-1.4299,-1.4299,-1.4299,-1.4299,-1.4299,-1.4299,-1.4299,-1.4299,-1.4299,-1.4299,-1.4299,-1.4299,-1.4299,-1.4299,-1.4299,-1.4299,-1.4299,-1.4299,-1.4299,-1.4299,-1.4299,-1.4299,-1.4299,-1.6466,-1.9749,-2.217,-2.5373,-2.8221,-2.8221,-2.8127,-2.7896,-2.7749,-2.7602,-2.7455,-2.7308,-2.7268,-2.7268,-2.7268,-2.7041,-2.6907,-2.7215,-2.6934,-2.6613,-2.6613,-2.6493,-2.6386,-2.6386,-2.6386,-2.6386,-2.6386,-2.6386,-2.6386,-2.6386,-2.6386,-2.6386,-2.6386,-2.6386,-2.644,-2.6587,-2.66,-2.672,-2.7014,-2.7161,-2.7308,-2.7468,-2.7749,-2.7909,-2.7909,-2.814,-2.8221,-2.8221,-3.0343,-3.197,-3.3186,-3.5298,-3.7498,-3.961,-3.8469,-3.9119,-4.1172,-4.1172,-4.1172,-4.1172,-4.1172,-4.1172,-4.1172,-4.1172,-4.1172,-4.1172,-4.1172,-4.1172,-4.1172,-1.4299,-1.4299,-1.4299,-1.4299,-1.4299,-1.4299,-1.4299,-1.4299,-1.4299,-1.4299,-1.4299,-1.4299,-1.4299,-1.4299,-1.4299,-1.4299,-1.4299,-1.4299,-1.4299,-1.4299,-1.4299,-1.4299,-1.4299,-1.4299,-1.4299,-1.4299,-1.4299,-1.4299,-1.4299,-1.4299,-1.4299,-1.4299,-1.4299,-1.4299,-1.4299,-1.4299,-1.4299,-1.4299,-1.4299,-1.4299,-1.4299,-1.4299,-1.4299,-1.4299,-1.4299,-1.4299,-1.4299,-1.723,-2.116,-2.1601,-2.4488,-2.8087,-2.814,-2.7856,-2.7629,-2.7629,-2.7415,-2.7175,-2.7134,-2.7121,-2.7121,-2.7121,-2.6934,-2.6747,-2.6747,-2.656,-2.6386,-2.6386,-2.6386,-2.6386,-2.6386,-2.6386,-2.6386,-2.6386,-2.6386,-2.6386,-2.6386,-2.6386,-2.6386,-2.6386,-2.6426,-2.656,-2.68,-2.6867,-2.7028,-2.7321,-2.7562,-2.7722,-2.7776,-2.8003,-2.8221,-2.8221,-2.8221,-2.8221,-2.8221,-2.9941,-3.0827,-3.091,-3.271,-3.5056,-3.7896,-3.7498,-3.8803,-4.1172,-4.1172,-4.1172,-4.1172,-4.1172,-4.1172,-4.1172,-4.1172,-4.1172,-4.1172,-4.1172,-4.1172,-4.1172,-1.4299,-1.4299,-1.4299,-1.4299,-1.4299,-1.4299,-1.4299,-1.4299,-1.4299,-1.4299,-1.4299,-1.4299,-1.4299,-1.4299,-1.4299,-1.4299,-1.4299,-1.4299,-1.4299,-1.4299,-1.4299,-1.4299,-1.4299,-1.4299,-1.4299,-1.4299,-1.4299,-1.4299,-1.4299,-1.4299,-1.4299,-1.4299,-1.4299,-1.4299,-1.4299,-1.4299,-1.4299,-1.4299,-1.4299,-1.4299,-1.4299,-1.4299,-1.4299,-1.4299,-1.4299,-1.4299,-1.4299,-1.7148,-2.1194,-2.3157,-2.5391,-2.7428,-2.7682,-2.7562,-2.7321,-2.7321,-2.7108,-2.6827,-2.6573,-2.6507,-2.6507,-2.6507,-2.648,-2.6453,-2.6453,-2.6413,-2.6386,-2.6386,-2.6386,-2.6386,-2.6386,-2.6386,-2.6386,-2.6386,-2.6386,-2.6386,-2.6386,-2.6386,-2.6386,-2.6386,-2.6613,-2.6774,-2.6814,-2.7054,-2.7321,-2.7615,-2.7682,-2.7816,-2.8154,-2.8207,-2.8221,-2.8221,-2.8221,-2.8221,-2.8221,-2.8473,-2.8628,-2.8642,-2.8964,-3.2217,-3.7816,-3.596,-3.7339,-4.1172,-4.1172,-4.1172,-4.1172,-4.1172,-4.1172,-4.1172,-4.1172,-4.1172,-4.1172,-4.1172,-4.1172,-4.1172,-1.4299,-1.4299,-1.4299,-1.4299,-1.4299,-1.4299,-1.4299,-1.4299,-1.4299,-1.4299,-1.4299,-1.4299,-1.4299,-1.4299,-1.4299,-1.4299,-1.4299,-1.4299,-1.4299,-1.4299,-1.4299,-1.4299,-1.4299,-1.4299,-1.4299,-1.4299,-1.4299,-1.4299,-1.4299,-1.4299,-1.4299,-1.4299,-1.4299,-1.4299,-1.4299,-1.4299,-1.4299,-1.4299,-1.4299,-1.4299,-1.4299,-1.4299,-1.4299,-1.4299,-1.4299,-1.4462,-1.5585,-1.807,-2.1132,-2.3291,-2.5442,-2.7281,-2.7415,-2.7255,-2.7014,-2.7014,-2.6814,-2.6547,-2.6426,-2.6386,-2.6386,-2.6386,-2.6386,-2.6386,-2.6386,-2.6386,-2.6386,-2.6386,-2.6386,-2.6386,-2.6386,-2.6386,-2.6386,-2.6386,-2.6386,-2.6386,-2.6386,-2.6386,-2.6453,-2.6613,-2.6747,-2.6947,-2.7281,-2.7428,-2.7629,-2.7923,-2.7949,-2.8003,-2.8221,-2.8221,-2.8221,-2.8221,-2.8221,-2.8221,-2.8221,-2.8221,-2.8221,-2.8221,-2.8221,-3.0993,-3.6121,-3.5137,-3.7099,-4.1172,-4.1172,-4.1172,-4.1172,-4.1172,-4.1172,-4.1172,-4.1172,-4.1172,-4.1172,-4.1172,-4.1172,-4.1172]}]]